[[{"header":{"parameterUnit":"m.s-1","parameterCategory":1,"la1":30.6,"la2":28.766,"lo1":-90.7593,"lo2":-88.6598,"dy":0.0162,"dx":0.0183,"nx":116,"ny":114,"refTime":"2024-04-08T18:00:00:Z","depth":0,"parameterNumber":2,"parameterNumberName":"U-component_of_WINDS"},"data":[0.0,0.0,0.0,0.0,0.0,0.0,0.0,0.0,0.0,0.0,0.0,0.0,0.0,0.0,0.0,0.0,0.0,0.0,0.0,0.0,0.0,0.0,0.0,0.0,0.0,0.0,0.0,0.0,0.0,0.0,0.0,0.0,0.0,0.0,0.0,0.0,0.0,0.0,0.0,0.0,0.0,0.0,0.0,0.0,0.0,0.0,0.0,0.0,0.0,0.0,0.0,0.0,0.0,0.0,0.0,0.0,0.0,0.0,0.0,0.0,0.0,0.0,0.0,0.0,0.0,0.0,0.0,0.0,0.0,0.0,0.0,0.0,0.0,0.0,0.0,0.0,0.0,0.0,0.0,0.0,0.0,0.0,0.0,0.0,0.0,0.0,0.0,0.0,0.0,0.0,0.0,0.0,0.0,0.0,0.0,0.0,0.0,0.0,0.0,0.0,0.0,0.0,0.0,0.0,0.0,0.0,0.0,0.0,0.0,0.0,0.0,0.0,0.0,0.0,0.0,0.0,0.0,0.0,0.0,0.0,0.0,0.0,0.0,0.0,0.0,0.0,0.0,0.0,0.0,0.0,0.0,0.0,0.0,0.0,0.0,0.0,0.0,0.0,0.0,0.0,0.0,0.0,0.0,0.0,0.0,0.0,0.0,0.0,0.0,0.0,0.0,0.0,0.0,0.0,0.0,0.0,0.0,0.0,0.0,0.0,0.0,0.0,0.0,0.0,0.0,0.0,0.0,0.0,0.0,0.0,0.0,0.0,0.0,0.0,0.0,0.0,0.0,0.0,0.0,0.0,0.0,0.0,0.0,0.0,0.0,0.0,0.0,0.0,0.0,0.0,0.0,0.0,0.0,0.0,0.0,0.0,0.0,0.0,0.0,0.0,0.0,0.0,0.0,0.0,0.0,0.0,0.0,0.0,0.0,0.0,0.0,0.0,0.0,0.0,0.0,0.0,0.0,0.0,0.0,0.0,0.0,0.0,0.0,0.0,0.0,0.0,0.0,0.0,0.0,0.0,0.0,0.0,0.0,0.0,0.0,0.0,0.0,0.0,0.0,0.0,0.0,0.0,0.0,0.0,0.0,0.0,0.0,0.0,0.0,0.0,0.0,0.0,0.0,0.0,0.0,0.0,0.0,0.0,0.0,0.0,0.0,0.0,0.0,0.0,0.0,0.0,0.0,0.0,0.0,0.0,0.0,0.0,0.0,0.0,0.0,0.0,0.0,0.0,0.0,0.0,0.0,0.0,0.0,0.0,0.0,0.0,0.0,0.0,0.0,0.0,0.0,0.0,0.0,0.0,0.0,0.0,0.0,0.0,0.0,0.0,0.0,0.0,0.0,0.0,0.0,0.0,0.0,0.0,0.0,0.0,0.0,0.0,0.0,0.0,0.0,0.0,0.0,0.0,0.0,0.0,0.0,0.0,0.0,0.0,0.0,0.0,0.0,0.0,0.0,0.0,0.0,0.0,0.0,0.0,0.0,0.0,0.0,0.0,0.0,0.0,0.0,0.0,0.0,0.0,0.0,0.0,0.0,0.0,0.0,0.0,0.0,0.0,0.0,0.0,0.0,0.0,0.0,0.0,0.0,0.0,0.0,0.0,0.0,0.0,0.0,0.0,0.0,0.0,0.0,0.0,0.0,0.0,0.0,0.0,0.0,0.0,0.0,0.0,0.0,0.0,0.0,0.0,0.0,0.0,0.0,0.0,0.0,0.0,0.0,0.0,0.0,0.0,0.0,0.0,0.0,0.0,0.0,0.0,0.0,0.0,0.0,0.0,0.0,0.0,0.0,0.0,0.0,0.0,0.0,0.0,0.0,0.0,0.0,0.0,0.0,0.0,0.0,0.0,0.0,0.0,0.0,0.0,0.0,0.0,0.0,0.0,0.0,0.0,0.0,0.0,0.0,0.0,0.0,0.0,0.0,0.0,0.0,0.0,0.0,0.0,0.0,0.0,0.0,0.0,0.0,0.0,0.0,0.0,0.0,0.0,0.0,0.0,0.0,0.0,0.0,0.0,0.0,0.0,0.0,0.0,0.0,0.0,0.0,0.0,0.0,0.0,0.0,0.0,0.0,0.0,0.0,0.0,0.0,0.0,0.0,0.0,0.0,0.0,0.0,0.0,0.0,0.0,0.0,0.0,0.0,0.0,0.0,0.0,0.0,0.0,0.0,0.0,0.0,0.0,0.0,0.0,0.0,0.0,0.0,0.0,0.0,0.0,0.0,0.0,0.0,0.0,0.0,0.0,0.0,0.0,0.0,0.0,0.0,0.0,0.0,0.0,0.0,0.0,0.0,0.0,0.0,0.0,0.0,0.0,0.0,0.0,0.0,0.0,0.0,0.0,0.0,0.0,0.0,0.0,0.0,0.0,0.0,0.0,0.0,0.0,0.0,0.0,0.0,0.0,0.0,0.0,0.0,0.0,0.0,0.0,0.0,0.0,0.0,0.0,0.0,0.0,0.0,0.0,0.0,0.0,0.0,0.0,0.0,0.0,0.0,0.0,0.0,0.0,0.0,0.0,0.0,0.0,0.0,0.0,0.0,0.0,0.0,0.0,0.0,0.0,0.0,0.0,0.0,0.0,0.0,0.0,0.0,0.0,0.0,0.0,0.0,0.0,0.0,0.0,0.0,0.0,0.0,0.0,0.0,0.0,0.0,0.0,0.0,0.0,0.0,0.0,0.0,0.0,0.0,0.0,0.0,0.0,0.0,0.0,0.0,0.0,0.0,0.0,0.0,0.0,0.0,0.0,0.0,0.0,0.0,0.0,0.0,0.0,0.0,0.0,0.0,0.0,0.0,0.0,0.0,0.0,0.0,0.0,0.0,0.0,0.0,0.0,0.0,0.0,0.0,0.0,0.0,0.0,0.0,0.0,0.0,0.0,0.0,0.0,0.0,0.0,0.0,0.0,0.0,0.0,0.0,0.0,0.0,0.0,0.0,0.0,0.0,0.0,0.0,0.0,0.0,0.0,0.0,0.0,0.0,0.0,0.0,0.0,0.0,0.0,0.0,0.0,0.0,0.0,0.0,0.0,0.0,0.0,0.0,0.0,0.0,0.0,0.0,0.0,0.0,0.0,0.0,0.0,0.0,0.0,0.0,0.0,0.0,0.0,0.0,0.0,0.0,0.0,0.0,0.0,0.0,0.0,0.0,0.0,0.0,0.0,0.0,0.0,0.0,0.0,0.0,0.0,0.0,0.0,0.0,0.0,0.0,0.0,0.0,0.0,0.0,0.0,0.0,0.0,0.0,0.0,0.0,0.0,0.0,0.0,0.0,0.0,0.0,0.0,0.0,0.0,0.0,0.0,0.0,0.0,0.0,0.0,0.0,0.0,0.0,0.0,0.0,0.0,0.0,0.0,0.0,0.0,0.0,0.0,0.0,0.0,0.0,0.0,0.0,0.0,0.0,0.0,0.0,0.0,0.0,0.0,0.0,0.0,0.0,0.0,0.0,0.0,0.0,0.0,0.0,0.0,0.0,0.0,0.0,0.0,0.0,0.0,0.0,0.0,0.0,0.0,0.0,0.0,0.0,0.0,0.0,0.0,0.0,0.0,0.0,0.0,0.0,0.0,0.0,0.0,0.0,0.0,0.0,0.0,0.0,0.0,0.0,0.0,0.0,0.0,0.0,0.0,0.0,0.0,0.0,0.0,0.0,0.0,0.0,0.0,0.0,0.0,0.0,0.0,0.0,0.0,0.0,0.0,0.0,0.0,0.0,0.0,0.0,0.0,0.0,0.0,0.0,0.0,0.0,0.0,0.0,0.0,0.0,0.0,0.0,0.0,0.0,0.0,0.0,0.0,0.0,0.0,0.0,0.0,0.0,0.0,0.0,0.0,0.0,0.0,0.0,0.0,0.0,0.0,0.0,0.0,0.0,0.0,0.0,0.0,0.0,0.0,0.0,0.0,0.0,0.0,0.0,0.0,0.0,0.0,0.0,0.0,0.0,0.0,0.0,0.0,0.0,0.0,0.0,0.0,0.0,0.0,0.0,0.0,0.0,0.0,0.0,0.0,0.0,0.0,0.0,0.0,0.0,0.0,0.0,0.0,0.0,0.0,0.0,0.0,0.0,0.0,0.0,0.0,0.0,0.0,0.0,0.0,0.0,0.0,0.0,0.0,0.0,0.0,0.0,0.0,0.0,0.0,0.0,0.0,0.0,0.0,0.0,0.0,0.0,0.0,0.0,0.0,0.0,0.0,0.0,0.0,0.0,0.0,0.0,0.0,0.0,0.0,0.0,0.0,0.0,0.0,0.0,0.0,0.0,0.0,0.0,0.0,0.0,0.0,0.0,0.0,0.0,0.0,0.0,0.0,0.0,0.0,0.0,0.0,0.0,0.0,0.0,0.0,0.0,0.0,0.0,0.0,0.0,0.0,0.0,0.0,0.0,0.0,0.0,0.0,0.0,0.0,0.0,0.0,0.0,0.0,0.0,0.0,0.0,0.0,0.0,0.0,0.0,0.0,0.0,0.0,0.0,0.0,0.0,0.0,0.0,0.0,0.0,0.0,0.0,0.0,0.0,0.0,0.0,0.0,0.0,0.0,0.0,0.0,0.0,0.0,0.0,0.0,0.0,0.0,0.0,0.0,0.0,0.0,0.0,0.0,0.0,0.0,0.0,0.0,0.0,0.0,0.0,0.0,0.0,0.0,0.0,0.0,0.0,0.0,0.0,0.0,0.0,0.0,0.0,0.0,0.0,0.0,0.0,0.0,0.0,0.0,0.0,0.0,0.0,0.0,0.0,0.0,0.0,0.0,0.0,0.0,0.0,0.0,0.0,0.0,0.0,0.0,0.0,0.0,0.0,0.0,0.0,0.0,0.0,0.0,0.0,0.0,0.0,0.0,0.0,0.0,0.0,0.0,0.0,0.0,0.0,0.0,0.0,0.0,0.0,0.0,0.0,0.0,0.0,0.0,0.0,0.0,0.0,0.0,0.0,0.0,0.0,0.0,0.0,0.0,0.0,0.0,0.0,0.0,0.0,0.0,0.0,0.0,0.0,0.0,0.0,0.0,0.0,0.0,0.0,0.0,0.0,0.0,0.0,0.0,0.0,0.0,0.0,0.0,0.0,0.0,0.0,0.0,0.0,0.0,0.0,0.0,0.0,0.0,0.0,0.0,0.0,0.0,0.0,0.0,0.0,0.0,0.0,0.0,0.0,0.0,0.0,0.0,0.0,0.0,0.0,0.0,0.0,0.0,0.0,0.0,0.0,0.0,0.0,0.0,0.0,0.0,0.0,0.0,0.0,0.0,0.0,0.0,0.0,0.0,0.0,0.0,0.0,0.0,0.0,0.0,0.0,0.0,0.0,0.0,0.0,0.0,0.0,0.0,0.0,0.0,0.0,0.0,0.0,0.0,0.0,0.0,0.0,0.0,0.0,0.0,0.0,0.0,0.0,0.0,0.0,0.0,0.0,0.0,0.0,0.0,0.0,0.0,0.0,0.0,0.0,0.0,0.0,0.0,0.0,0.0,0.0,0.0,0.0,0.0,0.0,0.0,0.0,0.0,0.0,0.0,0.0,0.0,0.0,0.0,0.0,0.0,0.0,0.0,0.0,0.0,0.0,0.0,0.0,0.0,0.0,0.0,0.0,0.0,0.0,0.0,0.0,0.0,0.0,0.0,0.0,0.0,0.0,0.0,0.0,0.0,0.0,0.0,0.0,0.0,0.0,0.0,0.0,0.0,0.0,0.0,0.0,0.0,0.0,0.0,0.0,0.0,0.0,0.0,0.0,0.0,0.0,0.0,0.0,0.0,0.0,0.0,0.0,0.0,0.0,0.0,0.0,0.0,0.0,0.0,0.0,0.0,0.0,0.0,0.0,0.0,0.0,0.0,0.0,0.0,0.0,0.0,0.0,0.0,0.0,0.0,0.0,0.0,0.0,0.0,0.0,0.0,0.0,0.0,0.0,0.0,0.0,0.0,0.0,0.0,0.0,0.0,0.0,0.0,0.0,0.0,0.0,0.0,0.0,0.0,0.0,0.0,0.0,0.0,0.0,0.0,0.0,0.0,0.0,0.0,0.0,0.0,0.0,0.0,0.0,0.0,0.0,0.0,0.0,0.0,0.0,0.0,0.0,0.0,0.0,0.0,0.0,0.0,2.4344,0.0,0.0,0.0,0.0,0.0,0.0,0.0,0.0,0.0,0.0,0.0,0.0,0.0,0.0,0.0,0.0,0.0,0.0,0.0,0.0,0.0,0.0,0.0,0.0,1.5286,1.5846,1.672,1.6559,1.6655,1.7306,0.0,0.0,0.0,0.0,0.0,1.5601,1.6014,1.626,1.6323,1.8096,1.9111,1.9377,1.9805,1.9535,1.865,0.0,0.0,0.0,0.0,0.0,0.0,0.0,0.0,0.0,0.0,0.0,0.0,0.0,0.0,0.0,0.0,0.0,0.0,0.0,0.0,0.0,0.0,0.0,0.0,0.0,0.0,0.0,0.0,0.0,0.0,0.0,0.0,0.0,0.0,0.0,0.0,0.0,0.0,0.0,0.0,0.0,0.0,0.0,0.0,0.0,0.0,0.0,0.0,0.0,0.0,0.0,0.0,0.0,0.0,0.0,0.0,0.0,0.0,0.0,0.0,0.0,0.0,0.0,0.0,0.0,0.0,0.0,0.0,0.0,0.0,0.0,2.4538,0.0,0.0,0.0,0.0,0.0,0.0,0.0,0.0,0.0,0.0,0.0,0.0,0.0,0.0,0.0,0.0,0.0,0.0,0.0,0.0,0.0,1.4322,1.4708,1.5244,1.5929,1.6862,1.692,1.7001,1.7267,1.6562,1.5877,1.5369,1.5339,1.5038,1.4347,1.5393,1.6388,1.7326,1.9482,2.154,2.3441,2.3323,2.2538,2.1177,2.0037,0.0,0.0,0.0,0.0,0.0,0.0,0.0,0.0,0.0,0.0,0.0,0.0,0.0,0.0,0.0,0.0,0.0,0.0,0.0,0.0,0.0,0.0,0.0,0.0,0.0,0.0,0.0,0.0,0.0,0.0,0.0,0.0,0.0,0.0,0.0,0.0,0.0,0.0,0.0,0.0,0.0,0.0,0.0,0.0,0.0,0.0,0.0,0.0,0.0,0.0,0.0,0.0,0.0,0.0,0.0,0.0,0.0,0.0,0.0,0.0,0.0,0.0,0.0,0.0,0.0,2.8694,2.8753,2.8457,2.784,2.7075,2.7636,2.8858,0.0,0.0,0.0,0.0,0.0,0.0,0.0,0.0,0.0,0.0,0.0,0.0,0.0,0.0,0.0,0.0,0.0,0.0,0.0,0.0,1.4649,1.6063,1.6445,1.6959,1.7843,1.7548,1.6969,1.6097,1.5592,1.4914,1.393,1.4734,1.5231,1.5231,1.689,1.8296,1.9402,2.2117,2.4341,2.6006,2.5422,2.5364,2.5639,2.3369,2.1201,1.9372,0.0,0.0,0.0,0.0,0.0,0.0,0.0,0.0,0.0,0.0,0.0,0.0,0.0,0.0,0.0,0.0,0.0,0.0,0.0,0.0,0.0,0.0,0.0,0.0,0.0,0.0,0.0,0.0,0.0,0.0,0.0,0.0,0.0,0.0,0.0,0.0,0.0,0.0,0.0,0.0,0.0,2.1253,2.2513,0.0,0.0,0.0,0.0,0.0,0.0,0.0,0.0,0.0,0.0,0.0,0.0,0.0,0.0,2.6086,2.8541,2.9756,2.9753,3.1333,3.2139,3.2228,3.2228,3.2206,3.2054,2.9911,0.0,2.9365,2.9485,0.0,0.0,0.0,0.0,0.0,0.0,0.0,0.0,0.0,0.0,0.0,0.0,0.0,0.0,0.0,0.0,0.0,0.0,0.0,0.0,0.0,1.6356,1.7444,1.8048,1.8263,1.7877,1.677,1.6392,1.5674,1.4449,1.5243,1.5745,1.5857,1.7355,1.9657,2.2776,2.549,2.7477,2.8733,2.8531,2.8601,2.8853,2.7764,2.577,2.3232,2.3514,0.0,0.0,0.0,0.0,0.0,0.0,0.0,0.0,0.0,0.0,0.0,0.0,0.0,0.0,0.0,0.0,0.0,0.0,0.0,0.0,0.0,0.0,0.0,0.0,0.0,0.0,0.0,0.0,0.0,0.0,0.0,0.0,0.0,0.0,0.0,0.0,0.0,0.0,0.0,2.101,2.2216,2.2873,2.2917,2.2442,0.0,0.0,0.0,0.0,0.0,0.0,0.0,0.0,0.0,2.6153,2.7811,2.8676,2.8688,3.1195,3.2449,3.2417,3.3636,3.4187,3.4187,3.427,3.4321,3.43,3.3355,3.2937,3.2762,3.0462,2.9766,3.0,0.0,0.0,0.0,0.0,0.0,0.0,0.0,0.0,0.0,0.0,0.0,0.0,0.0,0.0,0.0,0.0,0.0,0.0,1.4734,1.659,1.8051,1.8601,1.9206,1.9009,1.7715,1.7489,1.6755,1.5341,1.5968,1.6429,1.6636,1.8775,2.2034,2.6371,2.86,3.019,3.1128,3.1254,3.1316,3.1344,3.1344,2.9577,2.659,2.6178,2.4876,2.3014,0.0,0.0,0.0,0.0,0.0,0.0,0.0,0.0,0.0,0.0,0.0,0.0,0.0,0.0,0.0,0.0,0.0,0.0,0.0,0.0,0.0,0.0,0.0,0.0,0.0,0.0,0.0,0.0,0.0,0.0,0.0,0.0,0.0,0.0,0.0,0.0,0.0,2.2095,2.3245,2.3789,2.4252,2.413,0.0,0.0,0.0,0.0,0.0,0.0,2.6717,2.7401,2.8012,2.8552,3.0446,3.1505,3.1572,3.3476,3.4434,3.4401,3.4988,3.5272,3.5272,3.5375,3.546,3.5511,3.5642,3.5706,3.5471,3.201,3.1044,3.1635,3.0783,3.0112,0.0,2.8907,2.9318,3.0126,0.0,0.0,0.0,0.0,0.0,0.0,0.0,0.0,0.0,0.0,0.0,1.509,1.6577,1.7947,1.9108,2.0001,2.054,2.0093,1.8371,1.8353,1.7716,1.6106,1.6689,1.7293,1.7812,2.2254,2.6307,2.9857,3.1002,3.2004,3.2885,3.2937,3.3016,3.3064,3.3064,3.0762,2.6932,2.7654,2.6482,2.4045,2.3185,0.0,0.0,0.0,0.0,0.0,0.0,0.0,0.0,0.0,0.0,0.0,0.0,0.0,0.0,0.0,0.0,0.0,0.0,0.0,0.0,0.0,0.0,0.0,0.0,0.0,0.0,0.0,0.0,0.0,0.0,0.0,0.0,0.0,0.0,0.0,0.0,0.0,0.0,2.6257,2.7847,0.0,0.0,0.0,0.0,2.6657,2.6619,2.7653,3.0047,3.0863,3.1945,3.3486,3.4458,3.4887,3.4765,3.515,3.5305,3.5238,3.5406,3.5472,3.5472,3.5472,3.5555,3.5706,3.5706,3.5738,3.577,3.5553,3.5367,3.5076,3.3584,3.2719,3.2011,2.9726,3.0018,3.1396,0.0,0.0,0.0,0.0,0.0,0.0,0.0,1.2094,1.2273,1.361,1.4491,1.544,1.6584,1.8809,2.0483,2.117,2.186,2.1877,2.1004,2.0374,1.9623,1.8649,1.826,1.8861,2.0574,2.5026,2.8017,2.9392,3.145,3.2917,3.3769,3.3901,3.3944,3.3973,3.3974,3.285,3.0928,3.0613,2.9012,2.6676,2.6285,2.4733,0.0,0.0,0.0,0.0,0.0,0.0,0.0,0.0,0.0,0.0,0.0,0.0,0.0,0.0,0.0,0.0,0.0,0.0,0.0,0.0,0.0,0.0,0.0,0.0,0.0,0.0,0.0,0.0,0.0,0.0,0.0,0.0,0.0,0.0,0.0,0.0,0.0,2.7109,2.7895,0.0,0.0,2.8323,2.8558,2.8282,3.0181,3.1732,3.2616,3.3364,3.3969,3.4482,3.4906,3.5101,3.5084,3.5809,3.6197,3.6231,3.675,3.7036,3.7036,3.7086,3.7136,3.7187,3.7257,3.7341,3.7341,3.7341,3.6693,3.5634,3.5105,3.5083,3.5292,3.4415,3.4704,3.54,0.0,0.0,0.0,0.0,0.0,0.0,1.1693,1.1656,1.2154,1.3775,1.5025,1.6312,1.7769,1.9999,2.1603,2.2071,2.2965,2.3189,2.2422,2.1789,2.1001,2.0043,2.0045,2.1386,2.4197,2.7437,2.9764,3.1134,3.2861,3.4318,3.5468,3.5547,3.5608,3.5662,3.5654,3.5048,3.3974,3.3353,3.1651,2.9317,2.8662,2.6474,2.3501,0.0,0.0,0.0,0.0,0.0,0.0,0.0,0.0,0.0,0.0,0.0,0.0,0.0,0.0,0.0,0.0,0.0,0.0,0.0,0.0,0.0,0.0,0.0,0.0,0.0,0.0,0.0,0.0,0.0,0.0,0.0,0.0,0.0,0.0,0.0,2.603,2.7864,2.8639,2.9198,2.9664,3.0344,3.0756,3.068,3.2938,3.416,3.3826,3.4836,3.5367,3.5223,3.5705,3.5954,3.5989,3.67,3.7108,3.7142,3.7716,3.8003,3.8021,3.8359,3.8212,3.7727,3.8676,3.8585,3.7863,3.8389,3.7827,3.6616,3.6616,3.6942,3.7377,3.7124,3.7167,3.7246,0.0,0.0,0.0,0.0,0.0,1.0406,0.9904,1.0487,1.1884,1.448,1.5894,1.7641,2.0122,2.1478,2.2338,2.2693,2.3802,2.388,2.2513,2.2455,2.1778,2.0151,2.2009,2.4814,2.8485,2.955,3.1781,3.5327,3.535,3.6293,3.8027,3.7973,3.8012,3.8125,3.8138,3.7211,3.5678,3.5678,3.4264,3.1867,3.0188,2.7931,2.547,0.0,0.0,0.0,0.0,0.0,0.0,0.0,0.0,0.0,0.0,0.0,0.0,0.0,0.0,0.0,0.0,0.0,0.0,0.0,0.0,0.0,0.0,0.0,0.0,0.0,0.0,0.0,0.0,0.0,0.0,0.0,0.0,0.0,2.194,2.5227,2.7919,2.8757,3.0413,3.2027,3.3477,3.3792,3.3878,3.3827,3.4623,3.4694,3.3741,3.5314,3.6202,3.6093,3.7004,3.7578,3.7632,3.7897,3.7984,3.8018,3.8158,3.8262,3.828,3.9127,3.8637,3.7247,3.9719,3.9376,3.7247,3.8855,3.9037,3.8264,3.821,3.8192,3.8106,3.7374,3.6956,3.6545,0.0,0.0,0.0,0.978,1.0182,1.0456,1.0272,1.0292,1.0911,1.2516,1.4789,1.6839,1.8393,2.0561,2.2308,2.3277,2.3643,2.4121,2.4722,2.3127,2.2075,2.1962,2.3879,2.658,3.0096,3.2428,3.4428,3.6093,3.6771,3.768,3.8799,3.8831,3.8862,3.8892,3.8998,3.8414,3.734,3.743,3.6366,3.4433,3.2754,3.0859,2.9004,0.0,0.0,0.0,0.0,0.0,0.0,0.0,0.0,0.0,0.0,0.0,0.0,0.0,0.0,0.0,0.0,0.0,0.0,0.0,0.0,0.0,0.0,0.0,0.0,0.0,0.0,0.0,0.0,0.0,0.0,0.0,0.0,2.7251,2.6847,2.7696,2.9394,3.21,3.2838,3.3348,3.391,3.4512,3.4566,3.3845,3.503,3.5648,3.5419,3.5295,3.526,3.535,3.5774,3.6003,3.6038,3.7356,3.8036,3.814,3.8821,3.9127,3.9145,3.9979,4.0124,3.9708,4.0309,4.0183,3.9568,4.0056,4.0146,3.989,3.866,3.8225,3.8189,3.7505,3.6825,3.6052,0.0,0.0,0.0,0.9567,1.0021,1.0323,1.0034,1.0223,1.0924,1.2381,1.4744,1.6871,1.8475,2.0533,2.2287,2.3482,2.3916,2.4282,2.459,2.3424,2.3376,2.4866,2.7062,2.9587,3.2409,3.4832,3.652,3.745,3.8018,3.8757,3.9595,3.9634,3.9687,3.9717,3.9781,3.9345,3.8546,3.8659,3.79,3.653,3.5218,3.2984,3.0471,3.0827,2.9297,2.7037,2.7338,2.6886,2.6047,2.5389,0.0,0.0,0.0,0.0,0.0,0.0,0.0,0.0,0.0,0.0,0.0,0.0,0.0,0.0,0.0,0.0,0.0,0.0,0.0,0.0,0.0,0.0,0.0,0.0,2.6964,2.9485,3.0554,3.0692,3.1408,3.3389,3.397,3.4376,3.4783,3.5155,3.5117,3.4549,3.5711,3.6257,3.596,3.5894,3.5633,3.5119,3.5969,3.6303,3.6047,3.7731,3.8791,3.917,3.9692,3.991,3.9962,4.0815,4.0833,0.0,4.1197,4.1034,4.0111,4.1162,4.1126,0.0,0.0,0.0,0.0,0.0,3.6858,3.5908,0.0,0.0,0.0,0.9178,0.9751,1.0034,0.9475,1.0148,1.1381,1.3247,1.5226,1.7316,1.9541,2.0993,2.2291,2.3573,2.4236,2.4202,2.3288,2.3562,2.5145,2.8287,3.0599,3.2863,3.515,3.6804,3.8099,3.9014,3.9089,3.9545,4.0289,4.031,4.0328,4.0396,4.0396,4.0021,3.9422,3.9485,3.9031,3.8176,3.7455,3.4781,3.1283,3.1888,3.0621,2.8602,2.927,2.8937,2.8166,2.7998,0.0,0.0,0.0,0.0,0.0,0.0,0.0,0.0,0.0,0.0,0.0,0.0,0.0,0.0,0.0,0.0,0.0,0.0,0.0,0.0,0.0,0.0,0.0,0.0,2.806,3.014,3.3073,3.3599,3.3685,3.3703,3.4408,3.5203,3.5864,3.5819,3.5723,3.564,3.6505,3.6671,3.5927,0.0,0.0,0.0,0.0,3.7554,3.7043,3.8683,3.9858,4.051,4.0619,4.0655,4.0673,4.1615,4.1233,3.9947,4.2177,4.1905,3.9984,4.2141,4.1917,4.0244,4.0474,4.0366,3.9828,3.8146,3.6991,0.0,0.0,0.0,0.0,0.9135,0.9408,0.9607,0.9434,0.988,1.1007,1.3132,1.5095,1.714,1.9472,2.0936,2.2388,2.4093,2.3308,2.311,2.402,2.405,2.6119,3.0776,3.1551,3.3683,3.7544,3.8177,3.8871,3.9707,3.9929,4.0138,4.0291,4.031,4.031,4.0328,4.0381,4.0281,4.0111,4.0242,3.9822,3.9047,3.884,3.7467,3.5534,3.5017,3.4067,3.2986,3.3198,3.2667,3.1744,3.0929,3.0103,2.9513,2.9972,0.0,0.0,0.0,0.0,0.0,0.0,0.0,0.0,0.0,0.0,0.0,0.0,0.0,0.0,0.0,0.0,0.0,0.0,0.0,0.0,2.8947,3.089,3.2525,3.319,3.4528,3.5485,3.5485,3.568,3.603,3.6728,3.6742,3.6681,3.6561,3.6882,3.7076,3.7069,3.615,0.0,3.6512,3.6904,3.7334,3.7873,3.9479,4.0365,4.0528,0.0,0.0,4.1651,4.2505,4.2705,4.2414,4.2776,4.2722,4.2377,4.251,4.2159,4.1487,4.0285,3.9487,3.8831,3.7452,3.7326,3.7667,0.0,0.0,0.0,0.8921,0.9343,0.9581,0.9286,0.9738,1.0726,1.2478,1.4228,1.613,1.8361,1.9592,2.0929,2.2663,2.2632,2.3397,2.5504,2.6213,2.851,3.2903,3.3892,3.5633,3.8338,3.8927,3.9429,3.9889,4.0117,4.0234,4.031,4.031,4.0346,4.0396,4.0363,4.0396,4.0457,4.0441,4.0226,3.9815,3.9377,3.8469,3.7252,3.6459,3.5579,3.4802,3.4828,3.4551,3.4074,3.3537,3.28,3.2163,3.2504,3.173,3.0053,0.0,0.0,0.0,0.0,0.0,0.0,0.0,0.0,0.0,0.0,0.0,0.0,0.0,0.0,2.7011,2.6879,0.0,2.7983,2.9582,3.0784,3.2249,3.4354,3.532,3.5829,3.5735,3.6201,3.6566,3.6736,3.6748,3.6771,3.6811,3.6992,3.7223,3.7485,3.7274,3.7039,3.6813,3.8036,3.8814,3.9085,4.0854,4.1991,4.2552,4.3335,4.3648,4.3516,4.4086,4.4343,4.4361,4.4287,4.4287,4.4269,4.3288,4.2637,4.2168,4.0788,3.9975,3.9469,3.8556,3.8276,3.8237,0.0,0.0,0.0,0.8745,0.9289,0.9619,0.919,0.9672,1.0571,1.2026,1.3332,1.4907,1.7033,1.7877,1.8872,2.0291,2.1905,2.3879,2.6333,2.8117,3.0765,3.457,3.6067,3.7411,3.869,3.9418,3.9804,3.9889,4.0077,4.0196,4.031,4.0328,4.0379,4.046,4.0381,4.0413,4.0534,4.043,4.0394,4.0332,3.9503,3.8677,3.7817,3.6983,3.6133,3.5364,3.5393,3.5398,3.5364,3.5315,3.4825,3.4255,3.4319,3.4244,3.3149,2.8256,2.8558,0.0,0.0,0.0,0.0,0.0,0.0,0.0,0.0,0.0,2.832,2.794,2.7717,2.7539,2.7448,2.7048,2.7579,3.0237,3.0833,3.2127,3.5541,3.5952,3.588,3.5687,3.6404,3.6788,3.6544,3.6502,3.6568,3.6834,3.7013,3.7299,3.7631,3.8618,3.8635,3.7464,3.9698,4.0907,4.0937,4.2495,4.3768,4.4736,4.5188,4.5269,4.507,4.5409,4.5526,4.5565,4.5603,4.5565,4.5279,4.4062,4.3191,4.2626,4.1704,4.1117,4.0656,4.0066,3.9404,3.8814,0.0,0.0,0.0,0.8789,0.9003,0.9217,0.9259,0.9593,1.0586,1.2706,1.3031,1.3943,1.6184,1.651,1.6865,1.7599,2.0963,2.3543,2.461,2.757,3.1151,3.5366,3.636,3.7667,3.9524,3.9829,3.9954,3.9889,4.0139,4.029,4.031,4.043,4.043,4.0328,4.0427,4.0411,4.0328,4.031,4.0345,4.0317,3.9461,3.8618,3.7805,3.6856,3.6029,3.533,3.5379,3.5369,3.5308,3.53,3.5243,3.5147,3.5162,3.5181,3.4546,3.1166,0.0,2.9363,2.4523,2.2442,2.2136,2.4044,2.5941,2.7273,0.0,0.0,3.1627,2.9525,3.0508,3.1671,3.1481,3.2057,3.2669,3.2966,3.4211,3.5282,3.5679,3.6269,3.6609,3.6405,3.6492,3.6544,3.6502,3.6402,3.655,3.7013,3.715,3.7394,3.7828,3.8814,3.9569,4.0058,4.1553,4.2817,4.383,4.4345,4.4785,4.521,4.5106,4.5042,4.5042,4.5228,4.533,4.533,4.5659,4.5294,4.451,4.4428,4.3878,4.3126,4.299,4.2538,4.1856,4.0783,4.0346,4.018,0.0,0.0,0.0,0.9058,0.9124,0.9244,0.9446,0.9514,1.0183,1.1936,1.2033,1.2677,1.4584,1.5054,1.545,1.5953,1.887,2.1779,2.4284,2.731,3.0775,3.4764,3.6136,3.7436,3.8855,3.9505,3.9864,3.9954,4.0078,4.0177,4.029,4.0444,4.0504,4.0534,4.0504,4.0504,4.0519,4.0363,4.0023,3.9543,3.9181,3.8263,3.7053,3.6651,3.5997,3.5097,3.3559,3.3012,0.0,0.0,3.2993,3.3276,3.4677,3.419,3.2745,3.1015,2.947,0.0,2.5728,2.5881,2.6825,0.0,2.958,3.114,3.0973,3.1836,3.2414,3.1484,3.1817,3.2267,3.2179,3.1777,3.2055,0.0,3.3876,3.4294,3.6094,3.6556,3.6725,3.6643,3.5382,3.451,3.4454,3.5849,3.6334,3.5314,3.672,3.7972,3.8723,3.9588,4.0547,4.1699,4.2796,4.3886,4.506,4.5419,4.5771,4.6069,4.6349,4.6434,4.6477,4.6749,4.6949,4.7028,4.6892,4.6217,4.5125,4.4883,4.416,4.3214,4.3214,4.2907,4.2463,4.2037,4.161,4.1235,0.0,0.0,0.0,0.0,0.0,0.9193,0.9538,0.9499,0.9833,1.0952,1.0899,1.1266,1.2509,1.3207,1.3797,1.4273,1.7183,2.0295,2.3329,2.6748,3.021,3.3701,3.5293,3.6702,3.7925,3.8635,3.9075,3.9252,3.9333,3.9547,3.9907,4.0108,4.0212,4.0226,4.0212,4.0077,3.986,3.967,3.9221,3.8629,3.8398,3.7577,3.6468,3.6249,3.535,3.3961,3.2016,3.1352,3.1238,0.0,3.0668,3.1428,3.246,3.2039,3.0909,2.9535,2.7377,2.5607,2.63,2.7479,0.0,3.0307,3.1879,3.3234,3.3857,3.3364,3.2773,3.2858,3.2488,3.2179,3.2179,3.1689,3.2038,3.4319,3.3981,3.4202,3.6434,3.6725,3.6417,3.5734,3.4189,3.2661,3.1323,3.4176,3.5753,3.4976,3.6916,3.8456,3.9281,4.0402,4.1537,4.2609,4.3796,4.4839,4.5766,4.6167,4.6516,4.6824,4.7187,4.7381,4.745,4.7705,4.7992,4.8267,4.7692,4.6863,4.5971,4.5529,4.4736,4.3802,4.3802,4.3494,4.31,4.3357,4.2775,4.1938,0.0,0.0,0.0,0.0,0.0,0.8981,0.9526,0.9538,0.9617,0.9995,0.971,0.9605,0.9982,1.0782,1.1598,1.2318,1.6422,1.9588,2.1019,2.562,2.9559,3.2352,3.3697,3.5211,3.7009,3.7194,3.7303,3.7385,3.7643,3.8156,3.8956,3.9287,3.9306,3.9066,3.932,3.881,3.7787,3.7769,3.775,3.7655,3.6884,3.6556,3.6403,3.5645,3.3757,3.1518,3.1435,3.1352,3.0921,0.0,2.8978,3.0471,2.794,2.8746,0.0,2.6858,2.41,2.2698,2.5608,0.0,2.445,2.9606,3.0939,3.1595,3.3952,3.381,3.3212,3.3266,3.2651,3.2108,3.2179,3.3493,3.4582,3.467,3.5784,3.6684,3.6684,3.6702,3.5769,3.3321,3.3254,3.1637,0.0,3.0847,3.4604,3.7309,3.8256,3.8813,3.9085,4.1145,4.2476,4.2781,4.4578,4.5775,4.626,4.6597,4.6944,4.7258,4.7116,4.7116,4.732,4.7302,4.7687,4.8267,4.7335,4.689,4.6827,4.6376,4.5852,4.5354,4.5354,4.4784,4.399,4.4545,4.361,4.2072,0.0,0.0,0.0,0.0,0.0,0.0,0.9074,0.9205,0.9393,0.971,0.9487,0.0,0.0,0.0,0.0,0.0,1.3445,1.5826,1.864,2.24,2.5786,2.8619,3.1623,3.3568,3.4269,3.5634,3.6415,3.6557,3.7243,3.7756,3.8115,3.8324,3.8368,3.8258,3.8358,3.819,3.7836,3.7725,3.7387,3.6891,3.6621,3.6143,3.5417,3.3467,3.2088,3.0757,0.0,2.6138,2.5981,0.0,0.0,0.0,2.6544,0.0,2.4949,2.2576,2.3151,2.4628,2.486,0.0,2.8497,3.0432,3.2142,3.3527,3.4153,3.375,3.3183,3.3124,3.1741,3.0681,3.122,3.1009,3.1409,3.351,3.2841,3.3169,3.633,3.4057,3.2887,3.5223,3.2966,0.0,0.0,0.0,0.0,3.388,3.7073,3.9751,4.133,4.2139,4.3207,4.4614,4.5436,4.6096,4.6614,4.6837,4.698,4.7098,4.7356,4.7486,4.7554,4.75,4.7609,4.7775,4.6845,4.6459,4.6411,4.5905,4.5563,4.5423,4.5423,4.4986,4.433,4.4529,4.4159,4.3429,0.0,0.0,0.0,0.0,0.0,0.0,0.0,0.0,0.0,0.0,0.0,0.0,0.0,0.0,0.0,0.0,0.0,1.3487,1.6402,1.9579,2.247,2.5068,2.8066,2.9936,3.0457,3.2279,3.3387,3.3694,3.4904,3.5742,3.6177,3.6458,3.6565,3.6492,3.6916,3.6883,3.6511,3.6757,3.6539,3.5938,3.5024,3.4318,3.3554,3.099,2.9304,0.0,2.4512,2.2671,2.1845,0.0,0.0,0.0,0.0,2.2772,2.1714,2.1967,2.3574,2.5433,2.6257,2.8533,3.093,3.1952,3.3419,3.4539,3.4316,3.3723,3.3201,3.3093,3.1923,3.0855,3.0593,3.0192,3.0591,3.2651,3.1812,3.2279,3.6225,3.4126,3.3028,3.5266,3.3125,3.2292,0.0,0.0,0.0,3.3247,3.6687,3.95,4.1127,4.1755,4.3179,4.5624,4.607,4.6462,4.6888,4.6952,4.7025,4.7116,4.7529,4.7657,4.7554,4.7396,4.6747,4.5696,4.587,4.5408,4.4606,4.5165,4.5318,4.5264,4.5264,4.478,4.4054,4.3933,4.3645,4.3232,0.0,0.0,0.0,0.0,0.0,0.0,0.0,0.0,0.0,0.0,0.0,0.0,0.0,0.0,0.0,0.0,0.0,0.0,1.429,1.7178,1.9717,2.1756,2.3335,2.4736,2.5896,2.7393,2.845,2.8992,3.0777,3.212,3.3109,3.3657,3.3814,3.3614,3.4754,3.4693,3.3777,3.463,3.4947,3.4642,3.2118,3.1146,3.0914,2.8289,2.5616,2.3235,2.2901,2.1074,0.0,0.0,0.0,0.0,0.0,1.931,2.0703,2.4658,2.5143,2.5295,2.9368,3.0723,3.1574,3.3998,3.4602,3.4561,3.4409,3.3802,3.3194,3.3087,3.2944,3.2175,0.0,0.0,3.1742,3.2074,3.2472,3.363,3.618,3.6423,3.5588,0.0,0.0,0.0,0.0,0.0,0.0,3.5449,0.0,3.8526,3.9062,4.0471,4.2662,4.5766,4.6496,4.6888,4.6998,4.6998,4.7116,4.7302,4.7554,4.7554,4.7302,4.7017,4.5311,4.2632,4.4565,4.4051,4.199,4.4402,4.5264,4.4978,4.4978,4.4259,4.3284,4.2883,4.2252,4.1622,0.0,0.0,0.0,0.0,0.0,0.0,0.0,0.0,0.0,0.0,0.0,0.0,0.0,0.0,0.0,0.0,0.0,0.0,1.1912,1.4805,1.7061,1.8387,2.113,2.2834,2.3245,2.473,2.5724,2.6142,2.7317,2.8145,2.8724,2.8874,2.8922,2.8909,2.9231,2.9578,2.9888,2.9513,2.9687,3.0099,2.8878,2.837,2.8074,2.5502,2.3864,2.268,2.0774,1.9416,0.0,0.0,0.0,0.0,0.0,2.4253,2.4383,2.4472,0.0,2.8695,2.8834,3.1157,3.373,3.4433,3.4602,3.4539,3.4293,3.3917,3.3131,3.1516,3.0118,2.8732,0.0,0.0,0.0,3.0508,2.933,0.0,3.3644,3.2647,0.0,3.3512,0.0,3.4654,3.6417,3.8186,0.0,0.0,3.9229,4.1235,4.3143,4.3518,4.4555,4.6468,4.6781,4.6998,4.6998,4.6998,4.7116,4.7302,4.7554,4.7554,4.7302,4.7017,4.628,4.5217,4.5371,4.5027,4.4506,4.5148,4.5264,4.4978,4.458,4.3922,4.3207,4.2482,4.2042,4.17,0.0,0.0,0.0,0.0,0.0,0.0,0.0,0.0,0.0,0.0,0.0,0.0,0.0,0.0,0.0,0.0,0.0,0.0,0.0,1.2389,1.4032,1.4896,1.7411,1.8993,1.9387,2.1181,2.2404,2.3002,2.4292,2.5168,2.5616,2.5775,2.5946,2.607,2.6584,2.702,2.7412,2.7384,2.7616,0.0,0.0,2.5729,2.5153,2.2782,2.1478,2.0679,1.9255,1.8643,0.0,0.0,0.0,2.3204,2.6644,2.7289,2.7004,2.8031,0.0,3.1002,3.1024,3.2692,3.4473,3.458,3.4561,3.4244,3.3221,3.2728,3.1865,2.9755,2.8682,0.0,2.5974,0.0,0.0,0.0,0.0,0.0,3.2788,3.2089,3.1882,0.0,3.4246,0.0,3.8524,4.0148,4.0601,0.0,4.0039,4.1184,4.3066,4.3072,4.4138,4.666,4.6842,4.6888,4.6888,4.6749,4.676,4.7062,4.7017,4.6908,4.6788,4.6649,4.5623,4.392,0.0,4.4665,4.3544,4.4872,4.514,4.4742,4.4226,4.3372,4.237,4.1548,4.0956,4.0507,0.0,0.0,0.0,0.0,0.0,0.0,0.0,0.0,0.0,0.0,0.78,0.7744,0.0,0.0,0.0,0.0,0.0,0.0,0.0,0.0,1.1335,1.188,1.351,1.4758,1.5518,1.753,1.8973,1.9857,2.1392,2.2435,2.2968,2.336,2.363,2.3852,2.4879,2.5311,2.5333,2.6105,2.6384,2.6207,2.4226,2.3031,2.2206,0.0,0.0,0.0,1.8133,0.0,0.0,0.0,2.4604,2.393,2.8778,2.9533,2.9228,3.2452,3.2858,3.2496,3.3665,3.4166,3.4404,3.4495,3.4431,3.3915,3.2182,3.1342,3.0351,2.8386,0.0,2.7525,2.5605,2.5767,2.6943,2.9194,0.0,3.0162,3.2001,3.2838,3.3281,3.3332,3.451,3.6307,3.8795,4.0383,4.1378,4.1733,4.0637,4.04,4.1564,4.1645,4.3195,4.6531,4.6731,4.6795,4.6842,4.6381,4.6363,4.6707,4.631,4.6133,4.6186,4.6186,4.4488,4.163,0.0,0.0,4.1681,4.4182,4.4824,4.4277,4.3647,4.2555,4.1213,4.0337,3.9574,3.891,0.0,0.0,0.0,0.0,0.0,0.0,0.0,0.0,0.0,0.0,0.748,0.7676,0.0,0.0,0.0,0.0,0.0,0.0,0.0,0.0,0.0,1.1402,1.2591,1.3689,1.4599,1.5281,1.6255,1.7568,1.7995,1.8529,1.916,1.9351,1.9542,1.974,2.0107,2.0731,2.1509,2.0997,2.1087,2.1422,2.0383,1.9756,1.9327,0.0,0.0,0.0,0.0,0.0,0.0,2.4257,2.6056,2.6921,3.1506,3.2902,3.258,3.1169,3.2077,3.3229,3.1648,3.2678,3.4221,3.4124,3.4099,3.4039,3.3902,3.2391,0.0,0.0,2.7296,2.6023,2.6016,2.6083,2.6868,2.9076,2.9506,0.0,0.0,0.0,3.2964,0.0,0.0,0.0,0.0,0.0,0.0,0.0,0.0,0.0,4.4363,4.4493,4.5308,4.6898,4.6731,4.6778,4.7151,4.6381,4.6297,4.6863,4.6358,4.6133,4.6186,4.6186,4.5608,4.4665,0.0,0.0,4.4578,4.416,4.3769,4.33,4.1816,4.0918,4.0321,3.9434,3.9038,3.8846,0.0,0.0,0.0,0.0,0.0,0.0,0.0,0.7149,0.6869,0.6597,0.6721,0.6967,0.7308,0.7702,0.7947,0.0,0.0,0.0,0.0,0.0,0.0,0.0,0.0,0.0,0.0,1.4139,0.0,0.0,0.0,0.0,0.0,0.0,0.0,0.0,0.0,0.0,1.9524,1.9162,1.9182,1.9489,0.0,0.0,0.0,0.0,0.0,0.0,0.0,0.0,0.0,0.0,2.4176,2.5667,3.1725,3.3625,3.3104,3.0695,3.1725,3.3158,3.0983,3.1955,3.3634,3.3787,3.3652,3.3084,3.1484,0.0,0.0,0.0,2.4766,2.3898,2.4127,2.4139,0.0,2.8647,2.9299,2.9472,2.9747,3.2039,0.0,0.0,0.0,0.0,0.0,0.0,0.0,0.0,0.0,0.0,0.0,4.6043,4.6532,4.7088,4.707,4.6944,4.6649,4.6249,4.6052,4.6003,4.57,4.5615,4.5803,4.5803,4.5667,4.5423,0.0,0.0,0.0,4.3473,4.2506,4.0642,4.068,4.0414,3.9839,3.9173,3.8777,3.8647,0.0,0.0,0.0,0.0,0.0,0.0,0.7002,0.6846,0.6535,0.6058,0.6018,0.6219,0.6651,0.7213,0.7588,0.0,0.0,0.0,0.0,0.0,0.0,0.0,0.0,0.0,0.0,0.0,0.0,0.0,0.0,0.0,0.0,0.0,0.0,0.0,0.0,0.0,0.0,1.8378,1.8417,0.0,0.0,0.0,0.0,0.0,0.0,0.0,0.0,0.0,0.0,0.0,2.1879,2.3221,2.9692,3.1717,3.1454,3.0115,3.1057,3.2262,3.1155,3.1873,3.3039,3.3364,3.3189,3.2174,2.9266,2.7853,0.0,0.0,2.2624,2.2141,2.2813,0.0,2.4222,0.0,2.8609,2.935,3.1925,3.2704,3.3259,0.0,0.0,0.0,0.0,0.0,0.0,0.0,0.0,0.0,0.0,4.6864,4.7223,4.7223,4.7338,4.7062,4.6328,4.6165,4.5835,4.5336,4.5086,4.514,4.5423,4.5423,4.5423,4.5371,0.0,0.0,0.0,4.2257,4.0992,3.8164,3.9633,3.9919,3.939,3.8953,3.8615,3.8416,0.0,0.0,0.0,0.0,0.0,0.0,0.6766,0.6256,0.5792,0.5666,0.5804,0.5957,0.6073,0.6683,0.7267,0.0,0.0,0.0,0.0,0.0,0.0,0.0,0.0,0.0,0.0,0.0,0.0,0.0,0.0,0.0,0.0,0.0,0.0,0.0,0.0,0.0,0.0,0.0,0.0,0.0,0.0,0.0,0.0,0.0,0.0,0.0,0.0,0.0,0.0,0.0,0.0,2.1323,2.4391,2.5957,2.6989,2.8681,0.0,0.0,3.2122,3.2742,3.2795,3.2702,3.2687,3.2223,3.0647,0.0,2.5874,2.5208,2.2762,2.1624,2.4493,2.4962,0.0,2.8094,2.7078,2.6805,2.907,3.0154,3.1529,3.3743,0.0,0.0,0.0,0.0,0.0,0.0,0.0,0.0,0.0,4.7151,4.7276,4.7276,4.7214,4.708,4.6934,4.6231,4.5885,4.5735,4.523,4.514,4.5423,4.5423,4.5423,4.5336,0.0,0.0,0.0,4.0458,3.9102,3.7114,3.8209,3.8553,3.8489,3.8489,3.8456,3.8408,0.0,0.0,0.0,0.0,0.0,0.0,0.651,0.6201,0.5802,0.547,0.5278,0.5332,0.5713,0.6178,0.6864,0.7897,0.8004,0.0,0.0,0.0,0.0,0.0,0.0,0.0,0.0,0.0,1.1976,1.2996,1.3947,0.0,0.0,0.0,0.0,0.0,0.0,0.0,0.0,1.7142,0.0,0.0,0.0,0.0,0.0,0.0,0.0,0.0,0.0,0.0,0.0,0.0,0.0,0.0,1.9751,2.0297,0.0,0.0,2.6516,2.8863,2.8585,3.0304,3.2249,3.2386,3.2127,3.1094,2.8355,0.0,2.4712,2.3046,2.142,2.0842,2.2602,2.2946,2.3638,2.5826,2.566,2.6588,3.0335,3.1562,3.316,3.6035,0.0,0.0,0.0,0.0,0.0,0.0,0.0,0.0,0.0,0.0,4.7572,4.7657,4.7663,4.7309,4.6602,4.6519,4.6084,4.5336,4.5247,4.5318,4.5423,4.5423,4.5024,0.0,0.0,0.0,0.0,3.909,3.7666,3.4235,3.7215,3.8391,3.8391,3.8391,3.8391,3.8391,0.0,0.0,0.0,0.0,0.0,0.5891,0.6158,0.6015,0.5737,0.5388,0.5078,0.5046,0.5473,0.6002,0.6734,0.7715,0.8019,0.0,0.0,0.0,0.0,0.0,0.0,0.0,0.0,0.0,1.1229,1.185,1.3176,1.4026,0.0,0.0,0.0,0.0,0.0,0.0,0.0,0.0,0.0,0.0,0.0,0.0,0.0,0.0,0.0,0.0,0.0,0.0,0.0,0.0,0.0,0.0,0.0,1.6658,1.7425,0.0,2.4093,2.7269,2.6522,2.9015,3.1873,3.2091,3.1231,2.9476,2.6349,2.4597,2.3063,2.0969,2.0189,2.0175,2.1069,2.123,2.1989,2.4229,2.4767,2.6336,3.0403,3.1517,3.311,0.0,0.0,0.0,0.0,0.0,0.0,0.0,0.0,0.0,0.0,0.0,4.7657,4.7925,4.7888,4.7396,4.6406,4.6613,4.6151,4.5086,4.5318,4.5079,4.4458,4.5113,4.4421,0.0,0.0,0.0,0.0,3.8208,3.6996,3.3307,3.6967,3.8391,3.8391,3.8391,3.8391,3.8391,0.0,0.0,0.0,0.0,0.0,0.525,0.5641,0.5489,0.534,0.5405,0.5386,0.5368,0.531,0.6237,0.6953,0.71,0.7824,0.0,0.0,0.0,0.0,0.0,0.0,0.0,0.0,0.0,1.0676,1.2004,1.2671,1.3415,1.4213,1.4964,1.5358,1.5418,0.0,0.0,0.0,0.0,1.5856,0.0,0.0,0.0,0.0,0.0,0.0,0.0,0.0,0.0,0.0,0.0,0.0,0.0,0.0,1.5695,1.7125,1.9815,2.2497,2.506,2.7334,2.9848,3.18,3.18,2.9899,2.7487,2.5463,2.3014,2.0847,1.972,1.9466,1.9699,2.0635,2.0877,2.166,2.3923,2.4518,2.556,2.7992,2.8669,0.0,0.0,0.0,0.0,0.0,0.0,0.0,0.0,0.0,0.0,0.0,0.0,4.7371,4.7992,4.7663,4.7258,4.6707,4.6363,4.5938,4.5371,4.5423,4.4302,4.2327,4.4457,0.0,0.0,0.0,0.0,0.0,3.7997,3.7112,3.5364,3.7549,3.8391,3.8391,3.8391,3.8391,3.8391,0.0,0.0,0.0,0.0,0.0,0.0,0.539,0.5566,0.5658,0.5679,0.5485,0.5526,0.6002,0.6224,0.6674,0.7493,0.7935,0.0,0.0,0.0,0.0,0.0,0.0,0.0,0.0,0.9502,0.9994,1.0851,1.2141,1.3051,1.3538,1.4732,1.5358,1.5477,1.5448,1.5624,0.0,1.5755,1.577,0.0,0.0,0.0,0.0,0.0,0.0,0.0,0.0,0.0,0.0,0.0,0.0,0.0,0.0,0.0,0.0,1.6011,1.8961,2.202,2.2535,2.4607,2.6589,2.6539,2.5613,2.4128,2.1956,2.0414,1.9078,1.7711,1.7958,1.8587,1.929,2.0315,2.1658,2.3559,2.4227,2.5783,0.0,0.0,0.0,0.0,0.0,0.0,0.0,0.0,0.0,0.0,0.0,0.0,0.0,0.0,0.0,4.7518,4.7151,4.6771,4.6363,4.6266,4.5955,4.5423,4.5423,4.3855,4.1126,0.0,0.0,0.0,0.0,0.0,0.0,3.7559,3.7074,3.5396,3.7549,3.8391,3.8391,3.8391,3.8391,3.8391,0.0,0.0,0.0,0.0,0.0,0.0,0.5214,0.5498,0.57,0.5857,0.5657,0.5664,0.6022,0.6109,0.6468,0.7309,0.7731,0.0,0.0,0.0,0.0,0.0,0.0,0.0,0.9232,0.9328,0.9536,0.9899,1.1454,1.2427,1.2775,1.4241,1.5096,1.5433,1.5522,1.5668,0.0,1.5566,1.5639,1.5885,0.0,0.0,1.5797,0.0,0.0,0.0,0.0,0.0,0.0,0.0,0.0,0.0,0.0,0.0,0.0,0.0,1.5987,1.8495,1.9594,2.1791,2.3687,2.352,2.2524,2.1175,1.9531,1.8371,1.7482,1.6778,1.8045,1.9206,1.9026,2.0593,2.1882,2.1921,2.3913,2.599,0.0,0.0,0.0,0.0,0.0,0.0,0.0,0.0,0.0,0.0,0.0,0.0,0.0,0.0,0.0,4.6788,4.6631,4.6394,4.6186,4.6005,4.5701,4.5371,4.4972,4.3237,4.0536,0.0,0.0,0.0,0.0,0.0,0.0,3.7633,3.7431,3.6476,3.7873,3.8391,3.8391,3.8391,3.8391,3.8391,0.0,0.0,0.0,0.0,0.0,0.0,0.0,0.5327,0.5547,0.5897,0.5912,0.5823,0.5615,0.595,0.6342,0.6721,0.7338,0.0,0.0,0.0,0.0,0.0,0.0,0.0,0.9286,0.9286,0.9273,0.9245,1.0713,1.1612,1.1976,1.3469,1.4501,1.518,1.5492,1.5565,1.5448,1.5359,1.5507,1.577,1.5165,1.5075,0.0,0.0,0.0,0.0,0.0,0.0,0.0,0.0,0.0,0.0,0.0,0.0,0.0,0.0,0.0,0.0,0.0,2.0603,2.2388,2.1973,2.0241,1.8478,1.793,1.6718,0.0,1.6701,1.9234,2.0907,1.9523,2.1536,2.2478,1.9604,2.3615,2.6148,0.0,0.0,0.0,0.0,0.0,0.0,0.0,0.0,0.0,0.0,0.0,0.0,0.0,0.0,0.0,0.0,4.6,4.6084,4.6137,4.5615,4.5268,4.5096,4.4109,4.2364,4.0012,0.0,0.0,0.0,0.0,0.0,0.0,3.8107,3.818,3.818,3.8335,3.8408,3.8408,3.8408,3.8391,3.8391,0.0,0.0,0.0,0.0,0.0,0.0,0.0,0.0,0.0,0.0,0.5749,0.6029,0.6372,0.6281,0.6488,0.0,0.0,0.0,0.0,0.0,0.0,0.0,0.0,0.0,0.9135,0.9205,0.9334,0.959,1.0518,1.1135,1.1494,1.2471,1.3244,1.3794,1.4018,1.4449,1.498,1.5209,1.5225,1.5134,1.5013,1.4683,0.0,0.0,0.0,0.0,1.232,1.1804,0.0,0.0,0.0,0.0,0.0,0.0,0.0,0.0,1.2167,1.3124,1.3495,0.0,1.7182,1.697,1.6055,1.5179,0.0,1.3963,1.3788,0.0,0.0,1.9315,1.8993,2.2574,2.4464,2.1155,2.3795,2.5869,0.0,0.0,0.0,0.0,0.0,0.0,0.0,0.0,0.0,0.0,0.0,0.0,0.0,0.0,0.0,0.0,4.4867,4.5145,4.5563,4.5009,4.3783,4.2054,4.2654,4.0406,0.0,0.0,0.0,0.0,0.0,0.0,0.0,3.7817,3.7876,3.7992,3.8164,3.8237,3.8294,3.8351,3.8391,3.8391,0.0,0.0,0.0,0.0,0.0,0.0,0.0,0.0,0.0,0.0,0.5547,0.5897,0.6252,0.6222,0.6499,0.0,0.0,0.0,0.0,0.0,0.0,0.0,0.0,0.9026,0.8811,0.9026,0.9062,0.8961,1.0133,1.0904,1.1282,1.2355,1.3185,1.3753,1.3984,1.4379,1.4904,1.4676,1.4463,1.4258,1.3736,0.0,0.0,0.0,0.0,0.0,1.1047,1.0655,0.0,1.0263,1.0097,0.9802,0.0,0.0,0.0,0.0,1.0626,1.1193,1.1371,1.2756,1.4245,1.4574,1.3746,1.3026,1.3655,1.2796,1.2693,0.0,0.0,1.8128,1.8693,2.1303,2.2783,2.0961,2.2409,0.0,0.0,0.0,0.0,0.0,0.0,0.0,0.0,0.0,0.0,0.0,0.0,0.0,0.0,0.0,0.0,0.0,0.0,4.421,4.4525,4.421,4.2809,4.0417,4.1409,3.9699,0.0,0.0,0.0,0.0,0.0,0.0,3.7637,3.6781,3.6956,3.7817,3.7992,3.8049,3.8049,3.8221,3.8294,3.8351,0.0,0.0,0.0,0.0,0.0,0.0,0.0,0.0,0.0,0.0,0.0,0.0,0.0,0.0,0.0,0.0,0.0,0.0,0.0,0.0,0.0,0.0,0.8971,0.8866,0.8484,0.8728,0.8616,0.8102,0.9574,1.0472,1.0859,1.225,1.3289,1.4023,1.4187,1.4467,1.4738,1.3821,1.3412,1.3225,1.2145,0.0,0.0,0.0,0.0,0.0,0.0,0.0,0.0,0.9621,0.9647,0.9571,0.9209,0.0,0.0,0.0,0.0,0.0,1.0273,1.1298,1.2405,1.3736,1.2663,1.1731,1.3399,1.2408,1.2086,0.0,0.0,1.7555,1.8725,2.0231,0.0,0.0,0.0,0.0,0.0,0.0,0.0,0.0,0.0,0.0,0.0,0.0,0.0,0.0,0.0,0.0,0.0,0.0,0.0,0.0,0.0,0.0,4.311,4.3183,4.1994,3.9485,4.0341,3.9374,3.6936,0.0,0.0,0.0,0.0,0.0,3.7632,3.5998,3.6318,3.7759,3.7876,3.7934,3.7934,3.8123,3.818,3.8237,0.0,0.0,0.0,0.0,0.0,0.0,0.0,0.0,0.0,0.0,0.0,0.0,0.0,0.0,0.0,0.0,0.0,0.0,0.0,0.0,0.0,0.8174,0.8551,0.8617,0.8336,0.8277,0.8189,0.8111,0.8689,0.9022,0.9095,1.0403,1.1644,1.2788,1.2685,1.2973,1.345,1.2655,1.2254,1.2013,1.1446,0.0,0.0,0.0,0.0,0.0,0.0,0.0,0.0,0.8452,0.8284,0.8006,0.777,0.0,0.0,0.0,0.0,0.0,0.8421,0.9065,1.048,1.3717,1.2624,1.1286,1.3186,1.1676,1.1272,1.6183,0.0,0.0,0.0,2.4112,2.6,0.0,0.0,0.0,0.0,0.0,0.0,0.0,0.0,0.0,0.0,0.0,0.0,0.0,0.0,0.0,0.0,0.0,0.0,0.0,0.0,0.0,0.0,4.1788,4.0882,3.854,3.9194,3.8228,3.5976,3.7617,0.0,0.0,0.0,0.0,3.7844,3.7582,3.7588,3.7876,3.8049,3.8049,3.7934,3.8123,3.818,3.8237,0.0,0.0,0.0,0.0,0.0,0.0,0.0,0.0,0.0,0.0,0.0,0.0,0.0,0.0,0.0,0.0,0.0,0.0,0.0,0.0,0.7769,0.7363,0.7937,0.8184,0.7976,0.7882,0.782,0.7783,0.8576,0.905,0.9202,1.0532,1.1402,1.1858,1.1896,1.2021,1.2138,1.1623,1.1168,1.072,0.0,0.0,0.0,0.0,0.0,0.0,0.0,0.0,0.0,0.0,0.7637,0.7484,0.7144,0.0,0.0,0.0,0.0,0.0,0.7045,0.764,0.9287,1.37,1.2479,1.1331,1.5832,1.3129,1.1451,0.0,0.0,0.0,0.0,0.0,0.0,0.0,0.0,0.0,0.0,0.0,0.0,0.0,0.0,0.0,0.0,0.0,0.0,0.0,0.0,0.0,0.0,0.0,0.0,0.0,0.0,0.0,0.0,4.0375,3.9311,3.7118,3.8519,3.7906,3.5576,3.7513,3.8351,0.0,0.0,3.7213,3.7969,3.6853,3.699,3.7934,3.7992,3.7934,3.7817,3.7876,3.8049,3.8237,0.0,0.0,0.0,0.0,0.0,0.0,0.0,0.0,0.0,0.0,0.0,0.0,0.0,0.0,0.0,0.0,0.0,0.0,0.0,0.7157,0.7262,0.685,0.7375,0.7595,0.7347,0.7382,0.7291,0.7092,0.8219,0.9083,0.9704,1.0603,1.1087,1.1229,1.1203,1.1173,1.1149,1.0692,1.024,0.9763,0.0,0.0,0.0,0.0,0.0,0.0,0.0,0.0,0.0,0.0,0.0,0.0,0.0,0.0,0.0,0.5656,0.5523,0.5572,0.6013,0.6628,0.8275,1.2969,1.1757,1.1221,1.8017,1.4369,1.1573,0.0,0.0,0.0,0.0,0.0,0.0,0.0,0.0,0.0,0.0,0.0,0.0,0.0,0.0,0.0,0.0,0.0,0.0,0.0,0.0,0.0,0.0,0.0,0.0,0.0,0.0,0.0,0.0,3.9401,3.8396,3.6837,3.8289,3.7974,3.6068,3.7686,3.8391,3.8311,3.6697,3.6853,3.8092,3.6556,3.6722,3.7992,3.7992,3.7934,3.7759,3.77,3.7876,3.8123,0.0,0.0,0.0,0.0,0.0,0.0,0.0,0.0,0.0,0.0,0.0,0.0,0.0,0.0,0.0,0.0,0.0,0.0,0.0,0.6496,0.6738,0.6901,0.7008,0.6829,0.6319,0.6602,0.6492,0.5913,0.6932,0.8271,0.9881,0.9524,0.9937,1.0896,1.0219,1.0235,1.0704,0.9928,0.9574,0.9477,0.8897,0.0,0.0,0.0,0.0,0.0,0.0,0.0,0.0,0.0,0.0,0.0,0.0,0.0,0.4944,0.4615,0.4507,0.4668,0.5445,0.5999,0.721,1.0695,1.0109,1.0578,1.7873,1.4084,0.0,1.8634,0.0,0.0,0.0,0.0,0.0,0.0,0.0,0.0,0.0,0.0,0.0,0.0,0.0,0.0,0.0,0.0,0.0,0.0,0.0,0.0,0.0,0.0,0.0,0.0,0.0,0.0,0.0,0.0,3.9123,3.8957,3.8629,3.8367,3.8165,3.8327,3.8391,3.8391,3.823,3.8262,3.8391,3.823,3.8262,3.8335,3.8335,3.8164,3.7876,3.7759,3.77,3.7759,0.0,0.0,0.0,0.0,0.0,0.0,0.0,0.0,0.0,0.0,0.0,0.3495,0.3728,0.0,0.0,0.0,0.0,0.0,0.0,0.6268,0.6414,0.6479,0.6635,0.6339,0.5403,0.5888,0.6143,0.6172,0.7108,0.8064,0.9029,0.9056,0.9086,0.909,0.9031,0.888,0.8713,0.8685,0.8582,0.8375,0.8275,0.7956,0.0,0.0,0.0,0.0,0.0,0.0,0.0,0.0,0.5523,0.5322,0.4924,0.4633,0.4409,0.4161,0.4114,0.4281,0.4826,0.565,0.725,1.0977,1.021,0.0,0.0,1.4862,1.2892,1.983,1.754,0.0,0.0,0.0,0.0,0.0,0.0,0.0,0.0,0.0,0.0,0.0,0.0,0.0,0.0,0.0,0.0,0.0,0.0,0.0,0.0,0.0,0.0,0.0,0.0,0.0,0.0,0.0,3.8355,3.7916,3.8237,3.8391,3.8391,3.8391,3.8149,3.7744,3.8197,3.7906,3.7128,3.7549,3.7485,3.709,3.7215,3.7278,3.7269,3.7334,3.7508,3.77,0.0,0.0,0.0,0.0,0.0,0.0,0.0,0.0,0.265,0.0,0.0,0.0,0.0,0.3728,0.0,0.0,0.0,0.0,0.571,0.6021,0.6165,0.6178,0.6273,0.5982,0.5195,0.5311,0.5561,0.5894,0.6793,0.7528,0.8078,0.8333,0.8248,0.7888,0.8145,0.807,0.7754,0.8072,0.8091,0.7917,0.8031,0.7801,0.0,0.0,0.0,0.0,0.0,0.0,0.0,0.0,0.5192,0.501,0.4622,0.4281,0.3973,0.3758,0.3834,0.4065,0.4481,0.5291,0.694,1.0724,0.0,0.0,1.6796,1.5025,1.3715,1.9849,1.8458,0.0,0.0,0.0,0.0,0.0,0.0,0.0,0.0,0.0,0.0,0.0,0.0,0.0,0.0,0.0,0.0,0.0,0.0,0.0,0.0,0.0,0.0,0.0,0.0,0.0,0.0,0.0,3.7303,3.744,3.7681,3.7754,3.7744,3.797,3.7663,3.7031,3.7533,3.7193,3.6351,3.6821,3.6724,3.6298,3.6366,3.663,3.6998,3.706,3.7377,3.77,0.0,0.0,0.0,0.0,0.0,0.0,0.0,0.0,0.235,0.2477,0.2613,0.0,0.0,0.0,0.0,0.0,0.0,0.0,0.5176,0.5641,0.5944,0.6091,0.5901,0.5784,0.5799,0.4937,0.4599,0.4818,0.5744,0.6558,0.7196,0.7266,0.7393,0.7618,0.7754,0.7957,0.8187,0.8208,0.8272,0.8382,0.8233,0.8033,0.7763,0.0,0.0,0.0,0.0,0.0,0.0,0.0,0.5026,0.4724,0.4394,0.3978,0.357,0.3372,0.3584,0.3996,0.4492,0.49,0.6016,0.9425,0.0,0.0,1.5566,1.4345,1.3208,1.8411,0.0,2.311,2.2231,0.0,0.0,0.0,0.0,0.0,0.0,0.0,0.0,0.0,0.0,0.0,0.0,0.0,0.0,0.0,0.0,0.0,0.0,0.0,0.0,0.0,0.0,0.0,0.0,0.0,3.6156,3.8132,3.6963,3.635,3.6351,3.7015,3.695,3.6303,3.6319,3.6303,3.6287,3.6287,3.6287,3.6287,3.6093,3.6458,3.7102,3.6934,3.7227,3.7716,0.0,0.0,0.0,0.0,0.0,0.0,0.0,0.0,0.2716,0.2907,0.2845,0.0,0.0,0.0,0.0,0.0,0.0,0.0,0.4756,0.4915,0.5139,0.5524,0.5564,0.5433,0.5114,0.4882,0.4903,0.5143,0.5995,0.6606,0.6996,0.7166,0.7216,0.7202,0.8057,0.7975,0.7278,0.8309,0.8234,0.7423,0.7676,0.7434,0.6887,0.0,0.0,0.0,0.0,0.0,0.0,0.0,0.0,0.0,0.4211,0.3792,0.3601,0.4718,0.4286,0.3798,0.5537,0.5762,0.0,0.8043,0.0,0.0,0.0,1.2637,0.0,0.0,1.9809,2.0435,0.0,0.0,0.0,0.0,0.0,0.0,0.0,0.0,0.0,0.0,0.0,0.0,0.0,0.0,0.0,0.0,0.0,0.0,0.0,0.0,0.0,0.0,0.0,0.0,0.0,0.0,0.0,3.4492,3.4639,3.5781,3.7776,3.7987,3.7436,3.6335,3.6821,3.6157,3.4748,3.4748,3.4748,3.4794,3.5313,3.5697,3.6039,3.6593,3.7021,3.7392,0.0,0.0,0.0,0.0,0.0,0.0,0.2944,0.2911,0.2878,0.2977,0.2911,0.2812,0.0,0.0,0.0,0.327,0.363,0.0,0.457,0.4597,0.4799,0.5276,0.5212,0.5019,0.4658,0.4658,0.4905,0.5372,0.5913,0.635,0.6695,0.6867,0.6897,0.6842,0.7608,0.7571,0.7019,0.7849,0.7771,0.7101,0.73,0.7079,0.6574,0.0,0.0,0.0,0.0,0.0,0.0,0.0,0.0,0.0,0.4138,0.4177,0.4382,0.4825,0.4675,0.4719,0.643,0.6624,0.0,0.989,1.0108,0.9894,1.0738,0.0,0.0,0.0,0.0,0.0,0.0,0.0,0.0,0.0,0.0,0.0,0.0,0.0,0.0,0.0,0.0,0.0,0.0,0.0,0.0,0.0,0.0,0.0,0.0,0.0,0.0,0.0,0.0,0.0,0.0,0.0,0.0,0.0,3.3245,3.4463,3.6737,3.7054,3.6589,3.5562,3.6502,3.6011,3.4554,3.4726,3.4626,3.4378,3.5047,3.5537,3.5909,3.6428,3.6839,3.7288,0.0,0.0,0.2815,0.2746,0.0,0.0,0.2849,0.2874,0.2904,0.2849,0.2874,0.2871,0.0,0.0,0.0,0.3429,0.3784,0.414,0.45,0.4502,0.4716,0.5196,0.4863,0.4578,0.4419,0.4358,0.4735,0.555,0.5645,0.5944,0.6452,0.6535,0.6573,0.6529,0.676,0.6972,0.7121,0.711,0.7129,0.7127,0.7091,0.69,0.6616,0.6429,0.0,0.0,0.0,0.0,0.0,0.0,0.0,0.0,0.4104,0.4736,0.54,0.4245,0.4971,0.6321,0.7223,0.7504,0.8598,1.3131,1.1719,0.0,1.2934,1.4573,1.676,2.1331,0.0,0.0,0.0,0.0,0.0,0.0,0.0,0.0,0.0,0.0,0.0,0.0,0.0,0.0,0.0,0.0,0.0,0.0,0.0,0.0,0.0,0.0,0.0,0.0,0.0,0.0,0.0,0.0,0.0,0.0,0.0,3.2512,3.3874,3.4841,3.4896,3.4265,3.5562,3.5764,3.513,3.5626,3.5336,3.4654,3.5157,3.5707,3.6211,3.6353,3.6735,3.7228,0.0,0.0,0.3109,0.3109,0.0,0.0,0.3109,0.3142,0.3142,0.3109,0.3076,0.3072,0.3076,0.3109,0.0,0.3035,0.32,0.349,0.3876,0.3858,0.4026,0.4496,0.4395,0.4391,0.4552,0.4601,0.5033,0.5882,0.5719,0.6006,0.6712,0.6513,0.6474,0.6607,0.7107,0.703,0.6551,0.7598,0.7472,0.6577,0.6774,0.6559,0.6064,0.6074,0.5803,0.0,0.0,0.0,0.0,0.0,0.0,0.0,0.4001,0.4097,0.4395,0.5325,0.5915,0.6636,0.835,0.8307,0.0,0.9507,0.9636,1.0665,1.5342,1.6141,1.6884,0.0,0.0,0.0,0.0,0.0,0.0,0.0,0.0,0.0,0.0,0.0,0.0,0.0,0.0,0.0,0.0,0.0,0.0,0.0,0.0,0.0,0.0,0.0,0.0,0.0,0.0,0.0,0.0,0.0,0.0,0.0,3.0434,3.051,3.1064,3.3408,3.4156,3.365,3.4392,3.4663,3.4568,3.5463,3.5086,3.4132,3.5321,3.5205,3.4603,3.5967,3.66,3.6878,0.0,0.0,0.0,0.0,0.0,0.0,0.0,0.0,0.327,0.3072,0.3142,0.3175,0.3072,0.3035,0.0,0.0,0.3003,0.3196,0.3635,0.3546,0.3709,0.4172,0.424,0.4382,0.4693,0.4512,0.4894,0.5907,0.5667,0.5903,0.6612,0.6504,0.6466,0.6499,0.6646,0.665,0.663,0.7101,0.6896,0.6264,0.6333,0.6037,0.5572,0.5603,0.5392,0.5078,0.5253,0.0,0.0,0.0,0.0,0.0,0.0,0.0,0.5058,0.5086,0.5597,0.6435,0.7672,0.8326,0.0,1.0613,0.0,1.2958,1.5265,1.5739,1.6481,0.0,0.0,0.0,0.0,0.0,0.0,0.0,0.0,0.0,0.0,0.0,0.0,0.0,0.0,0.0,0.0,0.0,0.0,0.0,0.0,0.0,0.0,0.0,0.0,0.0,0.0,0.0,2.9602,2.9602,2.9665,2.9699,2.9699,2.9789,2.9955,3.2243,3.3378,3.3566,3.4131,3.4556,3.4841,3.5439,3.5388,3.5096,3.5882,3.5767,3.5278,3.6153,3.6538,3.6631,0.0,0.0,0.0,0.0,0.0,0.0,0.0,0.0,0.0,0.3068,0.3175,0.3208,0.3035,0.2933,0.297,0.0,0.0,0.0,0.3565,0.3535,0.3664,0.3988,0.415,0.4374,0.4693,0.4358,0.4746,0.5866,0.5711,0.5979,0.6658,0.6642,0.665,0.657,0.6126,0.6204,0.6617,0.6206,0.6,0.593,0.5803,0.5501,0.5156,0.5136,0.4991,0.4832,0.5,0.4843,0.4524,0.4374,0.0,0.0,0.0,0.0,0.5752,0.4402,0.4973,0.6115,0.6527,0.8117,1.0326,1.3095,1.431,0.0,1.4478,1.4851,0.0,0.0,0.0,0.0,0.0,0.0,0.0,0.0,0.0,0.0,0.0,0.0,0.0,0.0,0.0,0.0,0.0,0.0,0.0,0.0,0.0,0.0,0.0,0.0,0.0,0.0,0.0,0.0,2.9401,2.954,2.9602,2.9602,2.954,2.9477,2.9491,3.1014,3.2167,3.3051,3.3695,3.4318,3.4966,3.5122,3.5475,3.5776,3.606,3.6009,3.5791,3.618,3.6289,3.6365,0.0,0.0,0.0,0.0,0.0,0.0,0.0,0.0,0.0,0.0,0.3372,0.3274,0.3499,0.3134,0.297,0.3175,0.3183,0.3285,0.3585,0.0,0.0,0.3668,0.3841,0.4055,0.4268,0.4458,0.5057,0.6142,0.6127,0.6654,0.7714,0.7408,0.7311,0.7341,0.6695,0.6125,0.5677,0.5429,0.5333,0.5323,0.5185,0.5048,0.4932,0.4882,0.4823,0.4812,0.4832,0.4624,0.4354,0.4446,0.4281,0.0,0.0,0.0,0.4503,0.4117,0.5031,0.6195,0.6323,0.0,1.0919,0.0,1.2968,1.2643,0.0,0.0,0.0,0.0,0.0,0.0,0.0,0.0,0.0,0.0,0.0,0.0,0.0,0.0,0.0,0.0,0.0,0.0,0.0,0.0,0.0,0.0,0.0,0.0,0.0,0.0,0.0,0.0,0.0,0.0,2.8634,2.9261,2.9602,2.9602,2.9289,2.9035,2.8729,2.9077,2.9638,3.0373,3.1445,3.2355,3.3117,3.3817,3.375,3.3354,3.4236,3.3912,3.3092,3.4851,3.5544,3.5688,0.0,0.0,0.0,0.0,0.0,0.0,0.0,0.0,0.0,0.0,0.0,0.3536,0.3405,0.3303,0.3266,0.3368,0.3348,0.3423,0.3632,0.387,0.3944,0.3765,0.4001,0.4166,0.426,0.4439,0.5021,0.5975,0.5967,0.6917,0.8672,0.8399,0.8017,0.7516,0.7581,0.6863,0.5643,0.6002,0.5668,0.4923,0.4805,0.4844,0.4942,0.4764,0.4744,0.4805,0.4803,0.4564,0.426,0.4403,0.4321,0.4179,0.4268,0.0,0.0,0.0,0.4305,0.5174,0.7389,0.8408,0.9864,0.0,1.3467,1.2352,1.5532,0.0,0.0,0.0,0.0,0.0,0.0,0.0,0.0,0.0,0.0,0.0,0.0,0.0,0.0,0.0,0.0,0.0,0.0,0.0,0.0,0.0,0.0,0.0,0.0,2.7232,2.7098,2.7178,2.7432,0.0,2.7617,2.7894,2.8247,2.8532,2.8509,2.8522,2.8444,2.83,2.8546,2.9149,2.9953,3.0955,3.2046,3.2227,3.2751,3.3456,3.3725,3.3619,3.3518,3.4478,3.5059,3.5464,0.0,0.0,0.0,0.0,0.0,0.0,0.0,0.0,0.0,0.0,0.0,0.3667,0.3438,0.0,0.0,0.0,0.3575,0.3618,0.3792,0.398,0.4055,0.4007,0.4268,0.4412,0.4453,0.4632,0.5151,0.6035,0.5982,0.7061,0.9149,0.9056,0.8635,0.797,0.8253,0.7659,0.6399,0.665,0.6141,0.5204,0.5066,0.4983,0.4913,0.4774,0.4814,0.4903,0.4872,0.463,0.4338,0.4436,0.4395,0.4293,0.4317,0.4411,0.0,0.0,0.0,0.4131,0.7537,0.0,0.8571,1.3708,1.2878,1.1569,0.0,0.0,0.0,0.0,0.0,0.0,0.0,0.0,0.0,0.0,0.0,0.0,0.0,0.0,0.0,0.0,0.0,0.0,0.0,0.0,0.0,0.0,0.0,0.0,2.6316,2.6206,2.6126,2.6138,2.6202,2.6257,2.6342,2.6591,2.6938,2.7524,2.763,2.7908,2.8235,2.7908,2.7987,2.8457,2.8867,2.982,3.1002,3.0793,3.1611,3.2963,3.2901,3.3125,3.3568,3.3916,3.4514,3.5124,0.0,0.0,0.0,0.0,0.0,0.0,0.0,0.0,0.0,0.0,0.0,0.3508,0.3999,0.3728,0.3648,0.4044,0.394,0.3924,0.4075,0.4199,0.4293,0.4273,0.4527,0.0,0.4862,0.5184,0.5788,0.6638,0.6512,0.7256,0.8744,0.8965,0.9137,0.9181,0.8461,0.8167,0.8198,0.6871,0.6425,0.6555,0.6253,0.5539,0.4745,0.4991,0.5117,0.5166,0.5028,0.4859,0.4668,0.4679,0.4522,0.4313,0.4362,0.4443,0.4406,0.0,0.0,0.0,0.5613,0.6538,0.0,1.0258,0.9825,0.0,0.0,0.0,0.0,0.0,0.0,0.0,0.0,0.0,0.0,0.0,0.0,0.0,0.0,0.0,0.0,0.0,0.0,0.0,0.0,0.0,0.0,0.0,0.0,0.0,2.4871,2.4267,2.3932,2.4153,2.4371,2.46,2.4927,2.5698,2.6413,2.7139,2.6815,2.7204,2.8079,2.7669,2.7656,2.7842,2.8222,2.8833,2.9602,2.9602,2.9997,3.0637,3.1196,3.1441,3.1607,3.2807,3.3699,3.4447,0.0,0.0,0.0,0.0,0.0,0.0,0.0,0.0,0.0,0.0,0.0,0.0,0.0,0.4258,0.4239,0.4462,0.4519,0.4518,0.448,0.4686,0.4863,0.4997,0.5263,0.5414,0.542,0.5926,0.6376,0.6765,0.7013,0.7664,0.863,0.8746,0.884,0.9038,1.0054,0.929,0.7391,0.8466,0.7441,0.5241,0.6921,0.6605,0.5194,0.6202,0.6942,0.7267,0.0,0.0,0.6745,0.5343,0.4806,0.4675,0.4556,0.4489,0.4273,0.3452,0.3226,0.3618,0.5444,0.5561,0.0,0.9674,0.8742,0.7688,0.0,0.0,0.0,0.0,0.0,0.0,0.0,0.0,0.0,0.0,0.0,0.0,0.0,0.0,0.0,0.0,0.0,0.0,0.0,0.0,0.0,0.0,0.0,0.0,2.3335,2.2239,2.206,2.3185,2.3393,2.3541,2.3652,2.4281,2.5004,2.5742,2.5951,2.6539,2.7416,2.7403,2.7403,2.7523,2.7842,2.8238,2.8584,2.8689,2.9119,2.9632,2.9984,3.0364,3.0798,3.165,3.2444,3.3157,0.0,0.0,0.0,0.5038,0.0,0.4618,0.4586,0.4511,0.4509,0.4642,0.0,0.0,0.0,0.0,0.4809,0.5023,0.5151,0.5192,0.5162,0.5397,0.5595,0.5736,0.5973,0.6107,0.6149,0.6519,0.6895,0.722,0.7406,0.7782,0.8323,0.846,0.8549,0.8688,1.0248,0.9826,0.8127,0.9589,0.8738,0.645,0.7916,0.7783,0.6766,0.7586,0.8277,0.0,0.0,0.0,0.0,0.6934,0.6137,0.5428,0.5269,0.4748,0.4095,0.34,0.3226,0.3491,0.4725,0.4565,0.0,0.0,0.0,0.6452,0.0,0.0,0.0,0.0,0.0,0.0,0.0,0.0,0.0,0.0,0.0,0.0,0.0,0.0,0.0,0.0,0.0,0.0,0.0,0.0,0.0,0.0,0.0,0.0,2.2217,2.124,2.1141,2.221,2.2413,2.2524,2.254,2.2966,2.361,2.4409,2.4755,2.5545,2.6564,2.6769,2.6918,2.7214,2.7523,2.7908,2.8292,2.8316,2.8663,2.9215,2.9349,2.9659,3.0174,3.0702,3.1488,3.2424,0.5154,0.5175,0.5197,0.5125,0.4575,0.4244,0.4578,0.4522,0.4574,0.4978,0.0,0.0,0.0,0.0,0.0,0.5689,0.5768,0.5889,0.6119,0.6314,0.6431,0.644,0.6625,0.6836,0.7036,0.7036,0.7405,0.8109,0.7715,0.7627,0.7812,0.8117,0.8272,0.8282,0.884,0.966,1.0554,1.0122,1.0089,1.0242,0.9303,0.9056,0.9283,0.9117,0.0,0.0,1.076,0.9718,0.0,0.9359,0.8456,0.6633,0.642,0.5233,0.3884,0.3816,0.3478,0.3165,0.0,0.0,0.0,0.0,0.0,0.0,0.0,0.0,0.0,0.0,0.0,0.0,0.0,0.0,0.0,0.0,0.0,0.0,0.0,0.0,0.0,0.0,0.0,0.0,0.0,0.0,0.0,0.0,0.0,2.1307,2.1352,2.1363,2.1319,2.1096,2.133,2.1506,2.1554,2.1934,2.2435,2.322,2.322,2.4085,2.5755,2.5755,2.6195,2.6943,2.7201,2.7808,2.8647,2.8424,2.865,2.9188,2.9188,2.9322,2.9523,2.9915,3.0952,3.219,0.5649,0.5538,0.5482,0.5297,0.5076,0.5125,0.5545,0.5581,0.5665,0.0,0.0,0.0,0.6276,0.5883,0.5766,0.6181,0.595,0.6136,0.6912,0.6871,0.6941,0.7195,0.7424,0.7582,0.7651,0.7934,0.8136,0.8251,0.8195,0.8013,0.7724,0.7768,0.7535,0.7098,0.8081,0.8548,0.8698,0.9929,0.8949,0.6843,1.0384,0.9896,0.0,0.0,0.0,0.0,0.0,1.1741,1.0984,0.0,0.9206,0.7646,0.5815,0.4792,0.417,0.3778,0.37,0.3684,0.3346,0.0,0.0,0.0,0.0,0.0,0.0,0.7492,0.0,0.0,0.0,0.0,0.0,0.0,0.0,0.0,0.0,0.0,0.0,0.0,0.0,0.0,0.0,0.0,0.0,0.0,0.0,0.0,0.0,1.9655,2.0803,2.0919,2.1002,2.1038,2.1096,2.1232,2.1471,2.1534,2.2051,2.3054,2.3054,2.3621,2.4612,2.5334,2.5767,2.6,2.6782,2.7537,2.8278,2.8026,2.8014,2.8226,2.8385,2.8451,2.8518,2.9107,2.9551,3.0065,0.641,0.6357,0.6321,0.6211,0.5811,0.5701,0.622,0.6133,0.6162,0.0,0.0,0.0,0.6655,0.6445,0.6342,0.6462,0.648,0.681,0.7618,0.765,0.7727,0.7951,0.8229,0.8349,0.8372,0.8533,0.8617,0.8628,0.8533,0.8269,0.782,0.7724,0.7353,0.6751,0.7391,0.7433,0.7115,0.8775,0.8598,0.0,1.0575,0.0,0.0,1.2657,1.2938,0.0,0.0,0.0,1.3041,1.2985,1.1297,0.0,0.0,0.0,0.4464,0.4572,0.4346,0.4039,0.378,0.4013,0.4406,0.0,0.0,0.0,0.5625,0.7725,0.0,0.0,0.0,0.0,0.0,0.0,0.0,0.0,0.0,0.0,0.0,0.0,0.0,0.0,0.0,0.0,0.0,0.0,0.0,0.0,1.9467,1.9233,2.0161,2.0325,2.0493,2.0711,2.0802,2.0956,2.1197,2.1314,2.1681,2.2327,2.2456,2.2905,2.3621,2.4276,2.485,2.5499,2.6139,2.6822,2.7528,2.7465,2.7747,2.8132,2.8027,2.8013,2.8119,2.8385,2.8732,2.9134,0.0,0.7295,0.7317,0.7359,0.6572,0.612,0.6676,0.6451,0.6493,0.0,0.7355,0.717,0.668,0.6844,0.6907,0.6752,0.7159,0.7669,0.8241,0.8467,0.8568,0.8617,0.8894,0.9031,0.9031,0.8926,0.8949,0.9092,0.8767,0.841,0.7993,0.784,0.75,0.6975,0.6842,0.65,0.6014,0.7083,0.0,1.009,1.0247,1.1481,0.0,0.0,1.4302,1.4297,1.6779,1.6052,1.4197,1.5797,1.3602,0.0,0.0,0.0,0.0,0.0,0.5106,0.4289,0.4382,0.4698,0.5008,0.0,0.0,0.0,0.5914,0.8367,1.0734,0.0,0.0,0.0,0.0,0.0,0.0,0.0,0.0,0.0,0.0,0.0,0.0,0.0,0.0,0.0,0.0,0.0,0.0,1.9868,1.9671,1.9605,1.9539,1.9736,1.9929,2.0154,2.0311,2.0535,2.0804,2.1123,2.1303,2.1335,2.1603,2.2124,2.2852,2.2927,2.3717,2.5087,2.5429,2.5988,2.6645,2.6875,2.7579,2.8473,2.7933,2.7855,2.8013,2.7855,2.8186,2.8852,0.7629,0.7494,0.7379,0.7127,0.6904,0.6854,0.7134,0.7383,0.7587,0.7692,0.7659,0.7392,0.6815,0.686,0.7106,0.7531,0.7657,0.8019,0.8728,0.8849,0.886,0.8761,0.9003,0.9151,0.9151,0.9247,0.922,0.9092,0.8866,0.8484,0.7917,0.7772,0.7608,0.7372,0.6962,0.6608,0.631,0.6548,0.0,0.83,1.0789,0.0,1.1762,1.5002,1.4988,1.3637,1.6792,1.6704,1.4994,0.0,1.2571,1.0264,0.0,0.0,0.0,0.0,0.0,0.0,0.0,0.0,0.0,0.0,0.0,0.0,0.5623,0.6319,0.7368,0.0,0.0,0.0,0.0,0.0,0.0,0.0,0.0,0.0,0.0,0.0,0.0,0.0,0.0,0.0,0.0,0.0,1.9417,1.9671,1.9605,1.955,1.9351,1.9274,1.9316,1.9333,1.921,1.9359,1.9754,2.0104,2.0521,2.0997,2.1143,2.1445,2.1807,2.2306,2.3021,2.3891,2.4779,2.5652,2.6496,2.6658,2.7062,2.7559,2.7442,2.7469,2.7603,2.759,2.7668,2.776,0.845,0.842,0.8356,0.8063,0.797,0.7912,0.7766,0.7888,0.8016,0.8098,0.8248,0.8131,0.7571,0.7697,0.7861,0.7936,0.8238,0.859,0.9023,0.9277,0.9331,0.9209,0.9475,0.9619,0.954,0.9633,0.9593,0.9405,0.9301,0.8981,0.8434,0.8305,0.8021,0.7585,0.7396,0.693,0.632,0.639,0.6794,0.7624,1.0644,0.0,1.2452,1.575,1.625,1.5429,1.7445,1.7239,1.578,1.4087,1.2584,0.0,0.0,0.8231,0.661,0.0,0.5312,0.489,0.0,0.0,0.0,0.5406,0.0,0.0,0.0,0.66,0.747,0.0,0.0,0.0,0.0,0.0,0.0,0.0,0.0,0.0,0.0,0.0,0.0,0.0,0.0,0.0,0.0,0.0,1.9142,1.9075,1.9142,1.9008,1.8684,1.8731,1.8787,1.8674,1.8875,1.8987,1.9155,1.9565,2.0029,2.0502,2.0726,2.0998,2.1359,2.1645,2.222,2.301,2.3891,2.4767,2.5569,2.6094,2.6452,2.6782,2.7134,2.7403,2.7523,2.7523,2.7523,2.7523,0.9133,0.9238,0.9215,0.8865,0.8817,0.8692,0.8232,0.8205,0.8294,0.8421,0.8756,0.8908,0.8733,0.8765,0.876,0.8729,0.929,0.954,0.9244,0.9939,1.0137,0.9656,0.988,0.9944,0.9854,0.9905,0.9828,0.9658,0.9658,0.9396,0.8958,0.8934,0.8546,0.7902,0.7968,0.7569,0.6904,0.7089,0.0,0.8398,0.0,1.248,1.3203,1.6258,1.7233,1.7037,1.7836,1.7561,1.6468,1.4255,0.0,1.197,1.1439,0.9216,0.0,0.0,0.0,0.0,0.0,0.0,0.0,0.0,0.0,0.6145,0.0,0.0,0.0,0.0,0.0,0.0,0.0,0.0,0.0,0.0,0.0,0.0,0.0,0.0,0.0,0.0,0.0,0.0,0.0,0.0,1.843,1.8385,1.8549,1.8405,1.7998,1.8192,1.825,1.8134,1.8539,1.8664,1.8596,1.9039,1.9484,1.9929,2.0323,2.0702,2.1051,2.1051,2.1482,2.2285,2.2861,2.3672,2.4636,2.5312,2.5816,2.6233,2.685,2.7253,2.7398,2.7361,2.732,2.7465,0.9009,0.8997,0.8782,0.8221,0.8397,0.8487,0.8083,0.8414,0.8691,0.8594,0.8772,0.9333,1.0464,0.9515,0.9379,1.0826,1.1616,1.127,0.9491,1.1257,1.1568,0.9772,0.9658,0.9684,0.971,0.9658,0.9579,0.9434,0.9434,0.9235,0.8816,0.916,0.9076,0.8596,0.8649,0.8945,0.9397,0.0,1.0378,0.0,1.3984,1.3399,0.0,1.5962,1.6582,1.5389,1.6939,1.7312,1.6698,0.0,1.2877,1.1874,0.0,0.8011,0.6725,0.0,0.0,0.0,0.0,0.0,0.0,0.0,0.5773,0.0,0.0,0.0,0.0,0.0,0.0,0.0,0.0,0.0,0.0,0.0,0.0,0.0,0.0,0.0,0.0,0.0,0.0,0.0,0.0,0.0,0.0,1.7958,1.8076,1.8008,1.7774,1.7657,1.7608,1.7608,1.7451,1.7579,1.7842,1.8241,1.8765,1.936,1.97,2.0158,2.0644,2.0644,2.1021,2.1614,2.1811,2.2776,2.4192,2.448,2.5087,2.5968,2.6233,2.6728,2.7163,2.6672,2.6798,2.722,0.8861,0.8734,0.8515,0.8284,0.8525,0.8743,0.8607,0.891,0.9105,0.8969,0.9155,0.985,1.1335,0.0,0.0,0.0,0.0,1.3803,0.0,0.0,1.2647,1.1709,1.0815,1.0314,1.0273,1.0314,1.0285,1.0156,1.0197,1.0108,0.9907,1.0045,0.9856,0.9448,0.937,0.0,1.0355,0.0,1.1006,0.0,0.0,0.0,0.0,1.653,1.7471,1.6674,1.6266,1.6443,1.6374,0.0,1.2451,0.0,0.0,0.0,0.0,0.0,0.0,0.0,0.0,0.0,0.0,0.0,0.0,0.0,0.0,0.0,0.5943,0.0,0.0,0.0,0.0,0.0,0.0,0.0,0.0,0.0,0.0,0.0,0.0,0.0,0.0,0.0,0.0,0.0,0.0,0.0,0.0,1.588,1.5668,1.6721,1.7245,1.7185,1.7323,1.7382,1.7432,1.7774,1.8241,1.8792,1.918,1.9609,2.0042,2.0139,2.0323,2.0624,2.1669,2.2489,2.3169,2.4227,2.4909,2.5277,2.5348,2.581,2.6499,2.6644,2.6631,2.6652,0.8765,0.8625,0.8461,0.8503,0.8793,0.9057,0.9169,0.9715,1.0108,1.0006,1.0149,0.0,1.2659,1.2381,0.0,0.0,1.5423,1.5522,0.0,0.0,1.3914,1.376,1.1869,1.1014,1.147,1.1037,1.0751,1.0645,1.072,1.072,1.0677,1.0764,1.0536,1.0064,1.0049,1.0365,1.0937,0.0,1.2208,1.3681,1.4346,1.4651,1.4874,1.6695,1.7688,1.789,1.6383,1.6379,1.6607,1.3041,1.2714,0.0,1.0747,0.0,0.0,0.0,0.0,0.0,0.7449,0.0,0.0,0.0,0.0,0.0,0.0,0.0,0.0,0.0,0.0,0.0,0.0,0.0,0.0,0.0,0.0,0.0,0.0,0.0,0.0,0.0,0.0,0.0,0.0,0.0,0.0,0.0,1.4082,0.0,1.4078,1.6029,1.7038,1.6908,1.7185,1.7323,1.7166,1.751,1.7868,1.8318,1.8812,1.9151,1.9563,1.9752,1.9863,1.9863,2.1385,2.2134,2.2424,2.3801,2.449,2.4718,2.4718,2.4981,2.5513,2.6321,2.6453,2.6436,0.8805,0.8696,0.8628,0.8757,0.9074,0.9387,0.9638,1.0996,1.2013,1.2025,0.0,0.0,0.0,0.0,0.0,0.0,0.0,1.571,1.5586,0.0,1.5549,0.0,0.0,1.1486,0.0,1.1489,1.051,1.051,1.0562,1.0625,1.0593,1.1067,1.0899,1.021,1.0721,1.1034,1.1329,1.3376,1.4882,1.5949,1.783,1.8522,1.8091,0.0,1.6355,1.821,1.7546,0.0,0.0,1.5434,1.4049,0.0,0.0,0.0,0.0,0.0,0.0,0.0,0.0,0.0,0.0,0.7744,0.0,0.0,0.0,0.0,0.5617,0.0,0.0,0.0,0.0,0.0,0.4973,0.4571,0.0,0.0,0.0,0.0,0.0,0.0,0.0,0.0,0.0,0.0,0.0,0.0,1.2739,0.0,1.3805,1.5752,1.6908,1.6908,1.6908,1.7038,1.7166,1.7392,1.7738,1.8157,1.873,1.9077,1.9345,1.9752,1.9784,1.9636,2.0557,2.1375,2.2103,2.2947,2.379,2.449,2.449,2.4418,2.4403,2.5427,2.6146,2.6566,0.9364,0.9228,0.9192,0.9126,0.9126,0.9218,0.9506,1.0247,0.0,0.0,0.0,0.0,0.0,1.6745,1.6692,0.0,0.0,1.9656,1.7952,1.8219,0.0,0.0,0.0,1.4252,0.0,1.3191,1.2213,1.1162,1.1162,1.1116,1.0987,1.1256,1.1148,1.0784,1.0729,1.1281,0.0,0.0,0.0,0.0,0.0,1.7144,1.7053,0.0,0.0,1.8124,1.8044,1.815,0.0,1.5945,1.5476,1.537,1.3305,1.1929,1.1241,1.2395,1.1102,0.0,0.0,0.0,1.1256,1.0304,0.0,0.0,0.0,0.0,0.0,0.0,0.0,0.0,0.0,0.0,0.472,0.4423,0.4396,0.4377,0.0,0.0,0.0,0.0,0.0,0.0,0.0,0.0,0.0,0.8943,0.9545,0.0,0.0,1.3231,1.5032,1.5032,1.6477,1.7254,1.7166,1.751,1.7852,1.8399,1.9211,1.9845,2.0369,2.0888,2.1155,2.1078,2.1928,2.2456,2.2756,2.3582,2.4043,2.4273,2.4273,2.4273,2.433,2.5133,2.5659,2.6134,0.9867,0.9735,0.9797,0.9678,0.95,0.9667,1.0618,0.0,0.0,0.0,1.4567,0.0,1.864,0.0,1.8911,0.0,2.0577,2.0911,2.0366,1.8918,0.0,1.9851,1.7208,0.0,0.0,1.4733,1.377,1.3292,1.2102,1.1697,1.2045,1.1561,1.1201,1.0943,1.0846,1.11,1.1823,0.0,1.5213,0.0,0.0,1.6665,0.0,0.0,1.7734,0.0,0.0,1.8202,1.8034,1.6792,1.6552,1.6482,1.4476,1.3461,1.3045,1.3386,1.224,1.1119,1.2337,1.3022,0.0,0.0,1.1961,0.0,1.0075,0.0,0.0,0.0,0.0,0.0,0.0,0.0,0.5151,0.4541,0.4382,0.4362,0.0,0.4495,0.0,0.0,0.0,0.0,0.0,0.0,0.6312,0.6989,0.7499,0.787,0.0,0.0,1.421,1.422,1.6388,1.7494,1.7263,1.7765,1.8172,1.8519,1.9626,2.041,2.0917,2.149,2.1832,2.1832,2.2692,2.3001,2.3075,2.3897,2.42,2.42,2.42,2.42,2.4258,2.5071,2.5734,2.654,1.0249,1.016,1.0374,1.0299,1.0212,0.0,0.0,0.0,1.4193,0.0,1.7007,1.6925,1.9304,1.8505,1.8672,2.0834,1.9461,0.0,2.2338,1.7924,0.0,0.0,1.7347,1.6445,1.972,0.0,0.0,1.6623,1.3248,1.2291,1.3542,1.1969,1.1029,1.0715,1.0954,0.0,1.0086,1.3843,1.5031,1.4555,1.5795,1.7103,1.8131,1.6277,0.0,1.8269,1.8076,1.8008,1.8008,1.8008,1.7382,1.6533,1.5956,1.5313,1.4609,1.3848,1.3637,1.3775,1.4689,1.4824,1.4633,1.4098,0.0,0.0,0.0,0.0,1.0513,0.0,0.0,0.0,0.0,0.0,0.0,0.501,0.4688,0.4552,0.4411,0.0,0.0,0.0,0.0,0.0,0.0,0.6122,0.6527,0.5174,0.6692,0.7739,0.0,0.0,0.0,1.44,1.6397,1.7471,1.7491,1.8121,1.8485,1.8643,2.0024,2.0815,2.1058,2.1607,2.1886,2.1993,2.2767,2.3075,2.315,2.3897,2.42,2.42,2.42,2.42,2.4258,2.5094,2.6232,2.773,1.0363,1.017,1.0262,0.0,1.1217,1.2195,0.0,0.0,0.0,0.0,1.8033,1.9282,2.0429,2.1483,2.1497,2.0021,2.0737,0.0,0.0,0.0,0.0,2.3127,2.1895,2.11,2.0947,1.9294,0.0,1.7278,1.4606,1.3303,1.3365,1.1871,1.0975,1.0659,1.084,1.072,1.0575,1.4395,1.6069,1.6125,1.4953,1.5183,0.0,0.0,1.6556,1.8269,1.8076,1.8008,1.8008,1.8008,1.7872,1.752,1.6793,1.6437,1.6158,1.5392,1.5108,1.5188,1.5463,1.5877,1.6139,1.5402,1.4707,1.3847,0.0,0.0,0.0,0.0,0.0,0.0,0.0,0.0,0.0,0.662,0.5427,0.4495,0.0,0.0,0.0,0.4232,0.0,0.0,0.0,0.4902,0.5189,0.4822,0.5278,0.0,0.0,0.0,0.0,0.0,1.4355,1.5509,1.8383,1.7542,1.8068,2.0074,2.0841,2.1744,2.2594,2.3035,2.3318,2.3593,2.3824,2.3897,2.3897,2.4116,2.42,2.42,2.42,2.42,2.4376,2.5552,2.6315,2.7138,1.0547,1.0324,0.0,1.0374,0.0,0.0,1.4205,0.0,0.0,1.8769,1.981,0.0,2.1925,2.3271,2.3512,2.1927,2.1489,0.0,2.1372,0.0,0.0,2.3658,2.3075,2.2289,2.1316,2.0803,0.0,1.8881,1.5887,1.4572,1.476,1.2311,1.0975,1.0621,1.0774,1.0703,1.0664,1.4529,1.6632,1.7269,1.6322,0.0,0.0,1.6355,1.698,1.8347,1.8279,1.8144,1.8008,1.8008,1.8008,1.7872,1.7148,1.6932,1.6724,1.5956,1.5675,1.5816,1.6097,1.6585,1.6862,1.6733,1.6326,1.5729,1.4692,1.3852,1.3121,0.0,0.0,0.0,0.0,0.0,0.0,0.6348,0.5173,0.0,0.0,0.0,0.0,0.0,0.0,0.0,0.0,0.0,0.0,0.0,0.0,0.0,0.0,0.0,0.0,0.0,1.3527,1.4807,1.6149,1.5859,1.6869,1.9182,2.0126,2.1472,2.3092,2.3421,2.3789,2.42,2.42,2.42,2.42,2.42,2.42,2.42,2.42,2.4545,2.5189,2.6288,2.6992,2.7783,1.0742,0.0,0.0,0.0,0.0,0.0,0.0,1.7029,0.0,2.167,0.0,2.1805,2.3151,2.4124,2.4646,2.444,0.0,2.1459,2.4088,2.0105,1.9565,2.3838,2.2841,2.2075,2.172,2.1786,0.0,0.0,1.7359,1.5924,1.6683,1.2987,1.1078,1.0687,1.0812,1.1019,0.0,1.4428,1.6616,0.0,1.8566,1.9172,1.9662,1.798,1.7903,1.8674,1.8674,1.8405,1.8076,1.8076,1.8008,1.793,1.7295,1.7079,1.6941,1.6237,1.6018,1.6158,1.6862,1.7079,1.7217,1.7862,1.8008,1.7736,1.6779,1.6534,1.63,1.5476,1.493,0.0,0.0,0.0,0.0,0.0,0.0,0.0,0.0,0.0,0.0,0.0,0.0,0.0,0.0,0.0,0.0,0.0,0.0,0.0,0.0,0.0,0.0,0.0,1.3062,0.0,1.3335,0.0,1.5663,1.7856,1.8917,2.0653,2.2945,2.3202,2.3649,2.42,2.42,2.42,2.42,2.42,2.42,2.42,2.42,2.4999,2.6299,2.7127,2.8024,2.9073,0.0,0.0,0.0,0.0,0.0,1.4803,1.8159,2.0043,2.0927,2.0567,2.1895,0.0,2.2235,2.3677,2.426,2.3059,2.2482,0.0,0.0,0.0,0.0,2.5092,2.5094,2.497,2.4901,2.4281,2.3887,0.0,1.9559,1.7253,1.6558,1.357,1.1774,1.1105,1.1292,0.0,1.6109,1.4347,0.0,1.9121,1.8863,1.8573,1.8391,1.9546,1.979,1.9584,1.9441,1.8988,1.8414,1.8269,1.8279,1.8202,1.8124,1.8056,1.8056,1.7988,1.792,1.7852,1.7988,1.792,1.7862,1.794,1.7862,1.7581,1.7066,1.6763,1.6466,1.591,1.5478,1.5235,1.5229,0.0,0.0,0.0,0.0,0.0,0.0,0.0,0.0,0.0,0.0,0.0,0.0,0.0,0.0,0.0,0.0,0.0,0.0,0.0,0.0,0.0,0.0,0.0,0.0,0.0,0.0,2.0646,1.9586,2.0419,2.2933,2.2958,2.3444,2.42,2.42,2.42,2.42,2.42,2.42,2.42,2.42,2.4999,2.636,2.7761,2.9052,3.023,0.0,0.0,0.0,0.0,0.0,0.0,0.0,2.0508,0.0,2.1712,2.2876,2.3582,2.3307,2.4204,2.4559,2.3877,2.2978,2.2828,2.3768,2.3169,2.3626,2.5425,2.5633,0.0,2.4333,2.4751,2.4433,2.3272,2.0126,1.8223,1.7388,1.3971,1.2102,1.1612,1.2648,1.4087,0.0,0.0,0.0,1.9515,2.0514,2.036,1.9625,2.0288,1.9963,1.9165,1.9091,1.867,1.81,1.8061,1.7925,1.7775,1.8005,1.8075,1.8125,1.8412,1.8414,1.8269,1.8269,1.8144,1.8008,1.8008,1.793,1.7706,1.7243,1.6971,1.6661,1.6036,1.573,1.5328,1.4697,1.3185,0.0,0.0,0.0,0.0,0.0,0.0,0.0,0.0,0.0,0.0,0.0,0.0,0.0,0.0,0.0,0.0,0.0,0.0,0.0,0.0,0.0,0.0,0.0,0.0,0.0,1.9691,1.9172,2.0139,2.2417,2.2682,2.3156,2.3821,2.4085,2.42,2.42,2.4611,2.4754,2.4826,2.517,2.6365,2.791,2.8666,2.9987,3.1379,0.0,1.3179,0.0,0.0,1.5229,0.0,0.0,2.0699,2.279,2.3182,2.3743,2.4285,2.457,2.4821,2.4856,2.4462,2.3472,2.3212,2.3838,2.3543,2.381,2.4805,2.5315,2.4952,2.3506,2.4749,2.46,0.0,2.0783,1.9232,1.8134,1.475,1.2922,0.0,0.0,0.0,0.0,0.0,2.0386,2.0343,2.205,2.214,2.1263,2.0905,2.003,1.9015,1.8895,1.8358,1.7749,1.7747,1.7569,1.7355,1.7708,1.789,1.8031,1.8298,1.8402,1.8337,1.8337,1.8144,1.7988,1.7958,1.7939,1.778,1.7166,1.6957,1.6656,1.6181,1.6077,1.5685,1.4368,1.3938,0.0,0.0,0.0,0.0,0.0,0.0,0.0,0.0,0.0,0.0,0.0,0.0,0.0,0.0,0.0,0.0,0.0,0.0,0.0,0.0,0.0,0.0,1.3656,0.0,1.589,0.0,1.8817,2.0021,2.2286,2.2557,2.3087,2.3827,2.4232,2.455,2.4683,2.53,2.5511,2.5581,2.6195,2.7582,2.9306,2.9306,3.0557,3.2146,0.0,0.0,0.0,0.0,0.0,0.0,0.0,2.2342,2.225,2.3391,2.397,2.445,2.4881,2.5005,2.434,2.2698,2.4014,2.3564,2.0392,2.3351,2.4462,2.2682,2.4286,2.5148,2.4984,2.5148,2.5148,0.0,0.0,2.054,1.7886,1.6306,0.0,0.0,0.0,0.0,0.0,1.9468,2.0615,2.2485,2.2523,2.2333,2.2008,2.1827,2.1156,2.0274,1.9831,1.889,1.7835,1.7497,1.7409,1.7481,1.7657,1.7881,1.807,1.8121,1.8294,1.8482,1.8337,1.8144,1.791,1.7708,1.7675,1.7447,1.6707,1.6568,1.6547,1.6686,1.7022,1.7047,1.6374,1.5268,1.3673,0.0,0.0,0.0,0.0,0.0,0.0,0.0,0.0,0.0,0.0,0.0,0.0,0.0,0.0,0.0,0.0,0.0,0.0,0.0,0.0,1.066,1.357,1.4058,0.0,2.0859,1.9481,2.0496,2.3586,2.2977,2.3617,2.5098,2.5146,2.5581,2.6208,2.6277,2.6277,2.6277,2.6389,2.7557,2.9306,2.9306,3.0557,3.2019,0.0,0.0,0.0,0.0,0.0,0.0,0.0,2.3295,2.4038,2.4948,2.5197,2.5479,2.5983,2.5797,2.534,2.4654,2.5079,2.475,2.3255,2.472,2.5204,2.4257,2.4984,2.5369,2.5369,2.5188,2.5061,0.0,0.0,1.9801,1.8474,1.718,0.0,0.0,0.0,1.9545,2.0165,2.1026,2.1784,2.2375,2.2101,2.1681,2.1199,2.116,2.0623,1.9969,1.9848,1.8983,1.7812,1.7722,1.7305,1.6904,1.7172,1.7379,1.7513,1.7791,1.7869,1.7883,1.7809,1.769,1.7457,1.7278,1.7229,1.707,1.6516,1.6608,1.6773,1.6732,1.7234,1.7611,1.7268,1.6804,1.5742,0.0,0.0,0.0,0.0,0.0,0.0,0.0,0.0,0.0,0.0,0.0,0.0,0.0,0.0,0.0,0.0,0.0,0.0,1.0858,0.0,1.3879,1.7763,1.6931,1.8621,2.2896,2.1873,2.2433,2.4434,2.4096,2.4615,2.5931,2.5931,2.6139,2.6414,2.6756,2.696,2.7121,2.7795,2.886,3.0003,3.0365,3.1236,3.2132,2.2048,0.0,2.0282,0.0,2.1534,2.2313,2.2406,2.4237,2.5601,2.5612,2.6251,2.6757,2.6739,2.6481,2.616,2.5638,2.5877,2.559,2.4422,2.5526,2.5895,2.5212,2.5652,0.0,2.5893,2.5646,2.5536,2.5591,2.2807,0.0,0.0,0.0,0.0,0.0,2.093,2.1232,2.1008,2.2121,2.2295,2.1897,2.1696,2.1242,2.0723,2.0723,2.0346,1.9876,1.9888,1.9085,1.7993,1.7907,1.7224,1.6436,1.6805,1.6933,1.7049,1.7368,1.7492,1.7471,1.7409,1.7232,1.7076,1.6874,1.6782,1.6725,1.6457,1.6642,1.689,1.6973,1.7567,1.8061,1.7952,1.7897,1.724,0.0,0.0,0.0,0.0,0.0,0.0,0.0,1.2508,1.2283,1.4764,0.0,0.0,0.0,0.0,0.0,0.0,0.0,0.0,0.0,0.0,0.0,0.0,0.0,1.9508,2.4015,2.3412,2.3862,2.5154,2.523,2.5762,2.662,2.662,2.6769,2.6905,2.731,2.7577,2.7762,2.8772,2.9659,3.0404,3.107,3.1809,3.2407,2.4521,2.4649,2.4823,2.5406,2.5422,2.4879,2.3426,2.5234,2.626,2.4807,2.6914,2.814,2.7004,2.6901,2.6226,2.4594,2.6183,2.5697,2.1999,2.5222,2.6436,0.0,0.0,2.6901,2.6901,2.673,2.673,2.6901,0.0,0.0,2.3039,0.0,0.0,2.2002,2.2871,2.3053,2.2633,2.2268,2.183,2.1423,2.1375,2.1229,2.0997,2.0997,2.0835,2.056,2.0144,1.9359,1.8417,1.8015,1.7224,1.6431,1.6581,1.679,1.6987,1.6857,1.7124,1.7409,1.7096,1.6971,1.6862,1.6435,1.6317,1.6387,1.6571,1.6581,1.6853,1.7689,1.8278,1.8572,1.8422,1.8367,1.7578,1.5127,0.0,0.0,0.0,0.0,0.0,0.0,0.9977,0.9765,1.2655,0.0,0.0,0.0,0.0,0.0,0.0,0.0,0.0,0.9372,0.8095,0.0,1.4826,1.5417,1.849,2.4015,2.3412,2.4032,2.5798,2.636,2.6804,2.7162,2.7162,2.7523,2.8079,2.8079,2.8079,2.8146,2.8919,2.9578,3.0239,3.0999,3.1995,3.2821,2.1084,2.3227,2.489,2.3587,2.4831,2.6014,2.5942,2.692,2.7585,2.7363,2.8109,2.8494,2.8107,2.783,2.7508,0.0,2.5961,2.5493,0.0,2.5508,2.5682,2.6332,2.5534,2.5022,2.4941,2.4796,2.4733,2.4796,0.0,0.0,0.0,2.2553,2.2649,2.3467,2.3021,2.272,2.2498,2.1792,2.1586,2.1793,2.152,2.1229,2.1033,2.118,2.1166,2.1019,2.097,2.0434,1.9697,1.8955,1.8058,1.7112,1.6637,1.6524,1.6591,1.6533,1.6567,1.6542,1.6424,1.6316,1.6178,1.5979,1.6222,1.6461,1.6316,1.6842,1.7556,1.8236,1.8506,1.856,1.8422,1.8313,1.7432,1.5126,0.0,0.0,0.0,0.0,0.0,0.0,1.266,1.2677,0.0,1.3411,0.0,0.0,0.0,0.0,0.0,0.0,0.0,0.0,1.5042,0.0,2.0233,1.8917,2.0683,2.5559,2.4708,2.4958,2.6307,2.6894,2.7415,2.7789,2.7789,2.7934,2.8079,2.7934,2.8292,2.8919,2.9428,3.0363,3.1516,3.2206,3.2891,3.3476,2.1681,2.3648,2.5104,2.3713,2.5164,2.6502,2.6366,2.7496,2.8323,2.8124,2.8928,2.9343,2.9029,2.903,0.0,2.8414,2.6994,0.0,2.7936,2.6839,2.6702,2.7902,2.6699,2.5939,2.5861,0.0,0.0,2.5595,2.5218,2.4984,2.4867,2.3971,2.4044,2.4866,2.3764,2.3388,2.3508,2.2762,2.2617,2.2921,2.2679,2.2248,2.1749,2.1944,2.171,2.1277,2.1375,2.0957,2.0219,1.953,1.8638,1.7743,1.7067,1.6864,1.6705,1.6316,1.6134,1.6009,1.5951,1.6019,1.6019,1.5894,1.6296,1.6694,1.6616,1.7234,1.7952,1.8278,1.829,1.8236,1.8193,1.8139,1.7565,1.6176,0.0,0.0,0.0,0.0,0.0,0.0,0.0,0.0,0.0,1.5516,0.0,0.0,0.0,0.0,0.0,0.0,0.0,1.6123,1.697,0.0,2.1511,2.0324,2.1923,2.6294,2.574,2.5827,2.6492,2.6916,2.7407,2.8,2.8,2.8066,2.8249,2.8105,2.8702,2.9761,3.0282,3.124,3.2398,3.2901,3.3514,3.4033,2.5013,2.5207,0.0,0.0,2.6178,0.0,2.5316,2.7316,2.8633,2.7657,2.9426,3.0493,2.9738,3.0261,3.0177,2.9093,0.0,0.0,0.0,2.8826,2.8919,2.9075,2.8825,0.0,2.8684,2.8607,2.8544,2.8589,2.7766,2.7365,2.7242,2.598,2.5613,2.5954,2.4867,2.4728,2.5227,2.4693,2.4525,2.4525,2.4525,2.3893,2.3,2.3,2.2332,2.1423,2.1375,2.0894,2.0181,1.9773,1.9085,1.834,1.7875,1.7623,1.7301,1.6306,1.5972,1.5972,1.5846,1.6066,1.6285,1.6171,1.6513,1.6976,1.7412,1.781,1.803,1.7909,1.781,1.7755,1.7909,1.7909,1.7897,1.7952,1.841,1.8632,1.8135,0.0,0.0,0.0,0.0,0.0,0.0,1.7209,1.7388,0.0,0.0,0.0,0.0,0.0,0.0,1.4675,1.5316,1.6977,1.9704,2.0281,2.2456,2.6235,2.6438,2.6539,2.6539,2.6539,2.7046,2.7908,2.7908,2.8157,2.8597,2.8597,2.9352,3.0686,3.1423,3.2127,3.283,3.3252,3.3915,3.4332,0.0,0.0,2.5139,2.3151,2.523,2.7154,2.7189,2.8666,2.9772,2.9682,3.0286,3.0609,3.026,3.0833,3.1078,3.0826,2.9016,2.8132,2.8764,2.8275,2.8208,2.8826,2.7279,2.6377,2.6377,2.6277,2.6917,2.8444,2.8323,2.7798,2.682,2.639,2.5756,2.4963,2.4551,2.4672,2.5063,2.4554,2.4575,2.4946,2.4624,2.3893,2.3,2.3,2.2332,2.1375,2.1277,2.1118,2.0858,2.0144,1.9683,1.9267,1.8309,1.782,1.7545,1.719,1.6965,1.6729,1.6673,1.6684,1.6694,1.6637,1.6864,1.7256,1.781,1.7865,1.7822,1.7755,1.7711,1.7755,1.7909,1.7799,1.7865,1.8267,1.8375,1.7891,1.6302,1.6158,1.5549,0.0,1.5432,1.6844,1.6989,1.9834,2.057,0.0,0.0,0.0,0.0,0.0,1.7838,2.014,2.0818,2.1779,2.3114,2.3729,2.4549,2.5627,2.6617,2.7129,2.7129,2.7129,2.7837,2.9079,2.9079,2.9142,2.9268,2.9268,3.0101,3.1438,3.1608,3.2573,3.3803,3.3853,3.4155,3.4349,2.2822,2.4514,2.5721,2.431,2.6278,2.8174,2.846,2.9772,3.0868,3.115,3.1393,3.1381,3.0891,3.1407,3.1558,3.0997,2.9858,2.9399,2.9918,2.9162,2.8904,2.9425,2.8323,2.7615,2.7442,2.7356,2.7745,2.8605,2.8404,2.7921,2.7232,2.692,2.6529,2.6092,2.5645,2.5849,2.6504,2.5812,2.5825,2.6287,2.5683,2.4716,2.359,2.3231,2.2367,2.1229,2.1131,2.1082,2.0983,2.0308,2.0055,1.9901,1.9016,1.8483,1.8201,1.8127,1.7523,1.6909,1.6909,1.6909,1.7032,1.7145,1.7312,1.7479,1.7755,1.792,1.7963,1.7909,1.8073,1.8236,1.8387,1.8518,1.8779,1.9041,1.8402,1.7521,1.6396,1.5869,1.5462,1.5167,1.687,1.8464,1.9324,2.1237,2.1642,1.9943,0.0,0.0,2.0329,1.9709,2.0387,2.2693,2.3069,2.3723,2.4805,2.5593,2.5903,2.5742,2.6651,2.7251,2.7575,2.7575,2.8306,2.9504,2.9504,2.969,2.9964,3.0387,3.1401,3.2674,3.2952,3.3672,3.4553,3.4299,3.4334,3.4263,2.6522,2.6556,2.6573,2.6622,2.7941,2.9049,2.9312,3.056,3.1654,3.2073,3.2389,3.2299,3.1634,3.2042,3.1992,3.0955,3.1198,3.1331,3.1117,3.0555,3.0228,3.0172,3.013,2.9984,2.9572,2.9528,2.9319,2.8873,2.8309,2.8025,2.7915,2.7438,2.7422,2.7787,2.7108,2.7379,2.8211,2.7263,2.7161,2.7579,2.6756,2.5585,2.4226,2.3669,2.245,2.1082,2.1082,2.0997,2.0835,2.0385,2.0271,2.0271,1.9668,1.9251,1.9052,1.8851,1.803,1.7088,1.6976,1.719,1.7468,1.7865,1.7931,1.7865,1.7744,1.8061,1.8333,1.8213,1.8483,1.8815,1.8934,1.9336,1.957,1.9298,1.8128,1.7156,1.6879,0.0,1.5875,1.7968,1.8579,1.9701,2.1979,2.2019,2.2034,2.2388,2.0769,0.0,0.0,2.1541,2.1801,2.3908,2.3933,2.4494,2.5741,2.6694,2.6842,2.6229,2.6901,2.7527,2.8039,2.8182,2.8852,2.9813,2.9875,3.0194,3.0702,3.1526,3.2644,3.388,3.4393,3.4805,3.5079,3.4552,3.4345,3.4213,2.6872,2.6839,2.6944,2.7205,2.7935,2.8854,2.9904,3.0813,3.1603,3.2108,3.2336,3.2371,3.2249,3.2805,3.3149,3.2954,3.2835,3.2072,3.0389,3.0935,3.0935,2.9995,2.9962,2.9789,2.9467,2.9166,2.8936,2.8842,2.8779,2.8511,2.805,2.7866,2.7595,2.7295,2.7359,2.7458,2.7612,2.7033,2.6856,2.6901,2.6081,2.5079,2.413,2.4014,2.2956,2.1471,2.1375,2.097,2.0472,2.0283,2.0233,2.0169,1.9862,1.9565,1.9263,1.8905,1.8732,1.8506,1.7897,1.7995,1.8429,1.8987,1.8999,1.8774,1.8774,1.8667,1.856,1.8548,1.856,1.8667,1.8798,1.8911,1.8478,1.6947,1.6685,1.6395,0.0,0.0,1.7814,1.8754,2.0726,2.1979,2.1863,2.3231,2.3731,2.2872,2.3758,2.434,2.4297,2.4474,2.5038,2.6098,2.5835,2.6203,2.7244,2.807,2.7943,2.6811,2.8021,2.8647,2.8764,2.9572,3.0421,3.1219,3.1509,3.1509,3.1395,3.2109,3.2961,3.3834,3.4106,3.439,3.4639,3.4213,3.4083,3.4137,2.7474,2.7774,2.808,2.8183,2.9041,2.9966,3.0594,3.132,3.193,3.2179,3.2319,3.2406,3.2406,3.2687,3.2862,3.2862,3.2666,3.2165,3.1223,3.1427,3.1358,3.0828,3.0788,3.0584,3.0149,2.9821,2.9633,2.9531,2.956,2.9472,2.9226,2.9182,2.9033,2.8796,2.8211,2.8194,2.8387,2.7409,2.7152,2.7312,2.6019,2.4872,2.3946,2.3414,2.2395,2.1299,2.1458,2.1361,2.1055,2.0573,2.0472,2.0409,1.9862,1.9565,1.9429,1.9551,1.9281,1.8839,1.8655,1.8697,1.8815,1.9028,1.8934,1.8774,1.8774,1.8881,1.904,1.904,1.9198,1.9356,1.942,1.9707,1.9728,1.9188,1.8229,0.0,0.0,1.8027,1.8755,1.9059,2.1241,2.2671,2.2656,2.3487,2.3875,2.3639,2.4722,2.5277,2.5027,2.5685,2.6225,2.6572,2.6897,2.721,2.7625,2.8041,2.7925,2.7306,2.8284,2.8936,2.9307,3.0223,3.1065,3.1769,3.2094,3.2135,3.2068,3.281,3.3398,3.3778,3.4232,3.453,3.4747,3.4438,3.4394,3.4464,2.8255,2.8729,2.917,2.9431,3.0307,3.1079,3.1323,3.1847,3.2214,3.2232,3.2354,3.2406,3.2406,3.2406,3.2406,3.2406,3.2284,3.2161,3.2161,3.1893,3.1728,3.1691,3.1521,3.1274,3.0885,3.0518,3.0284,3.0189,3.0189,3.0189,3.0189,3.0189,3.0189,3.0172,2.9086,2.8914,2.9332,2.772,2.7372,2.7753,2.6111,2.4951,2.4106,2.3296,2.2353,2.1524,2.1691,2.1746,2.1541,2.0993,2.0845,2.0795,2.0207,1.9914,1.9924,2.0476,2.0213,1.9789,1.9777,1.967,1.9617,1.9658,1.9551,1.9455,1.9455,1.9818,2.011,1.9945,2.0219,2.0438,2.0309,2.063,2.0901,2.0782,0.0,0.0,0.0,1.9181,1.9404,2.0119,2.182,2.3077,2.3498,2.3722,2.3999,2.4423,2.5121,2.5586,2.5634,2.6321,2.6777,2.6924,2.747,2.779,2.7675,2.774,2.7816,2.7814,2.8502,2.9252,3.0098,3.1051,3.1811,3.2287,3.2547,3.2586,3.2444,3.3321,3.3712,3.3911,3.4441,3.4802,3.5053,3.4755,3.4791,3.4975,2.9165,2.9333,2.9728,3.09,3.1203,3.1472,3.2022,3.2179,3.2249,3.2354,3.2388,3.2406,3.2406,3.2406,3.2406,3.2406,3.2406,3.2371,3.2371,3.2232,3.2055,3.1894,3.1524,3.1257,3.1083,3.0584,3.0284,3.0189,3.0189,3.0189,3.0189,3.0189,3.0189,3.0146,2.9512,2.9422,2.9613,2.7798,2.7224,2.7427,2.6104,2.5379,2.5066,2.453,2.3771,2.2895,2.24,2.1799,2.1224,2.1321,2.1272,2.1175,2.1224,2.1175,2.1149,2.1495,2.2075,2.2432,2.1728,2.1398,2.1441,2.2001,2.2014,2.1918,2.1918,2.215,2.2194,2.1642,2.1794,2.1861,2.1233,2.1033,2.0353,1.8309,0.0,0.0,1.9263,1.9134,1.9981,2.2822,2.3431,2.3702,2.3844,2.4476,2.497,2.5129,2.5619,2.6085,2.6298,2.6855,2.7363,2.7879,2.7825,2.784,2.7955,2.7855,2.8056,2.8532,2.919,3.0221,3.1566,3.2562,3.3045,3.3145,3.3391,3.3093,3.2444,3.3121,3.3761,3.4387,3.4681,3.5121,3.5481,3.51,3.5195,3.5526,2.9584,3.0309,3.1041,3.1489,3.1874,3.2234,3.2419,3.2438,3.2456,3.2388,3.2406,3.2473,3.2621,3.2507,3.2473,3.2621,3.2507,3.2406,3.2406,3.2354,3.2232,3.202,3.1912,3.1785,3.1582,3.1278,3.1061,3.1032,3.0855,3.0814,3.0814,3.0814,3.0773,3.0692,3.014,2.9984,2.9984,2.8912,2.8481,2.8495,2.7471,2.678,2.6334,2.6074,2.544,2.469,2.4776,2.4565,2.4101,2.3817,2.366,2.3549,2.3307,2.3098,2.3125,2.3677,2.4354,2.4894,2.4558,2.3649,2.2804,2.3029,2.3044,2.3105,2.3419,2.3659,2.3803,2.3838,2.3947,2.381,2.3055,2.2598,2.1988,2.0953,0.0,2.0826,2.1924,2.1944,2.2493,2.4168,2.4404,2.4452,2.4471,2.5379,2.5859,2.5579,2.6797,2.7334,2.6791,2.7324,2.8061,2.8966,2.8764,2.8591,2.8446,2.9122,2.9432,2.9346,3.0613,3.1493,3.2053,3.316,3.3786,3.402,3.4741,3.4642,3.3968,3.4694,3.488,3.4676,3.4775,3.5117,3.5559,3.5446,3.5661,3.6096,3.0495,3.1335,3.199,3.212,3.2523,3.283,3.283,3.283,3.283,3.2798,3.2798,3.2876,3.3039,3.2876,3.2816,3.2983,3.2816,3.269,3.2657,3.2608,3.2473,3.2196,3.2196,3.2144,3.1984,3.1802,3.1671,3.1576,3.1462,3.1329,3.1213,3.1213,3.1134,3.0935,3.0493,3.03,3.0316,2.9605,2.9335,2.9377,2.8598,2.8013,2.7535,2.7334,2.6787,2.6199,2.6363,2.6212,2.5956,2.5493,2.529,2.518,2.4863,2.48,2.4897,2.5423,2.6029,2.6587,2.6587,2.5692,2.4732,2.4563,2.4627,2.4797,2.5134,2.542,2.5608,2.5799,2.5869,2.5689,2.4969,2.4405,2.3923,2.3585,2.3188,2.3174,2.3995,2.4119,2.4389,2.5047,2.5379,2.5497,2.5501,2.6467,2.6954,2.6609,2.7753,2.8125,2.7539,2.7978,2.8654,2.9496,2.9823,2.9846,2.9605,3.0236,3.067,3.0813,3.1881,3.2688,3.316,3.3991,3.4643,3.5131,3.5654,3.5638,3.5197,3.5479,3.5393,3.5052,3.5052,3.5391,3.5793,3.5793,3.6182,3.6749,3.2038,3.2292,3.249,3.3021,3.3117,3.316,3.3284,3.3314,3.3411,3.3652,3.3705,3.3705,3.3705,3.3579,3.3458,3.3419,3.3332,3.3262,3.322,3.3068,3.2802,3.2422,3.2267,3.2179,3.2108,3.1984,3.1875,3.18,3.18,3.1634,3.1295,3.1295,3.1157,3.0871,3.0401,3.0401,3.0651,2.9694,2.9515,2.975,2.9303,2.8904,2.8545,2.8088,2.7746,2.741,2.6669,2.6227,2.5986,2.5863,2.5693,2.5568,2.5676,2.6016,2.644,2.644,2.6867,2.7401,2.7401,2.7539,2.7505,2.6944,2.7041,2.7325,2.7308,2.7675,2.7868,2.7244,2.7353,2.7331,2.6751,2.6354,2.598,2.5526,2.5308,2.5169,2.5053,2.5014,2.5206,2.5693,2.6374,2.6862,2.699,2.7679,2.8158,2.8304,2.8288,2.8352,2.8511,2.8889,2.9212,2.9406,3.0828,3.1629,3.1646,3.1095,3.1537,3.2902,3.2918,3.3676,3.5107,3.5107,3.5681,3.6666,3.5938,3.5782,3.5942,3.5148,3.5115,3.5633,3.5633,3.5898,3.6301,3.6301,3.6801,3.7473,3.2711,3.3096,3.3466,3.3817,3.3725,3.3634,3.3715,3.3552,3.3411,3.3299,3.3166,3.3184,3.3524,3.3136,3.3124,3.377,3.3437,3.3202,3.3262,3.2702,3.2404,3.2557,3.2405,3.2267,3.2179,3.1929,3.1819,3.18,3.1651,3.1538,3.1462,3.1308,3.1134,3.0935,3.0568,3.0443,3.0443,3.0189,3.0146,3.0215,3.0113,3.0011,2.9935,2.9894,2.9615,2.9191,2.8878,2.8532,2.8154,2.7953,2.7875,2.778,2.7733,2.7808,2.7929,2.7832,2.8196,2.8559,2.8559,2.9013,2.9193,2.8036,2.7866,2.8153,2.874,2.9064,2.9334,2.952,2.9609,2.9523,2.911,2.8612,2.7992,2.7229,2.7019,2.7018,2.7107,2.7446,2.7966,2.8622,2.8505,2.8354,2.8404,2.8473,2.84,2.8174,2.8255,2.8732,2.9633,2.9438,2.9899,3.1248,3.1708,3.2597,3.3914,3.364,3.3579,3.3694,3.4422,3.5019,3.5448,3.5661,3.5973,3.6361,3.6757,3.6635,3.6157,3.6536,3.6481,3.6071,3.6071,3.6174,3.637,3.6922,3.7284,3.7629,3.3519,3.3788,3.4031,3.4189,3.4037,3.3954,3.4068,3.3968,3.3821,3.3784,3.3661,3.3707,3.3993,3.3661,3.3607,3.413,3.3831,3.3588,3.3578,3.2952,3.2603,3.2669,3.2353,3.2161,3.2144,3.2001,3.1946,3.1946,3.18,3.1688,3.1538,3.1423,3.1213,3.0975,3.0692,3.0568,3.0526,3.0443,3.0417,3.0417,3.0485,3.0443,3.0401,3.0692,3.0609,3.0274,3.0309,3.0081,2.9705,2.947,2.9305,2.9167,2.9106,2.9059,2.9059,2.8967,2.9326,2.9653,2.9382,2.9826,3.0133,2.9103,2.9214,2.9703,3.0205,3.0513,3.0689,3.0732,3.097,3.0969,3.0527,3.0285,2.9907,2.9144,2.8883,2.8816,2.8944,2.9273,2.9735,3.0408,3.0114,2.9917,2.9952,2.9592,2.9203,2.8779,2.8811,2.9212,3.0033,3.0201,3.0789,3.1867,3.2664,3.3575,3.4721,3.5156,3.5163,3.4813,3.5447,3.5739,3.5766,3.5932,3.619,3.6585,3.6783,3.681,3.6672,3.6827,3.6664,3.6276,3.6174,3.6216,3.6362,3.7292,3.7862,3.8321,3.4336,3.4379,3.4311,3.4274,3.4221,3.4221,3.4431,3.4431,3.4517,3.4728,3.4728,3.4708,3.4747,3.4602,3.4517,3.4495,3.434,3.4179,3.4049,3.3542,3.3148,3.289,3.2266,3.1984,3.2179,3.2108,3.2073,3.2073,3.2108,3.1965,3.1617,3.1617,3.1428,3.1015,3.0814,3.0692,3.0692,3.0485,3.0417,3.0417,3.0485,3.0443,3.0316,3.0855,3.0935,3.0773,3.1004,3.0948,3.0707,3.0377,3.0081,2.9837,2.9793,2.9842,2.9891,2.9847,3.0348,3.069,2.9951,3.018,3.0539,3.0148,3.0872,3.154,3.1418,3.1743,3.1845,3.1233,3.1537,3.1766,3.1248,3.1465,3.1611,3.1006,3.083,3.0713,3.0597,3.0624,3.0845,3.1347,3.1349,3.1336,3.1453,3.0815,3.0282,2.9847,2.9858,2.9962,3.0158,3.1137,3.1791,3.1967,3.3676,3.4652,3.4703,3.588,3.6308,3.6062,3.6088,3.6105,3.6105,3.6105,3.6439,3.7011,3.6397,3.6526,3.7153,3.6423,3.6191,3.6293,3.6148,3.6242,3.6525,3.7572,3.8507,3.9403,3.4735,3.4653,3.4674,3.487,3.4672,3.4591,3.4889,3.4772,3.4569,3.442,3.4237,3.4141,3.4245,3.3998,3.3998,3.4473,3.4087,3.3961,3.4221,3.3505,3.313,3.3343,3.2947,3.2745,3.2731,3.2056,3.1783,3.1873,3.2126,3.2038,3.1617,3.1714,3.1565,3.1218,3.0885,3.074,3.0692,3.0526,3.0401,3.0274,3.0617,3.0723,3.0723,3.1196,3.1218,3.1004,3.0971,3.0811,3.0584,3.026,3.0091,2.9962,2.975,3.0048,3.0467,3.0392,3.1105,3.1785,3.1132,3.1287,3.1513,3.0891,3.1172,3.1544,3.1353,3.142,3.1518,3.166,3.1823,3.1977,3.2201,3.2312,3.2321,3.2072,3.2385,3.25,3.2021,3.2382,3.273,3.285,3.2361,3.2008,3.1806,3.1194,3.0799,3.0858,3.0954,3.1382,3.223,3.2496,3.3269,3.4679,3.5122,3.567,3.6359,3.6654,3.662,3.6308,3.6741,3.6956,3.6956,3.6956,3.6806,3.6592,3.6829,3.6806,3.6617,3.6851,3.6956,3.6995,3.6956,3.7325,3.8016,3.8889,3.9746,4.0565,3.5001,3.4927,3.4927,3.5001,3.4851,3.4792,3.4927,3.4849,3.4691,3.4545,3.4416,3.4367,3.4427,3.4221,3.4173,3.4427,3.4203,3.4062,3.4148,3.3634,3.3354,3.3419,3.313,3.2991,3.3009,3.24,3.2074,3.202,3.2055,3.1965,3.1709,3.1785,3.1657,3.1411,3.1117,3.0958,3.0935,3.0692,3.0551,3.0493,3.0781,3.0861,3.0828,3.1334,3.1411,3.1201,3.1452,3.1531,3.1497,3.1312,3.1257,3.1202,3.0784,3.0866,3.1116,3.0783,3.1467,3.2183,3.1483,3.1823,3.219,3.1482,3.1467,3.1575,3.1374,3.1494,3.1734,3.179,3.2037,3.2251,3.2289,3.2568,3.2665,3.2488,3.2705,3.282,3.249,3.2705,3.2967,3.3064,3.274,3.2409,3.2034,3.1683,3.154,3.1776,3.1832,3.229,3.324,3.3731,3.4441,3.5357,3.5837,3.6317,3.6838,3.7034,3.7055,3.6921,3.7017,3.7073,3.7073,3.7073,3.69,3.6661,3.6939,3.6939,3.6759,3.6995,3.7111,3.7185,3.7517,3.7923,3.8514,3.9842,4.0967,4.188,3.519,3.516,3.5107,3.4999,3.4981,3.4963,3.4927,3.4908,3.4908,3.4889,3.4888,3.487,3.485,3.473,3.4607,3.4498,3.4431,3.4293,3.4074,3.3884,3.3652,3.3447,3.3266,3.3201,3.3288,3.296,3.2648,3.2335,3.2038,3.1893,3.1819,3.1893,3.1839,3.1711,3.1504,3.1406,3.1368,3.1038,3.0925,3.0948,3.1061,3.1083,3.1089,3.1582,3.1711,3.1657,3.2161,3.2437,3.2601,3.255,3.2583,3.2565,3.2057,3.1929,3.1866,3.1404,3.1907,3.2474,3.1725,3.2158,3.2607,3.1829,3.1657,3.1623,3.1483,3.1792,3.2101,3.1958,3.2332,3.2513,3.2201,3.2626,3.2917,3.2714,3.276,3.2809,3.2677,3.2661,3.2701,3.2773,3.277,3.2622,3.2303,3.2332,3.2451,3.2664,3.2823,3.324,3.4116,3.4948,3.5484,3.5623,3.6387,3.6856,3.6992,3.7356,3.7523,3.7578,3.7283,3.7094,3.7094,3.7094,3.7055,3.7017,3.7094,3.715,3.7167,3.715,3.7206,3.737,3.8054,3.8483,3.8958,4.0838,4.2152,4.3032,3.5457,3.5399,3.5353,3.5353,3.532,3.5353,3.5399,3.5418,3.5359,3.5254,3.5239,3.5189,3.5073,3.4942,3.4851,3.4832,3.4505,3.4316,3.434,3.4105,3.3954,3.3979,3.3979,3.3954,3.3961,3.3634,3.313,3.2451,3.2385,3.2179,3.1967,3.2214,3.2317,3.2283,3.2248,3.2162,3.2038,3.1896,3.1642,3.1439,3.1548,3.1752,3.2022,3.2369,3.2588,3.2766,3.2912,3.2993,3.3006,3.2813,3.2763,3.2731,3.2417,3.2634,3.296,3.2758,3.3158,3.3505,3.2728,3.2591,3.2526,3.173,3.1542,3.1538,3.1487,3.189,3.2403,3.2837,3.2846,3.2746,3.2628,3.3093,3.3458,3.3299,3.3824,3.4021,3.3381,3.3299,3.3146,3.2757,3.2713,3.2771,3.2859,3.3316,3.3653,3.386,3.4446,3.519,3.5989,3.6167,3.6577,3.7326,3.7487,3.7613,3.7739,3.7845,3.7897,3.7931,3.8002,3.802,3.802,3.802,3.781,3.7432,3.7863,3.781,3.7487,3.7845,3.802,3.811,3.8922,3.9714,4.0704,4.2501,4.3283,4.341,3.5461,3.5444,3.5432,3.5419,3.5387,3.5406,3.5445,3.5445,3.5432,3.5359,3.5359,3.5325,3.5264,3.5146,3.5049,3.4962,3.4774,3.4714,3.4734,3.4593,3.4529,3.4551,3.4551,3.4551,3.4551,3.4297,3.3938,3.3515,3.2911,3.2568,3.2435,3.2437,3.2472,3.2454,3.2318,3.2266,3.2197,3.2265,3.223,3.2126,3.2364,3.253,3.266,3.2777,3.2827,3.2894,3.3006,3.3147,3.3316,3.322,3.3232,3.3214,3.2809,3.2814,3.2895,3.2545,3.2698,3.2979,3.2792,3.2861,3.2876,3.2722,3.2666,3.2601,3.2437,3.2529,3.2664,3.2557,3.2479,3.2471,3.2547,3.2816,3.2942,3.2703,3.2964,3.3066,3.2727,3.2676,3.2638,3.2552,3.3026,3.3406,3.3495,3.418,3.4832,3.5346,3.5685,3.6307,3.7304,3.734,3.7605,3.8198,3.8034,3.8018,3.8171,3.8002,3.7985,3.8122,3.8174,3.8192,3.8192,3.8192,3.8106,3.788,3.8106,3.8088,3.7915,3.8223,3.8322,3.8449,3.9805,4.1147,4.2386,4.3222,4.3497,4.3532]},{"header":{"parameterUnit":"m.s-1","parameterCategory":1,"la1":30.6,"la2":28.766,"lo1":-90.7593,"lo2":-88.6598,"dy":0.0162,"dx":0.0183,"nx":116,"ny":114,"refTime":"2024-04-08T18:00:00:Z","depth":0,"parameterNumber":3,"parameterNumberName":"V-component_of_WINDS"},"data":[0.0,0.0,0.0,0.0,0.0,0.0,0.0,0.0,0.0,0.0,0.0,0.0,0.0,0.0,0.0,0.0,0.0,0.0,0.0,0.0,0.0,0.0,0.0,0.0,0.0,0.0,0.0,0.0,0.0,0.0,0.0,0.0,0.0,0.0,0.0,0.0,0.0,0.0,0.0,0.0,0.0,0.0,0.0,0.0,0.0,0.0,0.0,0.0,0.0,0.0,0.0,0.0,0.0,0.0,0.0,0.0,0.0,0.0,0.0,0.0,0.0,0.0,0.0,0.0,0.0,0.0,0.0,0.0,0.0,0.0,0.0,0.0,0.0,0.0,0.0,0.0,0.0,0.0,0.0,0.0,0.0,0.0,0.0,0.0,0.0,0.0,0.0,0.0,0.0,0.0,0.0,0.0,0.0,0.0,0.0,0.0,0.0,0.0,0.0,0.0,0.0,0.0,0.0,0.0,0.0,0.0,0.0,0.0,0.0,0.0,0.0,0.0,0.0,0.0,0.0,0.0,0.0,0.0,0.0,0.0,0.0,0.0,0.0,0.0,0.0,0.0,0.0,0.0,0.0,0.0,0.0,0.0,0.0,0.0,0.0,0.0,0.0,0.0,0.0,0.0,0.0,0.0,0.0,0.0,0.0,0.0,0.0,0.0,0.0,0.0,0.0,0.0,0.0,0.0,0.0,0.0,0.0,0.0,0.0,0.0,0.0,0.0,0.0,0.0,0.0,0.0,0.0,0.0,0.0,0.0,0.0,0.0,0.0,0.0,0.0,0.0,0.0,0.0,0.0,0.0,0.0,0.0,0.0,0.0,0.0,0.0,0.0,0.0,0.0,0.0,0.0,0.0,0.0,0.0,0.0,0.0,0.0,0.0,0.0,0.0,0.0,0.0,0.0,0.0,0.0,0.0,0.0,0.0,0.0,0.0,0.0,0.0,0.0,0.0,0.0,0.0,0.0,0.0,0.0,0.0,0.0,0.0,0.0,0.0,0.0,0.0,0.0,0.0,0.0,0.0,0.0,0.0,0.0,0.0,0.0,0.0,0.0,0.0,0.0,0.0,0.0,0.0,0.0,0.0,0.0,0.0,0.0,0.0,0.0,0.0,0.0,0.0,0.0,0.0,0.0,0.0,0.0,0.0,0.0,0.0,0.0,0.0,0.0,0.0,0.0,0.0,0.0,0.0,0.0,0.0,0.0,0.0,0.0,0.0,0.0,0.0,0.0,0.0,0.0,0.0,0.0,0.0,0.0,0.0,0.0,0.0,0.0,0.0,0.0,0.0,0.0,0.0,0.0,0.0,0.0,0.0,0.0,0.0,0.0,0.0,0.0,0.0,0.0,0.0,0.0,0.0,0.0,0.0,0.0,0.0,0.0,0.0,0.0,0.0,0.0,0.0,0.0,0.0,0.0,0.0,0.0,0.0,0.0,0.0,0.0,0.0,0.0,0.0,0.0,0.0,0.0,0.0,0.0,0.0,0.0,0.0,0.0,0.0,0.0,0.0,0.0,0.0,0.0,0.0,0.0,0.0,0.0,0.0,0.0,0.0,0.0,0.0,0.0,0.0,0.0,0.0,0.0,0.0,0.0,0.0,0.0,0.0,0.0,0.0,0.0,0.0,0.0,0.0,0.0,0.0,0.0,0.0,0.0,0.0,0.0,0.0,0.0,0.0,0.0,0.0,0.0,0.0,0.0,0.0,0.0,0.0,0.0,0.0,0.0,0.0,0.0,0.0,0.0,0.0,0.0,0.0,0.0,0.0,0.0,0.0,0.0,0.0,0.0,0.0,0.0,0.0,0.0,0.0,0.0,0.0,0.0,0.0,0.0,0.0,0.0,0.0,0.0,0.0,0.0,0.0,0.0,0.0,0.0,0.0,0.0,0.0,0.0,0.0,0.0,0.0,0.0,0.0,0.0,0.0,0.0,0.0,0.0,0.0,0.0,0.0,0.0,0.0,0.0,0.0,0.0,0.0,0.0,0.0,0.0,0.0,0.0,0.0,0.0,0.0,0.0,0.0,0.0,0.0,0.0,0.0,0.0,0.0,0.0,0.0,0.0,0.0,0.0,0.0,0.0,0.0,0.0,0.0,0.0,0.0,0.0,0.0,0.0,0.0,0.0,0.0,0.0,0.0,0.0,0.0,0.0,0.0,0.0,0.0,0.0,0.0,0.0,0.0,0.0,0.0,0.0,0.0,0.0,0.0,0.0,0.0,0.0,0.0,0.0,0.0,0.0,0.0,0.0,0.0,0.0,0.0,0.0,0.0,0.0,0.0,0.0,0.0,0.0,0.0,0.0,0.0,0.0,0.0,0.0,0.0,0.0,0.0,0.0,0.0,0.0,0.0,0.0,0.0,0.0,0.0,0.0,0.0,0.0,0.0,0.0,0.0,0.0,0.0,0.0,0.0,0.0,0.0,0.0,0.0,0.0,0.0,0.0,0.0,0.0,0.0,0.0,0.0,0.0,0.0,0.0,0.0,0.0,0.0,0.0,0.0,0.0,0.0,0.0,0.0,0.0,0.0,0.0,0.0,0.0,0.0,0.0,0.0,0.0,0.0,0.0,0.0,0.0,0.0,0.0,0.0,0.0,0.0,0.0,0.0,0.0,0.0,0.0,0.0,0.0,0.0,0.0,0.0,0.0,0.0,0.0,0.0,0.0,0.0,0.0,0.0,0.0,0.0,0.0,0.0,0.0,0.0,0.0,0.0,0.0,0.0,0.0,0.0,0.0,0.0,0.0,0.0,0.0,0.0,0.0,0.0,0.0,0.0,0.0,0.0,0.0,0.0,0.0,0.0,0.0,0.0,0.0,0.0,0.0,0.0,0.0,0.0,0.0,0.0,0.0,0.0,0.0,0.0,0.0,0.0,0.0,0.0,0.0,0.0,0.0,0.0,0.0,0.0,0.0,0.0,0.0,0.0,0.0,0.0,0.0,0.0,0.0,0.0,0.0,0.0,0.0,0.0,0.0,0.0,0.0,0.0,0.0,0.0,0.0,0.0,0.0,0.0,0.0,0.0,0.0,0.0,0.0,0.0,0.0,0.0,0.0,0.0,0.0,0.0,0.0,0.0,0.0,0.0,0.0,0.0,0.0,0.0,0.0,0.0,0.0,0.0,0.0,0.0,0.0,0.0,0.0,0.0,0.0,0.0,0.0,0.0,0.0,0.0,0.0,0.0,0.0,0.0,0.0,0.0,0.0,0.0,0.0,0.0,0.0,0.0,0.0,0.0,0.0,0.0,0.0,0.0,0.0,0.0,0.0,0.0,0.0,0.0,0.0,0.0,0.0,0.0,0.0,0.0,0.0,0.0,0.0,0.0,0.0,0.0,0.0,0.0,0.0,0.0,0.0,0.0,0.0,0.0,0.0,0.0,0.0,0.0,0.0,0.0,0.0,0.0,0.0,0.0,0.0,0.0,0.0,0.0,0.0,0.0,0.0,0.0,0.0,0.0,0.0,0.0,0.0,0.0,0.0,0.0,0.0,0.0,0.0,0.0,0.0,0.0,0.0,0.0,0.0,0.0,0.0,0.0,0.0,0.0,0.0,0.0,0.0,0.0,0.0,0.0,0.0,0.0,0.0,0.0,0.0,0.0,0.0,0.0,0.0,0.0,0.0,0.0,0.0,0.0,0.0,0.0,0.0,0.0,0.0,0.0,0.0,0.0,0.0,0.0,0.0,0.0,0.0,0.0,0.0,0.0,0.0,0.0,0.0,0.0,0.0,0.0,0.0,0.0,0.0,0.0,0.0,0.0,0.0,0.0,0.0,0.0,0.0,0.0,0.0,0.0,0.0,0.0,0.0,0.0,0.0,0.0,0.0,0.0,0.0,0.0,0.0,0.0,0.0,0.0,0.0,0.0,0.0,0.0,0.0,0.0,0.0,0.0,0.0,0.0,0.0,0.0,0.0,0.0,0.0,0.0,0.0,0.0,0.0,0.0,0.0,0.0,0.0,0.0,0.0,0.0,0.0,0.0,0.0,0.0,0.0,0.0,0.0,0.0,0.0,0.0,0.0,0.0,0.0,0.0,0.0,0.0,0.0,0.0,0.0,0.0,0.0,0.0,0.0,0.0,0.0,0.0,0.0,0.0,0.0,0.0,0.0,0.0,0.0,0.0,0.0,0.0,0.0,0.0,0.0,0.0,0.0,0.0,0.0,0.0,0.0,0.0,0.0,0.0,0.0,0.0,0.0,0.0,0.0,0.0,0.0,0.0,0.0,0.0,0.0,0.0,0.0,0.0,0.0,0.0,0.0,0.0,0.0,0.0,0.0,0.0,0.0,0.0,0.0,0.0,0.0,0.0,0.0,0.0,0.0,0.0,0.0,0.0,0.0,0.0,0.0,0.0,0.0,0.0,0.0,0.0,0.0,0.0,0.0,0.0,0.0,0.0,0.0,0.0,0.0,0.0,0.0,0.0,0.0,0.0,0.0,0.0,0.0,0.0,0.0,0.0,0.0,0.0,0.0,0.0,0.0,0.0,0.0,0.0,0.0,0.0,0.0,0.0,0.0,0.0,0.0,0.0,0.0,0.0,0.0,0.0,0.0,0.0,0.0,0.0,0.0,0.0,0.0,0.0,0.0,0.0,0.0,0.0,0.0,0.0,0.0,0.0,0.0,0.0,0.0,0.0,0.0,0.0,0.0,0.0,0.0,0.0,0.0,0.0,0.0,0.0,0.0,0.0,0.0,0.0,0.0,0.0,0.0,0.0,0.0,0.0,0.0,0.0,0.0,0.0,0.0,0.0,0.0,0.0,0.0,0.0,0.0,0.0,0.0,0.0,0.0,0.0,0.0,0.0,0.0,0.0,0.0,0.0,0.0,0.0,0.0,0.0,0.0,0.0,0.0,0.0,0.0,0.0,0.0,0.0,0.0,0.0,0.0,0.0,0.0,0.0,0.0,0.0,0.0,0.0,0.0,0.0,0.0,0.0,0.0,0.0,0.0,0.0,0.0,0.0,0.0,0.0,0.0,0.0,0.0,0.0,0.0,0.0,0.0,0.0,0.0,0.0,0.0,0.0,0.0,0.0,0.0,0.0,0.0,0.0,0.0,0.0,0.0,0.0,0.0,0.0,0.0,0.0,0.0,0.0,0.0,0.0,0.0,0.0,0.0,0.0,0.0,0.0,0.0,0.0,0.0,0.0,0.0,0.0,0.0,0.0,0.0,0.0,0.0,0.0,0.0,0.0,0.0,0.0,0.0,0.0,0.0,0.0,0.0,0.0,0.0,0.0,0.0,0.0,0.0,0.0,0.0,0.0,0.0,0.0,0.0,0.0,0.0,0.0,0.0,0.0,0.0,0.0,0.0,0.0,0.0,0.0,0.0,0.0,0.0,0.0,0.0,0.0,0.0,0.0,0.0,0.0,0.0,0.0,0.0,0.0,0.0,0.0,0.0,0.0,0.0,0.0,0.0,0.0,0.0,0.0,0.0,0.0,0.0,0.0,0.0,0.0,0.0,0.0,0.0,0.0,0.0,0.0,0.0,0.0,0.0,0.0,0.0,0.0,0.0,0.0,0.0,0.0,0.0,0.0,0.0,0.0,0.0,0.0,0.0,0.0,0.0,0.0,0.0,0.0,0.0,0.0,0.0,0.0,0.0,0.0,0.0,0.0,0.0,0.0,0.0,0.0,0.0,0.0,0.0,0.0,0.0,0.0,0.0,0.0,0.0,0.0,0.0,0.0,0.0,0.0,0.0,0.0,0.0,0.0,0.0,0.0,0.0,0.0,0.0,0.0,0.0,0.0,0.0,0.0,0.0,0.0,0.0,0.0,0.0,0.0,0.0,0.0,0.0,0.0,0.0,0.0,0.0,0.0,0.0,0.0,0.0,0.0,0.0,0.0,0.0,0.0,0.0,0.0,0.0,0.0,0.0,0.0,0.0,0.0,0.0,0.0,0.0,0.0,0.0,0.0,0.0,0.0,0.0,0.0,0.0,0.0,0.0,0.0,0.0,0.0,0.0,0.0,0.0,0.0,0.0,0.0,0.0,0.0,0.0,0.0,0.0,0.0,0.0,0.0,0.0,0.0,0.0,0.0,0.0,0.0,0.0,0.0,0.0,0.0,0.0,0.0,0.0,0.0,0.0,0.0,0.0,0.0,0.0,0.0,-1.2538,0.0,0.0,0.0,0.0,0.0,0.0,0.0,0.0,0.0,0.0,0.0,0.0,0.0,0.0,0.0,0.0,0.0,0.0,0.0,0.0,0.0,0.0,0.0,0.0,-0.8914,-0.9195,-0.9556,-0.9754,-0.9232,-0.766,0.0,0.0,0.0,0.0,0.0,-0.6224,-0.6187,-0.6201,-0.6144,-0.6055,-0.5121,-0.3373,-0.385,-0.4197,-0.4392,0.0,0.0,0.0,0.0,0.0,0.0,0.0,0.0,0.0,0.0,0.0,0.0,0.0,0.0,0.0,0.0,0.0,0.0,0.0,0.0,0.0,0.0,0.0,0.0,0.0,0.0,0.0,0.0,0.0,0.0,0.0,0.0,0.0,0.0,0.0,0.0,0.0,0.0,0.0,0.0,0.0,0.0,0.0,0.0,0.0,0.0,0.0,0.0,0.0,0.0,0.0,0.0,0.0,0.0,0.0,0.0,0.0,0.0,0.0,0.0,0.0,0.0,0.0,0.0,0.0,0.0,0.0,0.0,0.0,0.0,0.0,-1.2842,0.0,0.0,0.0,0.0,0.0,0.0,0.0,0.0,0.0,0.0,0.0,0.0,0.0,0.0,0.0,0.0,0.0,0.0,0.0,0.0,0.0,-0.8776,-0.8664,-0.9024,-0.9477,-0.9933,-1.0217,-0.9087,-0.5945,-0.6818,-0.7028,-0.6015,-0.6551,-0.6656,-0.6238,-0.6219,-0.625,-0.6306,-0.5679,-0.4628,-0.3294,-0.3434,-0.3772,-0.426,-0.3986,0.0,0.0,0.0,0.0,0.0,0.0,0.0,0.0,0.0,0.0,0.0,0.0,0.0,0.0,0.0,0.0,0.0,0.0,0.0,0.0,0.0,0.0,0.0,0.0,0.0,0.0,0.0,0.0,0.0,0.0,0.0,0.0,0.0,0.0,0.0,0.0,0.0,0.0,0.0,0.0,0.0,0.0,0.0,0.0,0.0,0.0,0.0,0.0,0.0,0.0,0.0,0.0,0.0,0.0,0.0,0.0,0.0,0.0,0.0,0.0,0.0,0.0,0.0,0.0,0.0,-1.3609,-1.3484,-1.3194,-1.2761,-1.3279,-1.3554,-1.3765,0.0,0.0,0.0,0.0,0.0,0.0,0.0,0.0,0.0,0.0,0.0,0.0,0.0,0.0,0.0,0.0,0.0,0.0,0.0,0.0,-0.9065,-0.9557,-0.9447,-0.9449,-0.9789,-0.9677,-0.9552,-0.9577,-0.816,-0.7114,-0.6681,-0.6714,-0.6702,-0.6702,-0.6357,-0.6255,-0.6398,-0.5004,-0.4347,-0.4469,-0.3516,-0.3508,-0.4176,-0.3649,-0.3358,-0.3285,0.0,0.0,0.0,0.0,0.0,0.0,0.0,0.0,0.0,0.0,0.0,0.0,0.0,0.0,0.0,0.0,0.0,0.0,0.0,0.0,0.0,0.0,0.0,0.0,0.0,0.0,0.0,0.0,0.0,0.0,0.0,0.0,0.0,0.0,0.0,0.0,0.0,0.0,0.0,0.0,0.0,-1.0423,-1.1225,0.0,0.0,0.0,0.0,0.0,0.0,0.0,0.0,0.0,0.0,0.0,0.0,0.0,0.0,-1.2723,-1.3385,-1.3875,-1.4112,-1.4279,-1.4393,-1.4433,-1.4433,-1.4339,-1.4104,-1.3395,0.0,-1.3228,-1.3671,0.0,0.0,0.0,0.0,0.0,0.0,0.0,0.0,0.0,0.0,0.0,0.0,0.0,0.0,0.0,0.0,0.0,0.0,0.0,0.0,0.0,-0.9828,-1.0021,-0.9697,-0.9916,-0.9808,-0.9105,-0.89,-0.8422,-0.7562,-0.7641,-0.7594,-0.731,-0.6619,-0.6245,-0.6156,-0.5302,-0.4783,-0.4615,-0.3693,-0.3448,-0.3799,-0.3532,-0.3564,-0.3888,-0.4093,0.0,0.0,0.0,0.0,0.0,0.0,0.0,0.0,0.0,0.0,0.0,0.0,0.0,0.0,0.0,0.0,0.0,0.0,0.0,0.0,0.0,0.0,0.0,0.0,0.0,0.0,0.0,0.0,0.0,0.0,0.0,0.0,0.0,0.0,0.0,0.0,0.0,0.0,0.0,-1.0475,-1.1076,-1.1466,-1.1551,-1.1496,0.0,0.0,0.0,0.0,0.0,0.0,0.0,0.0,0.0,-1.2404,-1.3191,-1.3601,-1.353,-1.4299,-1.4703,-1.4773,-1.5064,-1.5221,-1.5221,-1.5079,-1.5012,-1.4914,-1.4244,-1.3981,-1.3991,-1.3882,-1.4038,-1.4229,0.0,0.0,0.0,0.0,0.0,0.0,0.0,0.0,0.0,0.0,0.0,0.0,0.0,0.0,0.0,0.0,0.0,0.0,-0.9799,-1.0417,-1.0686,-1.0152,-1.0266,-0.9843,-0.8545,-0.925,-0.9335,-0.846,-0.8535,-0.8281,-0.7626,-0.6603,-0.6059,-0.6028,-0.5689,-0.5256,-0.4722,-0.4115,-0.3776,-0.371,-0.371,-0.3828,-0.4033,-0.4146,-0.3996,-0.3645,0.0,0.0,0.0,0.0,0.0,0.0,0.0,0.0,0.0,0.0,0.0,0.0,0.0,0.0,0.0,0.0,0.0,0.0,0.0,0.0,0.0,0.0,0.0,0.0,0.0,0.0,0.0,0.0,0.0,0.0,0.0,0.0,0.0,0.0,0.0,0.0,0.0,-1.0836,-1.1463,-1.1861,-1.2026,-1.2097,0.0,0.0,0.0,0.0,0.0,0.0,-1.2672,-1.3143,-1.3361,-1.3314,-1.4197,-1.4607,-1.4555,-1.4992,-1.5241,-1.5316,-1.5486,-1.552,-1.552,-1.5381,-1.5235,-1.5165,-1.4854,-1.4699,-1.4602,-1.4252,-1.4066,-1.4085,-1.4765,-1.4849,0.0,-1.4334,-1.4778,-1.5516,0.0,0.0,0.0,0.0,0.0,0.0,0.0,0.0,0.0,0.0,0.0,-1.0763,-1.15,-1.1269,-1.1199,-1.149,-1.0409,-0.9638,-0.9462,-0.9151,-0.9027,-0.9252,-0.8967,-0.8341,-0.7423,-0.6067,-0.5592,-0.6074,-0.5816,-0.5427,-0.4988,-0.4776,-0.4493,-0.428,-0.428,-0.3641,-0.2534,-0.2968,-0.3076,-0.2899,-0.3155,0.0,0.0,0.0,0.0,0.0,0.0,0.0,0.0,0.0,0.0,0.0,0.0,0.0,0.0,0.0,0.0,0.0,0.0,0.0,0.0,0.0,0.0,0.0,0.0,0.0,0.0,0.0,0.0,0.0,0.0,0.0,0.0,0.0,0.0,0.0,0.0,0.0,0.0,-1.2594,-1.3208,0.0,0.0,0.0,0.0,-1.2572,-1.2697,-1.3116,-1.3852,-1.4228,-1.4727,-1.5349,-1.5522,-1.5807,-1.6211,-1.565,-1.5443,-1.5597,-1.5211,-1.5057,-1.5057,-1.5057,-1.4909,-1.4699,-1.4699,-1.4621,-1.4543,-1.4455,-1.465,-1.4889,-1.4256,-1.4482,-1.5183,-1.4258,-1.5212,-1.6958,0.0,0.0,0.0,0.0,0.0,0.0,0.0,-1.0795,-1.0858,-1.0303,-1.0723,-1.0912,-1.0464,-1.1358,-1.1826,-1.1315,-1.0959,-1.0435,-0.9628,-0.9501,-0.9307,-0.8945,-0.8808,-0.8152,-0.6834,-0.6589,-0.6275,-0.5913,-0.5971,-0.5878,-0.5651,-0.5067,-0.477,-0.4699,-0.4548,-0.4106,-0.3387,-0.3894,-0.3627,-0.2922,-0.3694,-0.4028,0.0,0.0,0.0,0.0,0.0,0.0,0.0,0.0,0.0,0.0,0.0,0.0,0.0,0.0,0.0,0.0,0.0,0.0,0.0,0.0,0.0,0.0,0.0,0.0,0.0,0.0,0.0,0.0,0.0,0.0,0.0,0.0,0.0,0.0,0.0,0.0,0.0,-1.3076,-1.338,0.0,0.0,-1.3434,-1.3393,-1.3339,-1.4073,-1.4629,-1.495,-1.5381,-1.584,-1.6171,-1.6,-1.5996,-1.6081,-1.585,-1.5645,-1.5566,-1.5694,-1.5721,-1.5721,-1.5551,-1.5382,-1.5308,-1.5242,-1.5087,-1.5087,-1.5087,-1.4918,-1.4669,-1.4362,-1.4622,-1.4981,-1.4697,-1.5451,-1.679,0.0,0.0,0.0,0.0,0.0,0.0,-1.0714,-1.1012,-1.1137,-1.057,-1.1118,-1.1369,-1.0889,-1.1957,-1.2347,-1.149,-1.1325,-1.0813,-0.9807,-0.9644,-0.935,-0.8715,-0.856,-0.7996,-0.6881,-0.7096,-0.6872,-0.6264,-0.6388,-0.636,-0.6254,-0.5789,-0.5401,-0.5171,-0.509,-0.477,-0.4397,-0.4762,-0.4237,-0.3211,-0.3901,-0.4016,-0.3933,0.0,0.0,0.0,0.0,0.0,0.0,0.0,0.0,0.0,0.0,0.0,0.0,0.0,0.0,0.0,0.0,0.0,0.0,0.0,0.0,0.0,0.0,0.0,0.0,0.0,0.0,0.0,0.0,0.0,0.0,0.0,0.0,0.0,0.0,0.0,-1.2837,-1.3666,-1.3814,-1.4005,-1.4388,-1.4231,-1.4179,-1.4388,-1.5185,-1.5658,-1.5684,-1.6152,-1.6492,-1.6706,-1.6366,-1.6196,-1.6118,-1.5958,-1.5751,-1.567,-1.5816,-1.5839,-1.5846,-1.5693,-1.5536,-1.5434,-1.543,-1.5394,-1.5202,-1.5413,-1.5187,-1.4794,-1.4794,-1.4926,-1.5101,-1.5663,-1.6354,-1.7269,0.0,0.0,0.0,0.0,0.0,-1.0966,-1.0256,-1.0533,-1.1082,-1.1726,-1.1815,-1.2125,-1.2943,-1.3097,-1.2832,-1.2194,-1.1481,-1.0757,-1.0082,-0.9532,-0.9076,-0.871,-0.8338,-0.7943,-0.7566,-0.7505,-0.7337,-0.7107,-0.7192,-0.7055,-0.6705,-0.6781,-0.6446,-0.5868,-0.5785,-0.5644,-0.5332,-0.5332,-0.4739,-0.3772,-0.3506,-0.3615,-0.3863,0.0,0.0,0.0,0.0,0.0,0.0,0.0,0.0,0.0,0.0,0.0,0.0,0.0,0.0,0.0,0.0,0.0,0.0,0.0,0.0,0.0,0.0,0.0,0.0,0.0,0.0,0.0,0.0,0.0,0.0,0.0,0.0,0.0,-1.1361,-1.2784,-1.3996,-1.4416,-1.4588,-1.5105,-1.5968,-1.5757,-1.5618,-1.5774,-1.5961,-1.6086,-1.6094,-1.6374,-1.6594,-1.683,-1.6766,-1.6535,-1.6363,-1.5891,-1.5733,-1.565,-1.5514,-1.5362,-1.5369,-1.5511,-1.5317,-1.4954,-1.5446,-1.5412,-1.4954,-1.5403,-1.5475,-1.546,-1.5438,-1.5431,-1.559,-1.7131,-1.7925,-1.8621,0.0,0.0,0.0,-1.1502,-1.1358,-1.1213,-1.1064,-1.1232,-1.1103,-1.0272,-1.1399,-1.2011,-1.1216,-1.2538,-1.3272,-1.2836,-1.2571,-1.2026,-1.1266,-1.0479,-0.9771,-0.9041,-0.8397,-0.8253,-0.863,-0.8311,-0.8027,-0.7836,-0.7648,-0.7495,-0.7366,-0.7197,-0.7027,-0.6858,-0.6351,-0.617,-0.6081,-0.5761,-0.5354,-0.5069,-0.453,-0.4406,-0.4529,0.0,0.0,0.0,0.0,0.0,0.0,0.0,0.0,0.0,0.0,0.0,0.0,0.0,0.0,0.0,0.0,0.0,0.0,0.0,0.0,0.0,0.0,0.0,0.0,0.0,0.0,0.0,0.0,0.0,0.0,0.0,0.0,-1.4186,-1.3605,-1.396,-1.4495,-1.5225,-1.54,-1.5462,-1.5454,-1.5546,-1.5662,-1.5782,-1.6428,-1.6813,-1.6704,-1.6646,-1.6536,-1.6297,-1.5928,-1.5748,-1.567,-1.5665,-1.5658,-1.5506,-1.5488,-1.5511,-1.5519,-1.5748,-1.5805,-1.5742,-1.6082,-1.6133,-1.5987,-1.6082,-1.6016,-1.5814,-1.5522,-1.5347,-1.5333,-1.6698,-1.806,-1.927,0.0,0.0,0.0,-1.2081,-1.1681,-1.1415,-1.1696,-1.1505,-1.1117,-1.0435,-1.152,-1.2034,-1.1156,-1.2583,-1.3458,-1.3151,-1.3053,-1.2573,-1.1597,-1.0675,-0.9862,-0.9173,-0.8989,-0.8905,-0.9064,-0.8765,-0.8515,-0.8302,-0.8081,-0.7885,-0.7876,-0.7884,-0.7714,-0.7451,-0.7104,-0.6761,-0.645,-0.6123,-0.5918,-0.5704,-0.5106,-0.4856,-0.4758,-0.4882,-0.5034,-0.5133,-0.5624,-0.5776,-0.5775,-0.6271,0.0,0.0,0.0,0.0,0.0,0.0,0.0,0.0,0.0,0.0,0.0,0.0,0.0,0.0,0.0,0.0,0.0,0.0,0.0,0.0,0.0,0.0,0.0,0.0,-1.4187,-1.5267,-1.5233,-1.5219,-1.5489,-1.6015,-1.6112,-1.6121,-1.6127,-1.6393,-1.6656,-1.6757,-1.7225,-1.7488,-1.7248,-1.7024,-1.6616,-1.6005,-1.5827,-1.5597,-1.5301,-1.5629,-1.5771,-1.5826,-1.5836,-1.5922,-1.5842,-1.6077,-1.6084,0.0,-1.6332,-1.6371,-1.6206,-1.6526,-1.6616,0.0,0.0,0.0,0.0,0.0,-1.878,-1.97,0.0,0.0,0.0,-1.2403,-1.1882,-1.1645,-1.2128,-1.1571,-1.1184,-1.1465,-1.195,-1.2181,-1.2034,-1.2991,-1.3527,-1.3269,-1.3159,-1.2599,-1.1421,-1.0368,-0.9652,-0.9328,-0.9795,-0.9813,-0.9254,-0.9091,-0.8971,-0.8738,-0.8487,-0.8315,-0.8288,-0.8476,-0.8388,-0.7852,-0.7852,-0.7418,-0.6774,-0.6519,-0.6269,-0.6047,-0.5598,-0.5121,-0.4745,-0.505,-0.5055,-0.5043,-0.5822,-0.6085,-0.6051,-0.6271,0.0,0.0,0.0,0.0,0.0,0.0,0.0,0.0,0.0,0.0,0.0,0.0,0.0,0.0,0.0,0.0,0.0,0.0,0.0,0.0,0.0,0.0,0.0,0.0,-1.4452,-1.5274,-1.622,-1.6478,-1.6612,-1.662,-1.6689,-1.6885,-1.7492,-1.7761,-1.7908,-1.816,-1.8002,-1.7886,-1.7717,0.0,0.0,0.0,0.0,-1.5748,-1.5249,-1.5727,-1.6104,-1.6367,-1.6411,-1.6426,-1.6433,-1.6497,-1.6346,-1.6038,-1.6508,-1.6401,-1.6053,-1.6813,-1.7363,-1.7603,-1.6662,-1.672,-1.7628,-1.8915,-1.9668,0.0,0.0,0.0,0.0,-1.2459,-1.2205,-1.2024,-1.2185,-1.1775,-1.1499,-1.1567,-1.2115,-1.2396,-1.2108,-1.3082,-1.3854,-1.4051,-1.3457,-1.2613,-1.1521,-1.0023,-0.9442,-1.0074,-1.0024,-1.0138,-1.05,-0.9873,-0.9602,-0.9716,-0.8943,-0.8532,-0.8564,-0.8568,-0.8568,-0.8388,-0.8032,-0.783,-0.7888,-0.7186,-0.6753,-0.6534,-0.6587,-0.627,-0.5628,-0.539,-0.5396,-0.5594,-0.563,-0.5834,-0.6098,-0.6293,-0.633,-0.6475,-0.7265,0.0,0.0,0.0,0.0,0.0,0.0,0.0,0.0,0.0,0.0,0.0,0.0,0.0,0.0,0.0,0.0,0.0,0.0,0.0,0.0,-1.4989,-1.5824,-1.6572,-1.6729,-1.6934,-1.702,-1.702,-1.7019,-1.7282,-1.7814,-1.792,-1.8089,-1.8329,-1.7989,-1.7585,-1.7187,-1.6379,0.0,-1.5405,-1.538,-1.5464,-1.5591,-1.6051,-1.6309,-1.6374,0.0,0.0,-1.6512,-1.6743,-1.6822,-1.6814,-1.7066,-1.7044,-1.6907,-1.7717,-1.8441,-1.8797,-1.8042,-1.8518,-1.9466,-1.8775,-1.9534,-2.0879,0.0,0.0,0.0,-1.2565,-1.2231,-1.2045,-1.2323,-1.1918,-1.1603,-1.1534,-1.2152,-1.2602,-1.256,-1.3215,-1.3852,-1.4299,-1.3066,-1.2115,-1.1623,-1.0458,-0.9886,-1.0217,-1.0524,-1.064,-1.0632,-1.0249,-1.0105,-1.0038,-0.9262,-0.8828,-0.8568,-0.8568,-0.83,-0.7852,-0.812,-0.7852,-0.7316,-0.7404,-0.7274,-0.7021,-0.7032,-0.6783,-0.6485,-0.6019,-0.5954,-0.598,-0.6063,-0.617,-0.6392,-0.6595,-0.6599,-0.669,-0.7057,-0.7034,-0.7007,0.0,0.0,0.0,0.0,0.0,0.0,0.0,0.0,0.0,0.0,0.0,0.0,0.0,0.0,-1.3541,-1.3843,0.0,-1.4258,-1.4992,-1.5601,-1.6167,-1.6756,-1.7227,-1.7475,-1.7622,-1.7559,-1.7834,-1.8416,-1.8523,-1.8434,-1.8353,-1.7942,-1.7456,-1.6886,-1.6401,-1.5913,-1.5343,-1.5658,-1.6077,-1.6591,-1.6714,-1.7286,-1.8172,-1.7508,-1.7304,-1.7582,-1.7366,-1.7244,-1.7251,-1.7334,-1.7334,-1.7327,-1.8486,-1.9431,-2.0113,-2.0004,-1.9931,-1.9894,-1.9751,-2.0245,-2.0977,0.0,0.0,0.0,-1.2665,-1.2271,-1.2039,-1.2419,-1.1997,-1.1638,-1.1614,-1.2163,-1.262,-1.2836,-1.3108,-1.3399,-1.3751,-1.233,-1.1454,-1.1587,-1.0793,-1.0294,-1.024,-1.1027,-1.117,-1.0457,-1.0378,-1.0294,-1.0038,-0.9345,-0.8911,-0.8568,-0.8388,-0.794,-0.7408,-0.8032,-0.7764,-0.6874,-0.7676,-0.776,-0.7566,-0.7321,-0.7168,-0.7094,-0.6771,-0.6534,-0.6395,-0.656,-0.6641,-0.6714,-0.6865,-0.6927,-0.6891,-0.6671,-0.7045,-0.7577,-0.7439,-0.8392,0.0,0.0,0.0,0.0,0.0,0.0,0.0,0.0,0.0,-1.4197,-1.3778,-1.3744,-1.3881,-1.4061,-1.3856,-1.3976,-1.4993,-1.5373,-1.593,-1.6857,-1.7535,-1.7987,-1.8282,-1.825,-1.8442,-1.8922,-1.9002,-1.8834,-1.8264,-1.7853,-1.7294,-1.6656,-1.6492,-1.6201,-1.571,-1.6342,-1.6944,-1.7377,-1.7602,-1.8354,-1.9568,-1.8602,-1.8405,-1.8784,-1.8002,-1.7704,-1.7605,-1.7505,-1.7605,-1.8065,-1.9159,-2.037,-2.1485,-2.1826,-2.1177,-2.0271,-2.108,-2.1284,-2.1184,0.0,0.0,0.0,-1.261,-1.2506,-1.2399,-1.2343,-1.206,-1.1913,-1.2005,-1.2258,-1.239,-1.2307,-1.2329,-1.2141,-1.1593,-1.1205,-1.0978,-1.1086,-1.0308,-1.0121,-1.0644,-1.1203,-1.1336,-1.0961,-1.0115,-0.9777,-1.0038,-0.8899,-0.838,-0.8568,-0.7676,-0.7676,-0.8388,-0.7584,-0.7672,-0.8388,-0.8476,-0.8208,-0.7746,-0.7849,-0.7682,-0.7263,-0.7331,-0.7085,-0.6788,-0.6637,-0.6795,-0.7103,-0.6942,-0.693,-0.6912,-0.6835,-0.6839,-0.7028,-0.8351,0.0,-0.9682,-1.0409,-1.0051,-0.9283,-0.8692,-0.9699,-1.0538,0.0,0.0,-1.4247,-1.33,-1.4388,-1.5618,-1.5954,-1.5983,-1.6022,-1.6347,-1.6871,-1.7304,-1.7692,-1.8083,-1.8452,-1.885,-1.8895,-1.8922,-1.9002,-1.9152,-1.8825,-1.7853,-1.7521,-1.7041,-1.6252,-1.6077,-1.6088,-1.6286,-1.7425,-1.7845,-1.7376,-1.8595,-1.901,-1.8496,-1.8799,-1.9003,-1.9003,-1.8503,-1.82,-1.82,-1.7413,-1.8185,-1.9933,-1.9781,-2.0929,-2.269,-2.2738,-2.238,-2.1789,-2.2143,-2.2249,-2.2387,0.0,0.0,0.0,-1.2467,-1.2443,-1.2379,-1.22,-1.2123,-1.2082,-1.2094,-1.2245,-1.2513,-1.2903,-1.2688,-1.2234,-1.1537,-1.0949,-1.0681,-1.0812,-1.0552,-1.0447,-1.0545,-1.1134,-1.1356,-1.0958,-1.0585,-1.0217,-0.9777,-0.9253,-0.8815,-0.838,-0.7496,-0.7051,-0.6874,-0.7051,-0.7051,-0.6962,-0.812,-0.8416,-0.8135,-0.815,-0.7959,-0.7539,-0.7457,-0.7242,-0.7061,-0.698,-0.7017,0.0,0.0,-0.7013,-0.6997,-0.745,-0.7112,-0.696,-0.8967,-0.9221,0.0,-0.9876,-0.9805,-0.9499,0.0,-1.0258,-1.118,-1.0892,-1.2862,-1.4687,-1.4183,-1.5091,-1.6,-1.6132,-1.5757,-1.5721,0.0,-1.6798,-1.7098,-1.7996,-1.8426,-1.8612,-1.8772,-1.8321,-1.7965,-1.8031,-1.8266,-1.782,-1.6467,-1.6541,-1.6412,-1.604,-1.6095,-1.6588,-1.7379,-1.7946,-1.8628,-1.9359,-1.9514,-1.9783,-2.0271,-1.9674,-1.9471,-1.937,-1.8651,-1.814,-1.7935,-1.8235,-1.9026,-2.0327,-2.081,-2.1777,-2.2857,-2.2857,-2.2935,-2.2936,-2.2943,-2.2828,-2.274,0.0,0.0,0.0,0.0,0.0,-1.2368,-1.2153,-1.2159,-1.2143,-1.2005,-1.2158,-1.2458,-1.2954,-1.2753,-1.226,-1.161,-1.1159,-1.0962,-1.1065,-1.1011,-1.0995,-1.0869,-1.1213,-1.1221,-1.0875,-1.0805,-1.0379,-0.9605,-0.9352,-0.8949,-0.8301,-0.7162,-0.6549,-0.6461,-0.6549,-0.6527,-0.6402,-0.7801,-0.8337,-0.8211,-0.8074,-0.7902,-0.7668,-0.7375,-0.7192,-0.7064,-0.7098,-0.7022,-0.6997,0.0,-0.7292,-0.7473,-0.7943,-0.7692,-0.7707,-0.9596,-0.9695,-0.9194,-0.9573,-0.9462,0.0,-0.9556,-1.0281,-1.1039,-1.1575,-1.3142,-1.4506,-1.4458,-1.5409,-1.6132,-1.6132,-1.5713,-1.5713,-1.6739,-1.685,-1.7239,-1.8364,-1.8612,-1.8656,-1.8404,-1.7608,-1.6821,-1.6219,-1.6854,-1.6957,-1.5847,-1.6147,-1.6324,-1.607,-1.6632,-1.7311,-1.8087,-1.859,-1.938,-2.0377,-2.0194,-2.0468,-2.1216,-2.0395,-1.999,-1.9776,-1.9153,-1.8422,-1.7687,-1.9027,-2.0013,-2.0588,-2.1594,-2.2549,-2.329,-2.329,-2.3493,-2.3768,-2.3786,-2.3588,-2.3366,0.0,0.0,0.0,0.0,0.0,-1.2475,-1.2138,-1.2153,-1.2091,-1.1755,-1.1991,-1.2075,-1.1791,-1.2027,-1.1906,-1.1189,-1.1822,-1.2181,-1.1953,-1.1743,-1.1718,-1.2016,-1.1439,-1.1018,-1.0875,-1.0227,-0.9821,-0.9582,-0.8777,-0.8459,-0.8547,-0.6398,-0.6401,-0.8126,-0.6316,-0.6408,-0.7946,-0.8028,-0.8024,-0.8004,-0.7588,-0.7437,-0.7406,-0.7009,-0.6791,-0.6627,-0.6825,-0.7022,-0.7068,0.0,-0.7765,-0.8522,-0.821,-0.8515,0.0,-1.058,-1.0793,-1.0524,-1.0023,0.0,-0.83,-0.891,-0.9018,-0.9209,-1.0057,-1.189,-1.3418,-1.344,-1.4966,-1.6272,-1.6132,-1.6517,-1.6867,-1.691,-1.7744,-1.839,-1.8692,-1.87,-1.8422,-1.7624,-1.7035,-1.5774,0.0,-1.5212,-1.6598,-1.6611,-1.6933,-1.6977,-1.6591,-1.7784,-1.8249,-1.783,-1.9731,-2.0261,-1.928,-2.0624,-2.0901,-2.0181,-2.0609,-2.0609,-2.0086,-2.0078,-1.9146,-1.7687,-1.9849,-2.0877,-2.0971,-2.1996,-2.3111,-2.4115,-2.4115,-2.4063,-2.4134,-2.4946,-2.5051,-2.4782,0.0,0.0,0.0,0.0,0.0,0.0,-1.2431,-1.2383,-1.2241,-1.1991,-1.2143,0.0,0.0,0.0,0.0,0.0,-1.1534,-1.1446,-1.1818,-1.1661,-1.1616,-1.1854,-1.151,-1.115,-1.0887,-1.0218,-0.9587,-0.903,-0.8855,-0.8543,-0.8188,-0.693,-0.6679,-0.7177,-0.6505,-0.6562,-0.7098,-0.7761,-0.7947,-0.7841,-0.7701,-0.76,-0.7447,-0.7037,-0.704,-0.7172,0.0,-0.6578,-0.6719,0.0,0.0,0.0,-0.8497,0.0,-0.8591,-0.9294,-1.0187,-1.0709,-0.9357,0.0,-0.9122,-0.8942,-0.9217,-0.9772,-1.0605,-1.2117,-1.3491,-1.389,-1.4886,-1.5717,-1.5822,-1.5545,-1.5575,-1.6525,-1.6553,-1.69,-1.8312,-1.7353,-1.6938,-1.7947,-1.6347,0.0,0.0,0.0,0.0,-1.4556,-1.5832,-1.6873,-1.765,-1.7995,-1.8675,-1.9747,-2.0111,-2.0403,-2.0632,-2.0853,-2.0917,-2.0601,-2.0101,-1.9791,-1.9576,-1.9554,-1.9235,-1.8819,-2.0979,-2.1912,-2.2013,-2.3138,-2.3845,-2.4152,-2.4152,-2.4553,-2.5208,-2.545,-2.5624,-2.571,0.0,0.0,0.0,0.0,0.0,0.0,0.0,0.0,0.0,0.0,0.0,0.0,0.0,0.0,0.0,0.0,0.0,-1.1724,-1.1916,-1.1822,-1.1822,-1.1957,-1.1554,-1.1118,-1.0711,-1.0566,-0.9969,-0.9028,-0.919,-0.8911,-0.8352,-0.6922,-0.6447,-0.6846,-0.6012,-0.6089,-0.6849,-0.7228,-0.7517,-0.7721,-0.7604,-0.7451,-0.7285,-0.6941,-0.7035,0.0,-0.6913,-0.6877,-0.7098,0.0,0.0,0.0,0.0,-0.8856,-0.8718,-0.9381,-0.9946,-1.0147,-0.9169,-0.9202,-0.9456,-0.9313,-0.9583,-1.0067,-1.0738,-1.2191,-1.3498,-1.3962,-1.5141,-1.5891,-1.5504,-1.5301,-1.5419,-1.6279,-1.6209,-1.6625,-1.8259,-1.7388,-1.6919,-1.7775,-1.6067,-1.523,0.0,0.0,0.0,-1.4198,-1.529,-1.6564,-1.7776,-1.8047,-1.8887,-2.0552,-2.0512,-2.0686,-2.1121,-2.1027,-2.0814,-2.0609,-1.9687,-1.9376,-1.9576,-1.9753,-1.9483,-1.9162,-2.1879,-2.2516,-2.1756,-2.3511,-2.435,-2.4449,-2.4449,-2.5206,-2.634,-2.6008,-2.6225,-2.6753,0.0,0.0,0.0,0.0,0.0,0.0,0.0,0.0,0.0,0.0,0.0,0.0,0.0,0.0,0.0,0.0,0.0,0.0,-1.2259,-1.2309,-1.238,-1.2434,-1.1634,-1.0949,-1.0463,-1.1137,-1.085,-0.956,-0.9556,-0.9362,-0.8949,-0.639,-0.5962,-0.7375,-0.5039,-0.5185,-0.7179,-0.6497,-0.6714,-0.7522,-0.7267,-0.7048,-0.6924,-0.6661,-0.6804,-0.7104,-0.7386,-0.7827,0.0,0.0,0.0,0.0,0.0,-0.9418,-0.9764,-1.0786,-1.0031,-0.902,-0.9542,-0.9466,-0.9353,-0.9829,-0.9922,-0.9992,-1.0438,-1.197,-1.3411,-1.3621,-1.545,-1.6571,0.0,0.0,-1.6086,-1.6079,-1.6634,-1.7414,-1.8434,-1.8559,-1.8133,0.0,0.0,0.0,0.0,0.0,0.0,-1.5505,0.0,-1.6057,-1.7187,-1.7913,-1.8994,-2.0377,-2.0945,-2.1121,-2.0925,-2.0925,-2.0609,-2.0078,-1.9576,-1.9576,-2.0078,-2.0688,-2.0055,-1.887,-2.2585,-2.2688,-2.048,-2.3114,-2.4449,-2.4932,-2.4932,-2.6071,-2.7442,-2.6537,-2.6917,-2.7811,0.0,0.0,0.0,0.0,0.0,0.0,0.0,0.0,0.0,0.0,0.0,0.0,0.0,0.0,0.0,0.0,0.0,0.0,-1.2336,-1.2589,-1.2798,-1.2934,-1.2385,-1.1886,-1.1463,-1.101,-1.0263,-0.9321,-0.9273,-0.8942,-0.8169,-0.7467,-0.7278,-0.7409,-0.6749,-0.6897,-0.7521,-0.7085,-0.7196,-0.7644,-0.7133,-0.7073,-0.713,-0.6774,-0.7182,-0.792,-0.751,-0.8042,0.0,0.0,0.0,0.0,0.0,-1.0295,-1.0287,-0.9763,0.0,-0.995,-0.916,-0.9451,-0.9911,-0.9873,-0.9922,-1.0067,-1.0812,-1.1761,-1.2718,-1.3378,-1.3884,-1.4247,0.0,0.0,0.0,-1.5713,-1.5268,0.0,-1.6958,-1.6634,0.0,-1.5984,0.0,-1.561,-1.6405,-1.6209,0.0,0.0,-1.6753,-1.7823,-1.8871,-1.9376,-2.0071,-2.1054,-2.1073,-2.0925,-2.0925,-2.0925,-2.0609,-2.0078,-1.9576,-1.9576,-2.0078,-2.0688,-2.1091,-2.1568,-2.3368,-2.3815,-2.3169,-2.3879,-2.4449,-2.4932,-2.5479,-2.6522,-2.7526,-2.7064,-2.7172,-2.734,0.0,0.0,0.0,0.0,0.0,0.0,0.0,0.0,0.0,0.0,0.0,0.0,0.0,0.0,0.0,0.0,0.0,0.0,0.0,-1.2498,-1.2524,-1.2389,-1.2419,-1.21,-1.142,-1.15,-1.1049,-0.9942,-1.0,-0.9535,-0.8633,-0.788,-0.744,-0.7291,-0.6567,-0.6674,-0.7345,-0.6828,-0.6949,0.0,0.0,-0.756,-0.751,-0.7623,-0.803,-0.8566,-0.8273,-0.8496,0.0,0.0,0.0,-0.9199,-1.0697,-1.0818,-1.0366,-1.0411,0.0,-1.0073,-0.9485,-0.9839,-1.0293,-0.9997,-0.9992,-1.0306,-1.0955,-1.167,-1.2472,-1.317,-1.368,0.0,-1.3593,0.0,0.0,0.0,0.0,0.0,-1.6616,-1.6438,-1.5983,0.0,-1.5517,0.0,-1.7051,-1.6835,-1.661,0.0,-1.6893,-1.7694,-1.895,-1.9177,-1.9999,-2.1387,-2.1224,-2.1121,-2.1121,-2.1428,-2.131,-2.0585,-2.0688,-2.0885,-2.12,-2.1505,-2.1761,-2.2258,0.0,-2.3749,-2.3153,-2.3859,-2.4637,-2.5314,-2.6051,-2.6971,-2.7779,-2.75,-2.7366,-2.7194,0.0,0.0,0.0,0.0,0.0,0.0,0.0,0.0,0.0,0.0,-1.3177,-1.3278,0.0,0.0,0.0,0.0,0.0,0.0,0.0,0.0,-1.2103,-1.1624,-1.2112,-1.2004,-1.1171,-1.2217,-1.2204,-1.095,-1.1018,-1.0581,-0.9572,-0.7987,-0.7281,-0.7292,-0.5801,-0.5843,-0.7025,-0.6388,-0.664,-0.7453,-0.8047,-0.8099,-0.7973,0.0,0.0,0.0,-0.9239,0.0,0.0,0.0,-1.0317,-0.9487,-1.1409,-1.1189,-1.0494,-1.1571,-1.0994,-1.0013,-1.0132,-1.0364,-1.0519,-1.0218,-1.0363,-1.0775,-1.1396,-1.1874,-1.2417,-1.3161,0.0,-1.4252,-1.3329,-1.3485,-1.4101,-1.536,0.0,-1.5869,-1.6482,-1.6732,-1.6503,-1.5543,-1.5455,-1.5881,-1.6969,-1.6831,-1.6928,-1.75,-1.6728,-1.6941,-1.8289,-1.8541,-1.9571,-2.1574,-2.142,-2.1326,-2.1224,-2.2123,-2.2114,-2.1285,-2.2089,-2.2501,-2.2526,-2.2526,-2.2302,-2.2135,0.0,0.0,-2.2162,-2.3616,-2.4846,-2.5692,-2.6486,-2.7241,-2.7929,-2.7723,-2.7453,-2.7245,0.0,0.0,0.0,0.0,0.0,0.0,0.0,0.0,0.0,0.0,-1.2957,-1.3362,0.0,0.0,0.0,0.0,0.0,0.0,0.0,0.0,0.0,-1.2174,-1.2266,-1.238,-1.2469,-1.232,-1.1919,-1.1246,-1.1081,-1.0483,-0.9501,-0.8921,-0.8446,-0.8076,-0.7568,-0.7341,-0.7301,-0.6924,-0.7209,-0.7956,-0.7722,-0.7932,-0.8353,0.0,0.0,0.0,0.0,0.0,0.0,-1.0484,-1.0002,-0.9401,-1.1937,-1.222,-1.1617,-1.1499,-1.1517,-1.1361,-1.036,-1.0539,-1.1037,-1.1335,-1.1409,-1.1887,-1.3269,-1.2841,0.0,0.0,-1.3093,-1.2763,-1.3471,-1.3723,-1.4286,-1.5623,-1.5689,0.0,0.0,0.0,-1.5635,0.0,0.0,0.0,0.0,0.0,0.0,0.0,0.0,0.0,-1.8603,-2.016,-2.1007,-2.1003,-2.142,-2.1318,-2.0624,-2.2123,-2.2207,-2.0987,-2.1988,-2.2501,-2.2526,-2.2526,-2.2988,-2.3749,0.0,0.0,-2.3828,-2.4352,-2.489,-2.5506,-2.6511,-2.7212,-2.7712,-2.7484,-2.7334,-2.72,0.0,0.0,0.0,0.0,0.0,0.0,0.0,-1.2897,-1.2717,-1.1841,-1.2063,-1.244,-1.2786,-1.3076,-1.3226,0.0,0.0,0.0,0.0,0.0,0.0,0.0,0.0,0.0,0.0,-1.2345,0.0,0.0,0.0,0.0,0.0,0.0,0.0,0.0,0.0,0.0,-0.8087,-0.7888,-0.7994,-0.8272,0.0,0.0,0.0,0.0,0.0,0.0,0.0,0.0,0.0,0.0,-1.0076,-0.9596,-1.202,-1.2739,-1.2625,-1.1706,-1.202,-1.2315,-1.0744,-1.1394,-1.2492,-1.2131,-1.2498,-1.2949,-1.3203,0.0,0.0,0.0,-1.2483,-1.2507,-1.3032,-1.3175,0.0,-1.5879,-1.5991,-1.5753,-1.5568,-1.58,0.0,0.0,0.0,0.0,0.0,0.0,0.0,0.0,0.0,0.0,0.0,-2.0379,-2.0961,-2.0719,-2.0712,-2.0901,-2.1505,-2.2308,-2.271,-2.2811,-2.3411,-2.3619,-2.3338,-2.3338,-2.3646,-2.4152,0.0,0.0,0.0,-2.4222,-2.4541,-2.4662,-2.6292,-2.6877,-2.6998,-2.7175,-2.7026,-2.6561,0.0,0.0,0.0,0.0,0.0,0.0,-1.2375,-1.2351,-1.2098,-1.1157,-1.1378,-1.1757,-1.2123,-1.2749,-1.321,0.0,0.0,0.0,0.0,0.0,0.0,0.0,0.0,0.0,0.0,0.0,0.0,0.0,0.0,0.0,0.0,0.0,0.0,0.0,0.0,0.0,0.0,-0.9013,-0.8933,0.0,0.0,0.0,0.0,0.0,0.0,0.0,0.0,0.0,0.0,0.0,-1.0612,-1.046,-1.2223,-1.2895,-1.2868,-1.2167,-1.2548,-1.2953,-1.1648,-1.2716,-1.3939,-1.3142,-1.3578,-1.4073,-1.3492,-1.351,0.0,0.0,-1.2605,-1.2783,-1.3105,0.0,-1.3984,0.0,-1.6186,-1.6019,-1.6797,-1.6128,-1.5421,0.0,0.0,0.0,0.0,0.0,0.0,0.0,0.0,0.0,0.0,-2.0256,-2.0411,-2.0411,-2.0094,-2.0585,-2.2097,-2.2391,-2.3103,-2.4233,-2.4735,-2.4637,-2.4152,-2.4152,-2.4152,-2.4251,0.0,0.0,0.0,-2.4152,-2.4267,-2.3732,-2.5861,-2.6422,-2.6195,-2.6771,-2.6539,-2.6034,0.0,0.0,0.0,0.0,0.0,0.0,-1.2461,-1.2616,-1.2212,-1.0436,-1.1641,-1.2349,-1.1481,-1.1994,-1.2651,0.0,0.0,0.0,0.0,0.0,0.0,0.0,0.0,0.0,0.0,0.0,0.0,0.0,0.0,0.0,0.0,0.0,0.0,0.0,0.0,0.0,0.0,0.0,0.0,0.0,0.0,0.0,0.0,0.0,0.0,0.0,0.0,0.0,0.0,0.0,0.0,-1.2749,-1.3243,-1.2451,-1.1596,-1.2845,0.0,0.0,-1.3801,-1.4237,-1.4601,-1.4903,-1.4982,-1.5283,-1.5954,0.0,-1.4195,-1.4775,-1.388,-1.3381,-1.4717,-1.5073,0.0,-1.7216,-1.5871,-1.5012,-1.6364,-1.5116,-1.4368,-1.5112,0.0,0.0,0.0,0.0,0.0,0.0,0.0,0.0,0.0,-2.038,-2.0189,-2.0189,-2.0285,-2.0593,-2.1019,-2.2299,-2.3003,-2.3429,-2.443,-2.4637,-2.4152,-2.4152,-2.4152,-2.4233,0.0,0.0,0.0,-2.455,-2.4553,-2.3531,-2.529,-2.6005,-2.5961,-2.5961,-2.5939,-2.5906,0.0,0.0,0.0,0.0,0.0,0.0,-1.2641,-1.2643,-1.2164,-1.0452,-1.0942,-1.1241,-1.0633,-1.1202,-1.2071,-1.3142,-1.3191,0.0,0.0,0.0,0.0,0.0,0.0,0.0,0.0,0.0,-1.2081,-1.2066,-1.2503,0.0,0.0,0.0,0.0,0.0,0.0,0.0,0.0,-1.1079,0.0,0.0,0.0,0.0,0.0,0.0,0.0,0.0,0.0,0.0,0.0,0.0,0.0,0.0,-1.2103,-1.1719,0.0,0.0,-1.322,-1.3844,-1.3103,-1.4454,-1.5903,-1.5621,-1.6105,-1.6446,-1.5315,0.0,-1.4996,-1.3711,-1.345,-1.3664,-1.4468,-1.4618,-1.5132,-1.6532,-1.5879,-1.5818,-1.7691,-1.6606,-1.5995,-1.7091,0.0,0.0,0.0,0.0,0.0,0.0,0.0,0.0,0.0,0.0,-1.9583,-1.9376,-1.9257,-1.996,-2.1607,-2.1692,-2.2601,-2.4233,-2.444,-2.435,-2.4152,-2.4152,-2.4319,0.0,0.0,0.0,0.0,-2.4426,-2.4228,-2.2553,-2.4984,-2.5895,-2.5895,-2.5895,-2.5895,-2.5895,0.0,0.0,0.0,0.0,0.0,-1.3879,-1.2838,-1.2754,-1.2302,-1.0866,-1.1079,-1.1137,-1.0627,-1.1408,-1.2212,-1.2841,-1.3022,0.0,0.0,0.0,0.0,0.0,0.0,0.0,0.0,0.0,-1.1989,-1.185,-1.2503,-1.2852,0.0,0.0,0.0,0.0,0.0,0.0,0.0,0.0,0.0,0.0,0.0,0.0,0.0,0.0,0.0,0.0,0.0,0.0,0.0,0.0,0.0,0.0,0.0,-1.1556,-1.1643,0.0,-1.3218,-1.4195,-1.3296,-1.4943,-1.6769,-1.6263,-1.6606,-1.6677,-1.4907,-1.5147,-1.5193,-1.3359,-1.3554,-1.4127,-1.4413,-1.4455,-1.4832,-1.619,-1.6084,-1.6456,-1.8268,-1.747,-1.7144,0.0,0.0,0.0,0.0,0.0,0.0,0.0,0.0,0.0,0.0,0.0,-1.9376,-1.8757,-1.8743,-1.9753,-2.1887,-2.1489,-2.2509,-2.4735,-2.435,-2.3969,-2.3639,-2.3987,-2.4119,0.0,0.0,0.0,0.0,-2.4576,-2.4255,-2.2466,-2.4934,-2.5895,-2.5895,-2.5895,-2.5895,-2.5895,0.0,0.0,0.0,0.0,0.0,-1.4135,-1.3052,-1.3011,-1.2734,-1.1724,-1.246,-1.2723,-1.1789,-1.293,-1.3357,-1.2297,-1.2706,0.0,0.0,0.0,0.0,0.0,0.0,0.0,0.0,0.0,-1.1702,-1.1693,-1.2183,-1.262,-1.3024,-1.3533,-1.3708,-1.3581,0.0,0.0,0.0,0.0,-1.3129,0.0,0.0,0.0,0.0,0.0,0.0,0.0,0.0,0.0,0.0,0.0,0.0,0.0,0.0,-1.2207,-1.2215,-1.2807,-1.3451,-1.425,-1.5386,-1.629,-1.6908,-1.6908,-1.6318,-1.571,-1.5528,-1.5017,-1.4597,-1.4592,-1.4735,-1.4912,-1.5061,-1.496,-1.5308,-1.6673,-1.646,-1.6441,-1.7491,-1.7056,0.0,0.0,0.0,0.0,0.0,0.0,0.0,0.0,0.0,0.0,0.0,0.0,-1.9864,-1.8422,-1.9257,-2.0181,-2.1285,-2.2114,-2.3029,-2.4251,-2.4152,-2.3432,-2.2152,-2.3514,0.0,0.0,0.0,0.0,0.0,-2.515,-2.5033,-2.3853,-2.5327,-2.5895,-2.5895,-2.5895,-2.5895,-2.5895,0.0,0.0,0.0,0.0,0.0,0.0,-1.404,-1.395,-1.3575,-1.2608,-1.2843,-1.2633,-1.1408,-1.2348,-1.2754,-1.1992,-1.2637,0.0,0.0,0.0,0.0,0.0,0.0,0.0,0.0,-1.2107,-1.1858,-1.1485,-1.2248,-1.2549,-1.2459,-1.3382,-1.3708,-1.3514,-1.3547,-1.3344,0.0,-1.322,-1.3232,0.0,0.0,0.0,0.0,0.0,0.0,0.0,0.0,0.0,0.0,0.0,0.0,0.0,0.0,0.0,0.0,-1.2908,-1.3032,-1.3296,-1.3877,-1.464,-1.5274,-1.5322,-1.5619,-1.5669,-1.467,-1.49,-1.5108,-1.4471,-1.4477,-1.4785,-1.5344,-1.5101,-1.5378,-1.7117,-1.6886,-1.7309,0.0,0.0,0.0,0.0,0.0,0.0,0.0,0.0,0.0,0.0,0.0,0.0,0.0,0.0,0.0,-1.9561,-2.038,-2.1191,-2.2114,-2.2316,-2.3038,-2.4152,-2.4152,-2.3564,-2.2329,0.0,0.0,0.0,0.0,0.0,0.0,-2.5453,-2.5124,-2.3875,-2.5327,-2.5895,-2.5895,-2.5895,-2.5895,-2.5895,0.0,0.0,0.0,0.0,0.0,0.0,-1.4522,-1.4417,-1.4107,-1.3469,-1.3491,-1.3106,-1.1947,-1.2666,-1.2903,-1.2105,-1.274,0.0,0.0,0.0,0.0,0.0,0.0,0.0,-1.2363,-1.2266,-1.1881,-1.114,-1.2017,-1.2266,-1.2017,-1.2993,-1.3533,-1.3594,-1.3493,-1.3323,0.0,-1.3412,-1.3357,-1.3094,0.0,0.0,-1.3138,0.0,0.0,0.0,0.0,0.0,0.0,0.0,0.0,0.0,0.0,0.0,0.0,0.0,-1.3062,-1.295,-1.3593,-1.4355,-1.4945,-1.4697,-1.5121,-1.5314,-1.4255,-1.4679,-1.5197,-1.4844,-1.5412,-1.5973,-1.6036,-1.6089,-1.6266,-1.6669,-1.7294,-1.8114,0.0,0.0,0.0,0.0,0.0,0.0,0.0,0.0,0.0,0.0,0.0,0.0,0.0,0.0,0.0,-2.12,-2.1497,-2.2005,-2.2526,-2.2937,-2.3538,-2.4251,-2.4291,-2.3721,-2.247,0.0,0.0,0.0,0.0,0.0,0.0,-2.5864,-2.5606,-2.4719,-2.5546,-2.5895,-2.5895,-2.5895,-2.5895,-2.5895,0.0,0.0,0.0,0.0,0.0,0.0,0.0,-1.4439,-1.4356,-1.4237,-1.4273,-1.3972,-1.3148,-1.3684,-1.3679,-1.2574,-1.297,0.0,0.0,0.0,0.0,0.0,0.0,0.0,-1.2323,-1.2323,-1.1815,-1.0777,-1.1641,-1.192,-1.1666,-1.2505,-1.3229,-1.3789,-1.3408,-1.3353,-1.3547,-1.3648,-1.348,-1.3232,-1.3835,-1.3875,0.0,0.0,0.0,0.0,0.0,0.0,0.0,0.0,0.0,0.0,0.0,0.0,0.0,0.0,0.0,0.0,0.0,-1.5038,-1.5459,-1.4821,-1.4773,-1.4764,-1.4198,-1.4469,0.0,-1.5711,-1.7167,-1.8015,-1.7046,-1.7753,-1.78,-1.5734,-1.7634,-1.8737,0.0,0.0,0.0,0.0,0.0,0.0,0.0,0.0,0.0,0.0,0.0,0.0,0.0,0.0,0.0,0.0,-2.2685,-2.2601,-2.2627,-2.3619,-2.407,-2.3978,-2.4324,-2.3725,-2.2408,0.0,0.0,0.0,0.0,0.0,0.0,-2.6313,-2.624,-2.624,-2.5979,-2.5906,-2.5906,-2.5906,-2.5895,-2.5895,0.0,0.0,0.0,0.0,0.0,0.0,0.0,0.0,0.0,0.0,-1.4319,-1.4118,-1.3665,-1.3944,-1.3913,0.0,0.0,0.0,0.0,0.0,0.0,0.0,0.0,0.0,-1.2459,-1.2383,-1.2164,-1.1686,-1.2207,-1.2313,-1.206,-1.2636,-1.3244,-1.3855,-1.3656,-1.3772,-1.4092,-1.3815,-1.3769,-1.3868,-1.4,-1.3752,0.0,0.0,0.0,0.0,-1.2374,-1.2385,0.0,0.0,0.0,0.0,0.0,0.0,0.0,0.0,-1.3513,-1.4013,-1.3793,0.0,-1.3976,-1.3927,-1.4393,-1.4787,0.0,-1.4779,-1.5313,0.0,0.0,-1.7545,-1.7404,-1.8858,-1.9286,-1.6827,-1.785,-1.8623,0.0,0.0,0.0,0.0,0.0,0.0,0.0,0.0,0.0,0.0,0.0,0.0,0.0,0.0,0.0,0.0,-2.3108,-2.3251,-2.3845,-2.3555,-2.3035,-2.2126,-2.328,-2.2744,0.0,0.0,0.0,0.0,0.0,0.0,0.0,-2.6727,-2.6644,-2.6479,-2.6229,-2.6157,-2.6074,-2.599,-2.5895,-2.5895,0.0,0.0,0.0,0.0,0.0,0.0,0.0,0.0,0.0,0.0,-1.4356,-1.4237,-1.4042,-1.4141,-1.4016,0.0,0.0,0.0,0.0,0.0,0.0,0.0,0.0,-1.2538,-1.2642,-1.2538,-1.2246,-1.1785,-1.2402,-1.2544,-1.2312,-1.302,-1.3713,-1.4304,-1.4107,-1.4069,-1.4144,-1.4296,-1.4151,-1.3829,-1.4348,0.0,0.0,0.0,0.0,0.0,-1.2653,-1.2475,0.0,-1.1652,-1.1615,-1.1891,0.0,0.0,0.0,0.0,-1.2552,-1.2707,-1.2966,-1.3501,-1.4122,-1.4896,-1.4741,-1.4658,-1.5639,-1.5116,-1.5126,0.0,0.0,-1.7582,-1.829,-1.9014,-1.9033,-1.7589,-1.7666,0.0,0.0,0.0,0.0,0.0,0.0,0.0,0.0,0.0,0.0,0.0,0.0,0.0,0.0,0.0,0.0,0.0,0.0,-2.2892,-2.3302,-2.2892,-2.2285,-2.1377,-2.3071,-2.3036,0.0,0.0,0.0,0.0,0.0,0.0,-2.6846,-2.5994,-2.6118,-2.6727,-2.6479,-2.6396,-2.6396,-2.6146,-2.6074,-2.599,0.0,0.0,0.0,0.0,0.0,0.0,0.0,0.0,0.0,0.0,0.0,0.0,0.0,0.0,0.0,0.0,0.0,0.0,0.0,0.0,0.0,0.0,-1.2577,-1.2604,-1.2818,-1.2581,-1.2135,-1.1518,-1.2199,-1.2425,-1.222,-1.3252,-1.4126,-1.4777,-1.4564,-1.4342,-1.4232,-1.4886,-1.4572,-1.3755,-1.4668,0.0,0.0,0.0,0.0,0.0,0.0,0.0,0.0,-1.1988,-1.1967,-1.1978,-1.2111,0.0,0.0,0.0,0.0,0.0,-1.2082,-1.3287,-1.4653,-1.6443,-1.543,-1.4552,-1.6694,-1.5461,-1.4792,0.0,0.0,-1.81,-1.9305,-1.9537,0.0,0.0,0.0,0.0,0.0,0.0,0.0,0.0,0.0,0.0,0.0,0.0,0.0,0.0,0.0,0.0,0.0,0.0,0.0,0.0,0.0,0.0,-2.2084,-2.2241,-2.1861,-2.1216,-2.3174,-2.3776,-2.308,0.0,0.0,0.0,0.0,0.0,-2.6719,-2.5206,-2.543,-2.6809,-2.6644,-2.6561,-2.6561,-2.6324,-2.624,-2.6157,0.0,0.0,0.0,0.0,0.0,0.0,0.0,0.0,0.0,0.0,0.0,0.0,0.0,0.0,0.0,0.0,0.0,0.0,0.0,0.0,0.0,-1.3018,-1.2797,-1.2776,-1.2961,-1.2157,-1.1695,-1.1583,-1.1427,-1.1342,-1.1333,-1.2509,-1.3634,-1.4711,-1.4722,-1.499,-1.5404,-1.5081,-1.4932,-1.4901,-1.4454,0.0,0.0,0.0,0.0,0.0,0.0,0.0,0.0,-1.2769,-1.2878,-1.2938,-1.2256,0.0,0.0,0.0,0.0,0.0,-1.1698,-1.2195,-1.3474,-1.6864,-1.6013,-1.5046,-1.782,-1.5997,-1.4959,-1.9286,0.0,0.0,0.0,-2.3082,-2.3721,0.0,0.0,0.0,0.0,0.0,0.0,0.0,0.0,0.0,0.0,0.0,0.0,0.0,0.0,0.0,0.0,0.0,0.0,0.0,0.0,0.0,0.0,-2.2336,-2.2082,-2.1034,-2.3318,-2.3888,-2.2919,-2.5016,0.0,0.0,0.0,0.0,-2.6622,-2.6315,-2.6442,-2.6644,-2.6396,-2.6396,-2.6561,-2.6324,-2.624,-2.6157,0.0,0.0,0.0,0.0,0.0,0.0,0.0,0.0,0.0,0.0,0.0,0.0,0.0,0.0,0.0,0.0,0.0,0.0,0.0,0.0,-1.3059,-1.2754,-1.2889,-1.3034,-1.3208,-1.2254,-1.1758,-1.1759,-1.1803,-1.1741,-1.1672,-1.2833,-1.371,-1.4322,-1.424,-1.439,-1.4724,-1.4613,-1.4424,-1.4226,0.0,0.0,0.0,0.0,0.0,0.0,0.0,0.0,0.0,0.0,-1.2523,-1.2456,-1.1657,0.0,0.0,0.0,0.0,0.0,-1.0396,-1.0911,-1.2493,-1.7378,-1.5829,-1.4569,-2.0174,-1.6957,-1.4525,0.0,0.0,0.0,0.0,0.0,0.0,0.0,0.0,0.0,0.0,0.0,0.0,0.0,0.0,0.0,0.0,0.0,0.0,0.0,0.0,0.0,0.0,0.0,0.0,0.0,0.0,0.0,0.0,-2.331,-2.2926,-2.1646,-2.3604,-2.4033,-2.3214,-2.5066,-2.599,0.0,0.0,-2.5337,-2.634,-2.5447,-2.5661,-2.6561,-2.6479,-2.6561,-2.6727,-2.6644,-2.6396,-2.6157,0.0,0.0,0.0,0.0,0.0,0.0,0.0,0.0,0.0,0.0,0.0,0.0,0.0,0.0,0.0,0.0,0.0,0.0,0.0,-1.3603,-1.3236,-1.2749,-1.2904,-1.2958,-1.292,-1.2106,-1.1612,-1.146,-1.1793,-1.2109,-1.242,-1.3153,-1.3691,-1.4053,-1.3773,-1.3797,-1.4017,-1.4124,-1.3901,-1.35,0.0,0.0,0.0,0.0,0.0,0.0,0.0,0.0,0.0,0.0,0.0,0.0,0.0,0.0,0.0,-0.9747,-0.9191,-0.8747,-0.9485,-1.0158,-1.1873,-1.7055,-1.5253,-1.4234,-2.2052,-1.7744,-1.4227,0.0,0.0,0.0,0.0,0.0,0.0,0.0,0.0,0.0,0.0,0.0,0.0,0.0,0.0,0.0,0.0,0.0,0.0,0.0,0.0,0.0,0.0,0.0,0.0,0.0,0.0,0.0,0.0,-2.4145,-2.3876,-2.2685,-2.4159,-2.4543,-2.41,-2.53,-2.5895,-2.5841,-2.4636,-2.4858,-2.6058,-2.4774,-2.5121,-2.6479,-2.6479,-2.6561,-2.6809,-2.6891,-2.6644,-2.6324,0.0,0.0,0.0,0.0,0.0,0.0,0.0,0.0,0.0,0.0,0.0,0.0,0.0,0.0,0.0,0.0,0.0,0.0,0.0,-1.3931,-1.3815,-1.3691,-1.2841,-1.2069,-1.1459,-1.1208,-1.0751,-1.014,-1.0472,-1.1542,-1.3292,-1.2754,-1.3128,-1.4264,-1.3747,-1.3832,-1.4335,-1.3982,-1.3801,-1.3725,-1.3129,0.0,0.0,0.0,0.0,0.0,0.0,0.0,0.0,0.0,0.0,0.0,0.0,0.0,-1.0192,-0.9462,-0.9189,-0.9261,-0.9822,-1.0496,-1.1823,-1.4994,-1.4237,-1.4694,-2.2169,-1.7946,0.0,-2.1817,0.0,0.0,0.0,0.0,0.0,0.0,0.0,0.0,0.0,0.0,0.0,0.0,0.0,0.0,0.0,0.0,0.0,0.0,0.0,0.0,0.0,0.0,0.0,0.0,0.0,0.0,0.0,0.0,-2.4447,-2.4343,-2.5326,-2.5757,-2.5742,-2.5852,-2.5895,-2.5895,-2.5786,-2.5808,-2.5895,-2.5786,-2.5808,-2.5979,-2.5979,-2.6229,-2.6644,-2.6809,-2.6891,-2.6809,0.0,0.0,0.0,0.0,0.0,0.0,0.0,0.0,0.0,0.0,0.0,-1.4989,-1.4952,0.0,0.0,0.0,0.0,0.0,0.0,-1.4078,-1.3754,-1.3138,-1.3235,-1.2509,-1.0837,-1.0514,-1.0481,-1.069,-1.1103,-1.19,-1.3015,-1.2637,-1.2856,-1.354,-1.3203,-1.3352,-1.3809,-1.3503,-1.3406,-1.3468,-1.3115,-1.3175,0.0,0.0,0.0,0.0,0.0,0.0,0.0,0.0,-1.1017,-1.0616,-0.9876,-0.9713,-0.9731,-0.9457,-0.935,-0.9339,-0.9422,-1.0245,-1.2186,-1.6742,-1.5352,0.0,0.0,-1.9369,-1.7186,-2.493,-2.166,0.0,0.0,0.0,0.0,0.0,0.0,0.0,0.0,0.0,0.0,0.0,0.0,0.0,0.0,0.0,0.0,0.0,0.0,0.0,0.0,0.0,0.0,0.0,0.0,0.0,0.0,0.0,-2.5387,-2.5096,-2.567,-2.5895,-2.5895,-2.5895,-2.5732,-2.5459,-2.5764,-2.5568,-2.5043,-2.5327,-2.5284,-2.5135,-2.5817,-2.6102,-2.6217,-2.7,-2.7126,-2.6891,0.0,0.0,0.0,0.0,0.0,0.0,0.0,0.0,-1.522,0.0,0.0,0.0,0.0,-1.4952,0.0,0.0,0.0,0.0,-1.4313,-1.4185,-1.3846,-1.3174,-1.3151,-1.2402,-1.083,-1.0094,-1.0137,-1.0912,-1.1707,-1.2406,-1.3054,-1.2893,-1.2947,-1.3193,-1.3035,-1.3105,-1.3363,-1.3173,-1.3138,-1.3176,-1.3106,-1.3244,0.0,0.0,0.0,0.0,0.0,0.0,0.0,0.0,-1.0134,-0.9832,-0.9372,-0.9339,-0.9474,-0.954,-0.9489,-0.935,-0.9136,-0.995,-1.196,-1.6673,0.0,0.0,-2.2802,-2.0492,-1.8619,-2.5636,-2.3102,0.0,0.0,0.0,0.0,0.0,0.0,0.0,0.0,0.0,0.0,0.0,0.0,0.0,0.0,0.0,0.0,0.0,0.0,0.0,0.0,0.0,0.0,0.0,0.0,0.0,0.0,0.0,-2.5998,-2.5732,-2.5898,-2.5826,-2.5459,-2.5611,-2.5404,-2.4978,-2.5317,-2.5087,-2.4519,-2.4836,-2.477,-2.4598,-2.5464,-2.5768,-2.5786,-2.6679,-2.6907,-2.6891,0.0,0.0,0.0,0.0,0.0,0.0,0.0,0.0,-1.5269,-1.521,-1.5207,0.0,0.0,0.0,0.0,0.0,0.0,0.0,-1.4515,-1.432,-1.4175,-1.4092,-1.2441,-1.1476,-1.1381,-0.9956,-0.9643,-1.0511,-1.1975,-1.3011,-1.3605,-1.3523,-1.3476,-1.3396,-1.3363,-1.3243,-1.3102,-1.3135,-1.3048,-1.2908,-1.3049,-1.3173,-1.3312,0.0,0.0,0.0,0.0,0.0,0.0,0.0,-0.9758,-0.9123,-0.9265,-0.9429,-0.9612,-0.9725,-0.9586,-0.9358,-0.9109,-0.9669,-1.1024,-1.3974,0.0,0.0,-2.3518,-2.1068,-1.8263,-2.294,0.0,-2.6468,-2.384,0.0,0.0,0.0,0.0,0.0,0.0,0.0,0.0,0.0,0.0,0.0,0.0,0.0,0.0,0.0,0.0,0.0,0.0,0.0,0.0,0.0,0.0,0.0,0.0,0.0,-2.6029,-2.6207,-2.6244,-2.569,-2.4519,-2.4967,-2.4923,-2.4486,-2.4497,-2.4486,-2.4476,-2.4476,-2.4476,-2.4476,-2.469,-2.5057,-2.5499,-2.5742,-2.631,-2.6903,0.0,0.0,0.0,0.0,0.0,0.0,0.0,0.0,-1.5209,-1.5133,-1.5165,0.0,0.0,0.0,0.0,0.0,0.0,0.0,-1.4637,-1.4585,-1.4217,-1.3419,-1.2872,-1.1991,-1.0782,-1.0352,-1.0515,-1.135,-1.2157,-1.2965,-1.3731,-1.362,-1.3572,-1.369,-1.5314,-1.5159,-1.376,-1.5224,-1.4931,-1.346,-1.3362,-1.3073,-1.2751,0.0,0.0,0.0,0.0,0.0,0.0,0.0,0.0,0.0,-0.9349,-0.9506,-1.01,-1.229,-1.1388,-1.009,-1.1943,-1.1814,0.0,-1.4968,0.0,0.0,0.0,-2.0224,0.0,0.0,-2.4572,-2.3926,0.0,0.0,0.0,0.0,0.0,0.0,0.0,0.0,0.0,0.0,0.0,0.0,0.0,0.0,0.0,0.0,0.0,0.0,0.0,0.0,0.0,0.0,0.0,0.0,0.0,0.0,0.0,-2.6467,-2.682,-2.6477,-2.548,-2.5622,-2.5251,-2.4508,-2.4836,-2.4388,-2.3438,-2.3438,-2.3438,-2.3579,-2.4957,-2.5462,-2.5588,-2.6954,-2.7394,-2.7417,0.0,0.0,0.0,0.0,0.0,0.0,-1.5146,-1.5153,-1.5159,-1.514,-1.5153,-1.5171,0.0,0.0,0.0,-1.5059,-1.4976,0.0,-1.4717,-1.436,-1.384,-1.3141,-1.2428,-1.1406,-1.0047,-1.0047,-1.0578,-1.1653,-1.2327,-1.3092,-1.388,-1.3774,-1.3759,-1.3873,-1.5259,-1.5103,-1.385,-1.5159,-1.4693,-1.3079,-1.2969,-1.2511,-1.1921,0.0,0.0,0.0,0.0,0.0,0.0,0.0,0.0,0.0,-0.9403,-1.0404,-1.1644,-1.2248,-1.1719,-1.1322,-1.3183,-1.3,0.0,-1.8121,-1.8425,-1.7941,-1.9371,0.0,0.0,0.0,0.0,0.0,0.0,0.0,0.0,0.0,0.0,0.0,0.0,0.0,0.0,0.0,0.0,0.0,0.0,0.0,0.0,0.0,0.0,0.0,0.0,0.0,0.0,0.0,0.0,0.0,0.0,0.0,0.0,0.0,-2.7284,-2.7046,-2.6325,-2.5945,-2.5383,-2.467,-2.4853,-2.429,-2.3307,-2.3644,-2.3687,-2.3738,-2.523,-2.5819,-2.597,-2.7079,-2.7509,-2.7592,0.0,0.0,-1.519,-1.5183,0.0,0.0,-1.5184,-1.514,-1.5114,-1.5184,-1.514,-1.512,0.0,0.0,0.0,-1.5004,-1.4898,-1.4803,-1.4718,-1.3857,-1.3227,-1.3025,-1.1388,-1.0105,-0.9318,-0.9346,-1.0097,-1.157,-1.2388,-1.3196,-1.3995,-1.3934,-1.3938,-1.4002,-1.4173,-1.3983,-1.3534,-1.3804,-1.3198,-1.21,-1.2098,-1.1599,-1.0903,-1.097,0.0,0.0,0.0,0.0,0.0,0.0,0.0,0.0,-0.9439,-1.1505,-1.3364,-1.0776,-1.1298,-1.2889,-1.3657,-1.3749,-1.5197,-2.164,-2.0094,0.0,-2.1849,-2.181,-2.2342,-2.718,0.0,0.0,0.0,0.0,0.0,0.0,0.0,0.0,0.0,0.0,0.0,0.0,0.0,0.0,0.0,0.0,0.0,0.0,0.0,0.0,0.0,0.0,0.0,0.0,0.0,0.0,0.0,0.0,0.0,0.0,0.0,-2.7523,-2.7066,-2.6136,-2.547,-2.501,-2.467,-2.4237,-2.3919,-2.4715,-2.4857,-2.4604,-2.5543,-2.6182,-2.6551,-2.6655,-2.7059,-2.7673,0.0,0.0,-1.5113,-1.5113,0.0,0.0,-1.5113,-1.5106,-1.5106,-1.5113,-1.512,-1.5101,-1.512,-1.5113,0.0,-1.5088,-1.5054,-1.497,-1.4854,-1.403,-1.3168,-1.2352,-1.061,-0.9525,-0.9231,-0.9229,-0.993,-1.136,-1.1661,-1.2521,-1.3915,-1.3966,-1.3963,-1.4008,-1.6056,-1.5427,-1.2927,-1.4673,-1.3834,-1.1335,-1.1219,-1.0756,-1.0142,-1.0159,-0.9706,0.0,0.0,0.0,0.0,0.0,0.0,0.0,-0.9483,-1.0015,-1.0947,-1.2698,-1.3444,-1.4232,-1.6657,-1.6482,0.0,-1.724,-1.7748,-1.9745,-2.6708,-2.5957,-2.4798,0.0,0.0,0.0,0.0,0.0,0.0,0.0,0.0,0.0,0.0,0.0,0.0,0.0,0.0,0.0,0.0,0.0,0.0,0.0,0.0,0.0,0.0,0.0,0.0,0.0,0.0,0.0,0.0,0.0,0.0,0.0,-2.8133,-2.808,-2.7848,-2.7053,-2.6327,-2.5704,-2.5102,-2.4725,-2.4657,-2.4947,-2.5142,-2.5257,-2.6375,-2.7014,-2.7279,-2.7849,-2.8084,-2.817,0.0,0.0,0.0,0.0,0.0,0.0,0.0,0.0,-1.5059,-1.5101,-1.5106,-1.5099,-1.5101,-1.5088,0.0,0.0,-1.5095,-1.4875,-1.4311,-1.3467,-1.2325,-1.0867,-0.987,-0.9292,-0.9161,-0.9251,-0.9978,-1.1347,-1.1491,-1.2375,-1.3941,-1.3949,-1.3945,-1.4016,-1.5469,-1.4763,-1.2534,-1.3787,-1.2835,-1.0477,-1.0436,-0.9998,-0.9366,-0.9371,-0.92,-0.893,-0.8829,0.0,0.0,0.0,0.0,0.0,0.0,0.0,-1.1772,-1.1909,-1.2645,-1.3722,-1.5139,-1.6341,0.0,-2.0171,0.0,-2.516,-2.8115,-2.7538,-2.6895,0.0,0.0,0.0,0.0,0.0,0.0,0.0,0.0,0.0,0.0,0.0,0.0,0.0,0.0,0.0,0.0,0.0,0.0,0.0,0.0,0.0,0.0,0.0,0.0,0.0,0.0,0.0,-2.8587,-2.8587,-2.8522,-2.843,-2.843,-2.8392,-2.8302,-2.7538,-2.7029,-2.67,-2.6071,-2.557,-2.5314,-2.5985,-2.6186,-2.6088,-2.7285,-2.7819,-2.7936,-2.8373,-2.8419,-2.8491,0.0,0.0,0.0,0.0,0.0,0.0,0.0,0.0,0.0,-1.5082,-1.5099,-1.5092,-1.5088,-1.5089,-1.5101,0.0,0.0,0.0,-1.3664,-1.264,-1.1275,-0.951,-0.9376,-0.9274,-0.9161,-0.9454,-1.0178,-1.1391,-1.1644,-1.275,-1.4609,-1.4574,-1.4591,-1.467,-1.4882,-1.3935,-1.2187,-1.2379,-1.1343,-0.9629,-0.9706,-0.9386,-0.8841,-0.8852,-0.8957,-0.9088,-0.8974,-0.906,-0.9224,-0.9274,0.0,0.0,0.0,0.0,-1.2768,-1.0247,-1.1169,-1.2966,-1.2742,-1.5592,-1.9836,-2.489,-2.7935,0.0,-2.8112,-2.7784,0.0,0.0,0.0,0.0,0.0,0.0,0.0,0.0,0.0,0.0,0.0,0.0,0.0,0.0,0.0,0.0,0.0,0.0,0.0,0.0,0.0,0.0,0.0,0.0,0.0,0.0,0.0,0.0,-2.8766,-2.8651,-2.8587,-2.8587,-2.8651,-2.8716,-2.8729,-2.8048,-2.7717,-2.761,-2.7164,-2.6692,-2.623,-2.744,-2.7591,-2.7328,-2.8427,-2.89,-2.8983,-2.8779,-2.8736,-2.8797,0.0,0.0,0.0,0.0,0.0,0.0,0.0,0.0,0.0,0.0,-1.5057,-1.5078,-1.5008,-1.5068,-1.5101,-1.5099,-1.4358,-1.3814,-1.3618,0.0,0.0,-0.9617,-0.9507,-0.9439,-0.9366,-1.0073,-1.0723,-1.1311,-1.2091,-1.4029,-1.7025,-1.7139,-1.7223,-1.7295,-1.7556,-1.5451,-1.1704,-1.1777,-1.0697,-0.8947,-0.9072,-0.906,-0.899,-0.9039,-0.9071,-0.9099,-0.9088,-0.9174,-0.9284,-0.9218,-0.9339,0.0,0.0,0.0,-0.9882,-0.9583,-1.1571,-1.3832,-1.3796,0.0,-2.1201,0.0,-2.5045,-2.4948,0.0,0.0,0.0,0.0,0.0,0.0,0.0,0.0,0.0,0.0,0.0,0.0,0.0,0.0,0.0,0.0,0.0,0.0,0.0,0.0,0.0,0.0,0.0,0.0,0.0,0.0,0.0,0.0,0.0,0.0,-2.9393,-2.8881,-2.8587,-2.8587,-2.8908,-2.9162,-2.9491,-2.9204,-2.8746,-2.8199,-2.8066,-2.8126,-2.8409,-2.8883,-2.9468,-3.0032,-3.0423,-3.0668,-3.0724,-2.9897,-2.9561,-2.9419,0.0,0.0,0.0,0.0,0.0,0.0,0.0,0.0,0.0,0.0,0.0,-1.5019,-1.5049,-1.5052,-1.504,-1.5038,-1.422,-1.3236,-1.2165,-1.0854,-0.995,-0.9559,-0.9483,-0.9412,-0.9348,-1.0209,-1.0891,-1.1356,-1.2301,-1.5092,-1.9592,-1.9668,-1.9003,-1.7815,-1.937,-1.6881,-1.1633,-1.3019,-1.1816,-0.8973,-0.9036,-0.9015,-0.8962,-0.9102,-0.9113,-0.9036,-0.9081,-0.9204,-0.9348,-0.9282,-0.932,-0.9385,-0.9366,0.0,0.0,0.0,-1.0457,-1.2338,-1.6121,-1.7239,-1.9152,0.0,-2.5732,-2.4373,-2.9678,0.0,0.0,0.0,0.0,0.0,0.0,0.0,0.0,0.0,0.0,0.0,0.0,0.0,0.0,0.0,0.0,0.0,0.0,0.0,0.0,0.0,0.0,0.0,0.0,-3.0645,-3.0763,-3.0719,-3.0466,0.0,-3.0271,-3.0043,-2.9766,-2.9546,-2.9651,-2.9665,-2.9713,-2.9822,-2.956,-2.9022,-2.8673,-2.849,-2.8477,-2.889,-2.936,-2.9861,-3.0233,-3.0671,-3.0983,-3.0504,-3.0075,-2.9626,0.0,0.0,0.0,0.0,0.0,0.0,0.0,0.0,0.0,0.0,0.0,-1.4987,-1.5042,0.0,0.0,0.0,-1.3823,-1.2515,-1.0633,-0.9851,-0.9439,-0.9439,-0.9366,-0.9407,-0.9604,-1.0466,-1.1174,-1.1655,-1.2684,-1.5584,-2.0192,-2.0704,-2.0099,-1.8662,-2.0427,-1.8264,-1.3415,-1.4677,-1.3321,-1.0325,-1.0329,-0.978,-0.8956,-0.9075,-0.9054,-0.8983,-0.931,-0.9389,-0.9356,-0.9568,-0.948,-0.9312,-0.9365,-0.93,0.0,0.0,0.0,-1.0904,-1.6634,0.0,-1.7005,-2.5781,-2.4739,-2.2952,0.0,0.0,0.0,0.0,0.0,0.0,0.0,0.0,0.0,0.0,0.0,0.0,0.0,0.0,0.0,0.0,0.0,0.0,0.0,0.0,0.0,0.0,0.0,0.0,-3.0949,-3.1093,-3.1135,-3.115,-3.0815,-3.0743,-3.0979,-3.0997,-3.0852,-3.0435,-3.0418,-3.019,-2.9884,-3.019,-3.0144,-2.9727,-2.9247,-2.8923,-2.8784,-2.9094,-2.9478,-2.9941,-3.0413,-3.089,-3.1303,-3.1214,-3.067,-2.9999,0.0,0.0,0.0,0.0,0.0,0.0,0.0,0.0,0.0,0.0,0.0,-1.5046,-1.4923,-1.4952,-1.463,-1.3652,-1.2786,-1.1477,-0.9601,-0.9376,-0.9312,-0.9321,-0.9179,0.0,-1.0426,-1.1181,-1.1802,-1.2353,-1.3426,-1.5127,-1.7443,-1.9116,-2.0283,-2.099,-2.0553,-1.9597,-1.82,-1.6286,-1.4777,-1.3666,-1.372,-1.1878,-0.9068,-0.8957,-0.8863,-0.8948,-0.9976,-0.9799,-0.9261,-1.0209,-0.998,-0.9303,-0.9301,-0.9263,-0.9237,0.0,0.0,0.0,-1.3551,-1.477,0.0,-2.0025,-1.9282,0.0,0.0,0.0,0.0,0.0,0.0,0.0,0.0,0.0,0.0,0.0,0.0,0.0,0.0,0.0,0.0,0.0,0.0,0.0,0.0,0.0,0.0,0.0,0.0,0.0,-3.1128,-3.1626,-3.1904,-3.1762,-3.0502,-3.0243,-3.1058,-3.1313,-3.12,-3.0675,-3.0984,-3.0748,-3.0111,-3.0462,-3.0447,-3.0251,-2.987,-2.9989,-3.0387,-3.0387,-3.0793,-3.145,-3.2024,-3.2275,-3.2305,-3.2099,-3.1563,-3.0745,0.0,0.0,0.0,0.0,0.0,0.0,0.0,0.0,0.0,0.0,0.0,0.0,0.0,-1.4261,-1.3756,-1.3336,-1.1927,-1.0516,-0.9288,-0.9099,-0.9293,-0.9861,-0.9744,-1.0128,-1.1112,-1.182,-1.2248,-1.2395,-1.326,-1.4881,-1.7216,-1.7834,-1.8958,-2.0541,-2.34,-2.1624,-1.6699,-1.947,-1.6912,-1.137,-1.5455,-1.3771,-0.9134,-1.1788,-1.2588,-1.2153,0.0,0.0,-1.331,-1.186,-1.0795,-1.0082,-1.0115,-0.9738,-0.9321,-0.9614,-0.9713,-1.0508,-1.3998,-1.3678,0.0,-1.9946,-1.7923,-1.5851,0.0,0.0,0.0,0.0,0.0,0.0,0.0,0.0,0.0,0.0,0.0,0.0,0.0,0.0,0.0,0.0,0.0,0.0,0.0,0.0,0.0,0.0,0.0,0.0,-3.1107,-3.075,-3.107,-3.2355,-3.2495,-3.2701,-3.3006,-3.2814,-3.2439,-3.1931,-3.1762,-3.1349,-3.0717,-3.0702,-3.0702,-3.0568,-3.0251,-3.015,-3.0253,-3.01,-3.0418,-3.109,-3.1185,-3.1443,-3.1893,-3.2208,-3.1744,-3.1055,0.0,0.0,0.0,-1.4129,0.0,-1.3902,-1.422,-1.4306,-1.4409,-1.4612,0.0,0.0,0.0,0.0,-1.2694,-1.259,-1.1174,-1.0134,-0.9864,-0.9737,-0.994,-1.0509,-1.0399,-1.0794,-1.175,-1.2195,-1.2502,-1.2633,-1.3224,-1.4332,-1.5903,-1.6514,-1.7626,-1.9286,-2.3017,-2.22,-1.8253,-2.1664,-1.9627,-1.4403,-1.747,-1.5957,-1.2082,-1.3972,-1.4481,0.0,0.0,0.0,0.0,-1.5041,-1.3623,-1.2121,-1.2191,-1.1118,-0.9825,-0.9736,-0.9713,-1.0283,-1.2808,-1.1971,0.0,0.0,0.0,-1.3758,0.0,0.0,0.0,0.0,0.0,0.0,0.0,0.0,0.0,0.0,0.0,0.0,0.0,0.0,0.0,0.0,0.0,0.0,0.0,0.0,0.0,0.0,0.0,0.0,-3.0862,-3.0334,-3.0617,-3.2015,-3.2918,-3.3551,-3.3893,-3.3889,-3.3563,-3.2986,-3.2703,-3.2114,-3.1379,-3.1204,-3.1102,-3.0895,-3.0568,-3.0456,-3.0473,-2.9969,-3.0205,-3.0786,-3.0658,-3.0847,-3.1246,-3.1931,-3.1764,-3.1175,-1.3168,-1.3138,-1.3109,-1.3179,-1.2655,-1.2502,-1.3296,-1.3419,-1.3669,-1.4357,0.0,0.0,0.0,0.0,0.0,-1.1349,-1.0514,-1.0357,-1.1212,-1.1216,-1.1195,-1.1211,-1.1081,-1.1433,-1.2311,-1.2311,-1.2571,-1.3104,-1.3362,-1.3413,-1.3329,-1.5106,-1.6412,-1.7364,-1.9066,-2.1075,-2.3158,-2.2602,-2.266,-2.287,-1.9949,-1.8465,-1.7737,-1.5325,0.0,0.0,-1.8731,-1.7992,0.0,-1.9621,-1.8447,-1.5347,-1.531,-1.3284,-1.0745,-0.9812,-0.9687,-0.9815,0.0,0.0,0.0,0.0,0.0,0.0,0.0,0.0,0.0,0.0,0.0,0.0,0.0,0.0,0.0,0.0,0.0,0.0,0.0,0.0,0.0,0.0,0.0,0.0,0.0,0.0,0.0,0.0,0.0,-3.043,-3.0494,-3.051,-3.0589,-3.0838,-3.1623,-3.2492,-3.351,-3.4264,-3.4382,-3.3786,-3.3786,-3.3151,-3.1946,-3.1946,-3.1637,-3.1132,-3.0881,-3.102,-3.1262,-3.0216,-3.0191,-3.0758,-3.0758,-3.063,-3.0572,-3.1387,-3.1497,-3.1221,-1.307,-1.2968,-1.2993,-1.3111,-1.2968,-1.3095,-1.3811,-1.3902,-1.3678,0.0,0.0,0.0,-1.2519,-1.1929,-1.1135,-1.0185,-1.0051,-1.0212,-1.0695,-1.0837,-1.1162,-1.174,-1.1597,-1.1959,-1.2925,-1.2822,-1.2833,-1.3015,-1.3051,-1.314,-1.3312,-1.3871,-1.4397,-1.4965,-1.7135,-1.8124,-1.8442,-2.2432,-2.0217,-1.4674,-2.2268,-2.0402,0.0,0.0,0.0,0.0,0.0,-2.1182,-2.0549,0.0,-1.952,-1.6304,-1.37,-1.2324,-1.1535,-1.0742,-1.0521,-1.0402,-0.9858,0.0,0.0,0.0,0.0,0.0,0.0,-1.7231,0.0,0.0,0.0,0.0,0.0,0.0,0.0,0.0,0.0,0.0,0.0,0.0,0.0,0.0,0.0,0.0,0.0,0.0,0.0,0.0,0.0,-2.8201,-2.971,-3.0438,-3.1137,-3.1936,-3.2177,-3.2695,-3.3541,-3.3801,-3.3956,-3.4018,-3.4018,-3.3578,-3.281,-3.2281,-3.1962,-3.1823,-3.1219,-3.1262,-3.1544,-3.0585,-3.0305,-3.0401,-3.0306,-3.0244,-3.0316,-3.0941,-3.114,-3.0998,-1.2648,-1.2544,-1.254,-1.2595,-1.2116,-1.1952,-1.2612,-1.2437,-1.2226,0.0,0.0,0.0,-1.1131,-1.1164,-1.093,-1.0241,-1.0575,-1.1059,-1.1564,-1.1613,-1.1842,-1.2303,-1.2142,-1.232,-1.2891,-1.2832,-1.2776,-1.2792,-1.2832,-1.298,-1.321,-1.3312,-1.3543,-1.3918,-1.5322,-1.5497,-1.5086,-1.9825,-1.954,0.0,-2.2048,0.0,0.0,-2.2952,-2.2638,0.0,0.0,0.0,-2.4144,-2.5212,-2.2783,0.0,0.0,0.0,-1.2695,-1.3278,-1.2446,-1.125,-1.0824,-1.0593,-1.0838,0.0,0.0,0.0,-1.4011,-1.7555,0.0,0.0,0.0,0.0,0.0,0.0,0.0,0.0,0.0,0.0,0.0,0.0,0.0,0.0,0.0,0.0,0.0,0.0,0.0,0.0,-2.8592,-2.8514,-2.975,-3.0275,-3.0961,-3.1892,-3.188,-3.2269,-3.3113,-3.3456,-3.3707,-3.3893,-3.4252,-3.4118,-3.3578,-3.3108,-3.268,-3.2201,-3.1709,-3.1544,-3.1529,-3.0908,-3.0681,-3.0701,-3.0319,-3.0172,-3.0154,-3.0573,-3.0811,-3.097,0.0,-1.2022,-1.194,-1.1777,-1.0725,-1.0085,-1.0683,-1.0225,-1.0291,0.0,-1.1059,-1.0287,-0.9629,-1.039,-1.1,-1.1072,-1.1625,-1.2273,-1.2998,-1.2852,-1.2762,-1.2776,-1.2585,-1.2487,-1.2487,-1.2514,-1.2546,-1.2514,-1.2697,-1.2889,-1.3107,-1.3244,-1.3462,-1.3763,-1.3873,-1.3475,-1.297,-1.6002,0.0,-2.2531,-2.0665,-2.2778,0.0,0.0,-2.4647,-2.4763,-2.8629,-2.8371,-2.6561,-2.9094,-2.6695,0.0,0.0,0.0,0.0,0.0,-1.4519,-1.2197,-1.2123,-1.2004,-1.209,0.0,0.0,0.0,-1.4018,-1.8359,-2.2254,0.0,0.0,0.0,0.0,0.0,0.0,0.0,0.0,0.0,0.0,0.0,0.0,0.0,0.0,0.0,0.0,0.0,0.0,-3.0017,-3.0146,-3.0189,-3.0231,-3.0103,-3.0397,-3.1183,-3.1127,-3.1471,-3.2344,-3.2998,-3.3439,-3.365,-3.4405,-3.456,-3.4201,-3.4151,-3.3559,-3.2547,-3.2256,-3.1807,-3.1336,-3.119,-3.1172,-3.1209,-3.0618,-3.0266,-3.0172,-3.0266,-3.0625,-3.094,-1.1975,-1.1877,-1.1695,-1.0975,-1.0631,-1.0454,-1.0478,-1.0946,-1.1091,-1.0538,-1.1041,-1.1221,-1.0595,-1.1418,-1.1885,-1.1597,-1.1679,-1.2001,-1.2581,-1.2521,-1.2537,-1.263,-1.2506,-1.2423,-1.2423,-1.2327,-1.2347,-1.2514,-1.2604,-1.2818,-1.3176,-1.3261,-1.3379,-1.3577,-1.3813,-1.3401,-1.2655,-1.4122,0.0,-1.8003,-2.1639,0.0,-2.3336,-2.6788,-2.583,-2.3384,-2.8938,-2.9079,-2.6636,0.0,-2.6355,-2.4626,0.0,0.0,0.0,0.0,0.0,0.0,0.0,0.0,0.0,0.0,0.0,0.0,-1.4095,-1.5162,-1.6645,0.0,0.0,0.0,0.0,0.0,0.0,0.0,0.0,0.0,0.0,0.0,0.0,0.0,0.0,0.0,0.0,0.0,-3.0333,-3.0146,-3.0189,-3.0248,-3.0375,-3.0401,-3.0467,-3.0641,-3.0742,-3.1132,-3.1921,-3.1863,-3.2524,-3.3931,-3.4001,-3.4319,-3.4899,-3.4513,-3.3969,-3.3339,-3.2734,-3.2104,-3.1437,-3.1351,-3.1132,-3.0877,-3.0746,-3.0642,-3.0522,-3.0507,-3.0594,-3.0696,-1.218,-1.2082,-1.1769,-1.0896,-1.077,-1.0643,-1.0166,-1.0515,-1.0784,-1.0698,-1.151,-1.1831,-1.1172,-1.1909,-1.2221,-1.1656,-1.1875,-1.2154,-1.242,-1.2256,-1.2215,-1.2332,-1.2128,-1.2039,-1.2102,-1.2003,-1.206,-1.2257,-1.2287,-1.2475,-1.2804,-1.2911,-1.2837,-1.2623,-1.3274,-1.3171,-1.2606,-1.3549,-1.5169,-1.7429,-2.1231,0.0,-2.3794,-2.7981,-2.8146,-2.659,-2.9914,-3.001,-2.8322,-2.6774,-2.6089,0.0,0.0,-2.0373,-1.7797,0.0,-1.5212,-1.3808,0.0,0.0,0.0,-1.3636,0.0,0.0,0.0,-1.5361,-1.6878,0.0,0.0,0.0,0.0,0.0,0.0,0.0,0.0,0.0,0.0,0.0,0.0,0.0,0.0,0.0,0.0,0.0,-3.0485,-3.0526,-3.0485,-3.0568,-3.079,-3.0716,-3.0658,-3.0773,-3.0651,-3.0833,-3.1258,-3.1464,-3.221,-3.3456,-3.3822,-3.4435,-3.5198,-3.4977,-3.4545,-3.3953,-3.3339,-3.2718,-3.2145,-3.1796,-3.1524,-3.1219,-3.094,-3.0702,-3.0568,-3.0568,-3.0568,-3.0568,-1.212,-1.204,-1.1637,-1.0612,-1.0602,-1.0451,-0.9639,-0.9866,-1.0473,-1.1433,-1.2107,-1.2431,-1.2244,-1.246,-1.2511,-1.2294,-1.2612,-1.2718,-1.2379,-1.2384,-1.2298,-1.2085,-1.1826,-1.1747,-1.1848,-1.1805,-1.1869,-1.2033,-1.2033,-1.219,-1.2443,-1.27,-1.2493,-1.1938,-1.2939,-1.3378,-1.3405,-1.4296,0.0,-1.8752,0.0,-2.3227,-2.4701,-2.8591,-2.9698,-2.936,-3.0432,-3.0726,-3.0173,-2.7238,0.0,-2.5817,-2.5843,-2.2249,0.0,0.0,0.0,0.0,0.0,0.0,0.0,0.0,0.0,-1.4217,0.0,0.0,0.0,0.0,0.0,0.0,0.0,0.0,0.0,0.0,0.0,0.0,0.0,0.0,0.0,0.0,0.0,0.0,0.0,0.0,-3.0075,-3.0902,-3.0871,-3.0935,-3.1173,-3.1038,-3.0982,-3.1095,-3.0855,-3.0757,-3.0797,-3.1375,-3.2109,-3.3004,-3.3656,-3.4454,-3.5383,-3.5383,-3.5055,-3.448,-3.4053,-3.3495,-3.2841,-3.2398,-3.2023,-3.1682,-3.1161,-3.0939,-3.0967,-3.0791,-3.088,-3.0908,-1.1076,-1.1111,-1.0606,-0.8971,-0.9286,-0.9467,-0.8592,-0.9895,-1.1327,-1.2389,-1.2527,-1.3207,-1.5014,-1.3652,-1.327,-1.49,-1.4669,-1.3794,-1.2313,-1.3475,-1.3545,-1.2067,-1.2033,-1.2012,-1.1991,-1.2033,-1.2096,-1.2185,-1.2185,-1.2312,-1.2591,-1.3328,-1.3267,-1.2625,-1.3642,-1.4813,-1.6113,0.0,-1.8722,0.0,-2.4717,-2.455,0.0,-2.7928,-2.8292,-2.6387,-2.9191,-3.0755,-3.0915,0.0,-2.6402,-2.6055,0.0,-2.0208,-1.8108,0.0,0.0,0.0,0.0,0.0,0.0,0.0,-1.4288,0.0,0.0,0.0,0.0,0.0,0.0,0.0,0.0,0.0,0.0,0.0,0.0,0.0,0.0,0.0,0.0,0.0,0.0,0.0,0.0,0.0,0.0,-3.0948,-3.1151,-3.119,-3.1257,-3.1368,-3.144,-3.144,-3.1483,-3.1389,-3.1218,-3.1122,-3.1857,-3.3364,-3.3278,-3.4051,-3.5577,-3.5577,-3.5333,-3.4927,-3.4736,-3.4087,-3.3145,-3.2933,-3.2547,-3.1925,-3.1682,-3.1854,-3.2228,-3.1646,-3.1795,-3.2154,-1.0894,-1.0595,-1.0014,-0.9282,-0.985,-1.0282,-0.9857,-1.0905,-1.192,-1.2459,-1.2372,-1.3071,-1.518,0.0,0.0,0.0,0.0,-1.6819,0.0,0.0,-1.5139,-1.5191,-1.4031,-1.3381,-1.3388,-1.3381,-1.3403,-1.3477,-1.347,-1.3537,-1.3636,-1.4018,-1.3818,-1.3125,-1.3633,0.0,-1.7065,0.0,-1.9355,0.0,0.0,0.0,0.0,-2.8345,-2.9808,-2.8735,-2.8317,-2.9361,-3.0158,0.0,-2.5957,0.0,0.0,0.0,0.0,0.0,0.0,0.0,0.0,0.0,0.0,0.0,0.0,0.0,0.0,0.0,-1.426,0.0,0.0,0.0,0.0,0.0,0.0,0.0,0.0,0.0,0.0,0.0,0.0,0.0,0.0,0.0,0.0,0.0,0.0,0.0,0.0,-2.8356,-2.9008,-3.0636,-3.1596,-3.1651,-3.1576,-3.1521,-3.1449,-3.1257,-3.1755,-3.288,-3.322,-3.3964,-3.5067,-3.5596,-3.5739,-3.5543,-3.4847,-3.4301,-3.3869,-3.3193,-3.2757,-3.2499,-3.2444,-3.2303,-3.2146,-3.2178,-3.2163,-3.2045,-1.0492,-1.0099,-0.9648,-0.9611,-1.0341,-1.0987,-1.1172,-1.2213,-1.2997,-1.31,-1.299,0.0,-1.5985,-1.5357,0.0,0.0,-1.8138,-1.8335,0.0,0.0,-1.6879,-1.7851,-1.5609,-1.4616,-1.5152,-1.4647,-1.4397,-1.4452,-1.4421,-1.4421,-1.4429,-1.468,-1.4435,-1.3788,-1.4088,-1.5366,-1.7417,0.0,-2.0622,-2.311,-2.4847,-2.5122,-2.4877,-2.8202,-3.0179,-3.083,-2.852,-2.8949,-2.9807,-2.4919,-2.6068,0.0,-2.5015,0.0,0.0,0.0,0.0,0.0,-1.9923,0.0,0.0,0.0,0.0,0.0,0.0,0.0,0.0,0.0,0.0,0.0,0.0,0.0,0.0,0.0,0.0,0.0,0.0,0.0,0.0,0.0,0.0,0.0,0.0,0.0,0.0,0.0,-2.5668,0.0,-2.7043,-2.9989,-3.1709,-3.18,-3.1651,-3.1576,-3.1617,-3.1428,-3.1742,-3.2542,-3.325,-3.4023,-3.4755,-3.5634,-3.6019,-3.6019,-3.5068,-3.4577,-3.4366,-3.3523,-3.3096,-3.2951,-3.2951,-3.2703,-3.2364,-3.2795,-3.2813,-3.25,-0.9442,-0.949,-0.9498,-0.9432,-1.0122,-1.099,-1.1849,-1.3639,-1.4901,-1.4916,0.0,0.0,0.0,0.0,0.0,0.0,0.0,-1.6996,-1.7084,0.0,-1.8695,0.0,0.0,-1.5311,0.0,-1.5455,-1.4599,-1.4599,-1.4537,-1.4491,-1.4514,-1.5232,-1.5281,-1.4786,-1.5454,-1.6281,-1.7445,-2.1097,-2.3473,-2.5155,-2.8954,-3.0523,-3.0258,0.0,-2.7904,-3.0914,-3.0239,0.0,0.0,-2.7844,-2.7278,0.0,0.0,0.0,0.0,0.0,0.0,0.0,0.0,0.0,0.0,-1.9914,0.0,0.0,0.0,0.0,-1.435,0.0,0.0,0.0,0.0,0.0,-1.1575,-1.0769,0.0,0.0,0.0,0.0,0.0,0.0,0.0,0.0,0.0,0.0,0.0,0.0,-2.4085,0.0,-2.6238,-2.9782,-3.18,-3.18,-3.18,-3.1709,-3.1617,-3.1538,-3.1837,-3.2588,-3.3274,-3.4065,-3.4899,-3.5634,-3.6062,-3.6165,-3.5605,-3.5052,-3.4528,-3.402,-3.3507,-3.3096,-3.3096,-3.315,-3.3282,-3.359,-3.4074,-3.4465,-1.0175,-1.0114,-1.012,-1.018,-1.0545,-1.1132,-1.2004,-1.2486,0.0,0.0,0.0,0.0,0.0,-1.8194,-1.8136,0.0,0.0,-2.183,-2.1777,-2.1809,0.0,0.0,0.0,-1.9798,0.0,-1.8492,-1.7604,-1.6241,-1.6241,-1.6249,-1.6289,-1.6532,-1.6605,-1.6448,-1.6133,-1.6963,0.0,0.0,0.0,0.0,0.0,-2.8115,-2.8807,0.0,0.0,-3.1078,-3.0785,-3.0813,0.0,-2.7758,-2.8356,-3.0003,-2.8211,-2.7271,-2.7477,-3.0487,-2.7828,0.0,0.0,0.0,-2.6518,-2.5665,0.0,0.0,0.0,0.0,0.0,0.0,0.0,0.0,0.0,0.0,-1.0726,-0.9875,-0.9759,-0.966,0.0,0.0,0.0,0.0,0.0,0.0,0.0,0.0,0.0,-1.7364,-1.8239,0.0,0.0,-2.4885,-2.7975,-2.7975,-3.0347,-3.1614,-3.1617,-3.1428,-3.1392,-3.1392,-3.2614,-3.3192,-3.324,-3.4593,-3.5207,-3.5253,-3.4754,-3.4415,-3.4218,-3.3678,-3.3398,-3.3256,-3.3256,-3.3256,-3.3335,-3.3811,-3.4051,-3.4058,-1.0535,-1.0577,-1.0785,-1.0891,-1.1073,-1.1572,-1.2711,0.0,0.0,0.0,-1.5418,0.0,-1.9387,0.0,-1.9669,0.0,-2.1589,-2.2721,-2.4164,-2.2446,0.0,-2.6224,-2.3469,0.0,0.0,-2.0655,-1.9757,-1.9161,-1.7775,-1.7506,-1.8284,-1.755,-1.7248,-1.7344,-1.6781,-1.7011,-1.8032,0.0,-2.3539,0.0,0.0,-2.7194,0.0,0.0,-3.0106,0.0,0.0,-3.1055,-3.0769,-2.8938,-2.986,-3.1495,-3.0011,-2.971,-3.0363,-3.2719,-3.0486,-2.7695,-2.9602,-2.9948,0.0,0.0,-2.6551,0.0,-2.388,0.0,0.0,0.0,0.0,0.0,0.0,0.0,-1.1239,-0.9519,-0.9292,-0.9301,0.0,-0.9216,0.0,0.0,0.0,0.0,0.0,0.0,-1.2061,-1.3426,-1.4328,-1.5038,0.0,0.0,-2.5374,-2.5391,-2.8966,-3.0921,-3.0984,-3.1082,-3.1004,-3.0821,-3.2183,-3.2663,-3.2364,-3.406,-3.4769,-3.4769,-3.4284,-3.4101,-3.405,-3.3503,-3.3309,-3.3309,-3.3309,-3.3309,-3.3388,-3.3881,-3.3995,-3.3817,-1.0521,-1.0848,-1.1421,-1.1489,-1.1696,0.0,0.0,0.0,-1.5763,0.0,-1.7922,-1.7757,-2.0077,-1.8425,-1.8031,-2.0207,-1.9041,0.0,-2.3955,-2.026,0.0,0.0,-2.2607,-2.1724,-2.5241,0.0,0.0,-2.288,-1.9097,-1.8308,-2.0267,-1.817,-1.7313,-1.7486,-1.7361,0.0,-1.5457,-2.1215,-2.2818,-2.1681,-2.4674,-2.7773,-3.0325,-2.7633,0.0,-3.1015,-3.1151,-3.119,-3.119,-3.119,-3.1521,-3.193,-3.2179,-3.2468,-3.2813,-3.3226,-3.3334,-3.3256,-3.2798,-3.2716,-3.1923,-2.8588,0.0,0.0,0.0,0.0,-2.3069,0.0,0.0,0.0,0.0,0.0,0.0,-0.9832,-0.9251,-0.9231,-0.93,0.0,0.0,0.0,0.0,0.0,0.0,-1.1698,-1.2147,-0.9146,-1.239,-1.4555,0.0,0.0,0.0,-2.4204,-2.7561,-2.9513,-2.9842,-3.0308,-3.0613,-3.0723,-3.1891,-3.236,-3.2272,-3.3917,-3.4688,-3.469,-3.4234,-3.405,-3.4,-3.3503,-3.3309,-3.3309,-3.3309,-3.3309,-3.3388,-3.3913,-3.4032,-3.3789,-1.1458,-1.1395,-1.1548,0.0,-1.279,-1.3906,0.0,0.0,0.0,0.0,-1.7567,-1.8298,-1.9302,-2.0034,-2.0134,-1.9249,-2.0026,0.0,0.0,0.0,0.0,-2.684,-2.5863,-2.4924,-2.431,-2.3933,0.0,-2.2315,-2.0289,-1.9722,-2.0384,-1.828,-1.7394,-1.7566,-1.7432,-1.635,-1.5032,-2.075,-2.3272,-2.3353,-2.2916,-2.4299,0.0,0.0,-2.8533,-3.1015,-3.1151,-3.119,-3.119,-3.119,-3.1269,-3.1445,-3.175,-3.1914,-3.2056,-3.2453,-3.2586,-3.257,-3.2419,-3.2196,-3.1847,-3.1233,-2.9179,-2.7031,0.0,0.0,0.0,0.0,0.0,0.0,0.0,0.0,0.0,-1.265,-1.065,-0.9216,0.0,0.0,0.0,-0.934,0.0,0.0,0.0,-0.9886,-0.9916,-0.9116,-0.9979,0.0,0.0,0.0,0.0,0.0,-2.2973,-2.5062,-2.9277,-2.7937,-2.8089,-2.9761,-3.061,-3.1054,-3.1241,-3.2294,-3.3147,-3.3694,-3.3555,-3.3503,-3.3503,-3.3346,-3.3309,-3.3309,-3.3309,-3.3309,-3.3398,-3.4375,-3.414,-3.3364,-1.1765,-1.1466,0.0,-1.1421,0.0,0.0,-1.5435,0.0,0.0,-1.9016,-1.9298,0.0,-2.0988,-2.218,-2.2409,-2.1267,-2.0934,0.0,-2.312,0.0,0.0,-2.674,-2.6082,-2.5082,-2.3987,-2.4357,0.0,-2.3212,-2.0798,-2.0242,-2.1376,-1.86,-1.7394,-1.7589,-1.7496,-1.664,-1.5588,-2.0369,-2.3211,-2.4435,-2.3311,0.0,0.0,-2.6559,-2.826,-3.0992,-3.1032,-3.1112,-3.119,-3.119,-3.119,-3.1269,-3.1582,-3.1677,-3.1787,-3.2179,-3.2317,-3.2248,-3.2109,-3.186,-3.1714,-3.1804,-3.0384,-2.8819,-2.8375,-2.6896,-2.534,0.0,0.0,0.0,0.0,0.0,0.0,-1.2131,-1.0319,0.0,0.0,0.0,0.0,0.0,0.0,0.0,0.0,0.0,0.0,0.0,0.0,0.0,0.0,0.0,0.0,0.0,-2.0535,-2.2801,-2.4748,-2.4656,-2.5607,-2.765,-2.861,-2.969,-3.0923,-3.1797,-3.2593,-3.3309,-3.3309,-3.3309,-3.3309,-3.3309,-3.3309,-3.3309,-3.3309,-3.3323,-3.3427,-3.426,-3.3933,-3.311,-1.1774,0.0,0.0,0.0,0.0,0.0,0.0,-1.7712,0.0,-2.2244,0.0,-2.1615,-2.3252,-2.4019,-2.4325,-2.4228,0.0,-2.1932,-2.5607,-2.1094,-2.0798,-2.6474,-2.4926,-2.3985,-2.4229,-2.4196,0.0,0.0,-2.1152,-2.0474,-2.2546,-1.8897,-1.7305,-1.7526,-1.7472,-1.7296,0.0,-1.9767,-2.2352,0.0,-2.4527,-2.6267,-2.8742,-2.6909,-2.8102,-3.0773,-3.0773,-3.0935,-3.1151,-3.1151,-3.119,-3.1213,-3.1524,-3.162,-3.1694,-3.2039,-3.2127,-3.2056,-3.1714,-3.162,-3.1545,-3.1252,-3.119,-3.1031,-3.0426,-3.0293,-2.9865,-2.8356,-2.8228,0.0,0.0,0.0,0.0,0.0,0.0,0.0,0.0,0.0,0.0,0.0,0.0,0.0,0.0,0.0,0.0,0.0,0.0,0.0,0.0,0.0,0.0,0.0,-1.8917,0.0,-1.9677,0.0,-2.3665,-2.586,-2.6643,-2.8426,-3.1008,-3.1789,-3.255,-3.3309,-3.3309,-3.3309,-3.3309,-3.3309,-3.3309,-3.3309,-3.3309,-3.3326,-3.3361,-3.38,-3.3546,-3.3006,0.0,0.0,0.0,0.0,0.0,-1.5463,-1.808,-1.9869,-2.0836,-2.0478,-2.1329,0.0,-2.2042,-2.3472,-2.4049,-2.3261,-2.2679,0.0,0.0,0.0,0.0,-2.5645,-2.5204,-2.497,-2.501,-2.5586,-2.5954,0.0,-2.2799,-2.169,-2.2686,-1.8507,-1.6815,-1.7264,-1.7142,0.0,-2.0899,-1.8037,0.0,-2.2888,-2.3928,-2.4424,-2.4854,-2.7657,-2.934,-3.0156,-3.0225,-3.0535,-3.0952,-3.1015,-3.1032,-3.1055,-3.1078,-3.1117,-3.1117,-3.1157,-3.1196,-3.1235,-3.1157,-3.1196,-3.1252,-3.123,-3.1252,-3.0917,-2.9411,-2.918,-2.881,-2.7146,-2.6945,-2.6791,-2.5983,0.0,0.0,0.0,0.0,0.0,0.0,0.0,0.0,0.0,0.0,0.0,0.0,0.0,0.0,0.0,0.0,0.0,0.0,0.0,0.0,0.0,0.0,0.0,0.0,0.0,0.0,-2.8286,-2.6835,-2.7847,-3.0992,-3.1168,-3.1974,-3.3309,-3.3309,-3.3309,-3.3309,-3.3309,-3.3309,-3.3309,-3.3309,-3.3326,-3.3288,-3.3231,-3.3128,-3.299,0.0,0.0,0.0,0.0,0.0,0.0,0.0,-2.0065,0.0,-2.2094,-2.2976,-2.3788,-2.403,-2.4738,-2.4992,-2.4511,-2.3588,-2.3434,-2.4399,-2.3372,-2.3523,-2.5425,-2.53,0.0,-2.3808,-2.5187,-2.5523,-2.4739,-2.2352,-2.1525,-2.2056,-1.8207,-1.6581,-1.6975,-1.7896,-1.8951,0.0,0.0,0.0,-2.245,-2.4448,-2.5031,-2.4894,-2.7045,-2.8247,-2.8818,-2.8844,-2.9165,-2.9682,-3.0208,-3.013,-2.9878,-3.0264,-3.0381,-3.0465,-3.0794,-3.0952,-3.1015,-3.1015,-3.1112,-3.119,-3.119,-3.1213,-3.0823,-2.9127,-2.8811,-2.8426,-2.6821,-2.6572,-2.6152,-2.4459,-2.1836,0.0,0.0,0.0,0.0,0.0,0.0,0.0,0.0,0.0,0.0,0.0,0.0,0.0,0.0,0.0,0.0,0.0,0.0,0.0,0.0,0.0,0.0,0.0,0.0,0.0,-2.6855,-2.6267,-2.7592,-3.0572,-3.0935,-3.1726,-3.2787,-3.3151,-3.3309,-3.3309,-3.2958,-3.285,-3.2796,-3.2508,-3.2558,-3.2824,-3.2687,-3.2869,-3.3067,0.0,-1.2894,0.0,0.0,-1.414,0.0,0.0,-1.9557,-2.2201,-2.3797,-2.4587,-2.5258,-2.6119,-2.6042,-2.5739,-2.5331,-2.4306,-2.3932,-2.4685,-2.3854,-2.381,-2.4913,-2.5205,-2.4627,-2.32,-2.4749,-2.4924,0.0,-2.2093,-2.1265,-2.1139,-1.8214,-1.6993,0.0,0.0,0.0,0.0,0.0,-2.3452,-2.2892,-2.5033,-2.5808,-2.5679,-2.6047,-2.6701,-2.741,-2.7492,-2.7736,-2.813,-2.896,-2.8953,-2.8741,-2.9326,-2.9627,-2.9861,-3.0453,-3.0778,-3.0975,-3.0975,-3.1112,-3.1157,-3.0948,-3.0915,-3.0487,-2.8854,-2.8501,-2.8135,-2.6666,-2.6364,-2.5596,-2.3219,-2.2198,0.0,0.0,0.0,0.0,0.0,0.0,0.0,0.0,0.0,0.0,0.0,0.0,0.0,0.0,0.0,0.0,0.0,0.0,0.0,0.0,0.0,0.0,-1.871,0.0,-2.2588,0.0,-2.6018,-2.7557,-3.0256,-3.0905,-3.1631,-3.2348,-3.2898,-3.3027,-3.2904,-3.2382,-3.2216,-3.216,-3.1637,-3.187,-3.2405,-3.2405,-3.2768,-3.3143,0.0,0.0,0.0,0.0,0.0,0.0,0.0,-1.883,-1.9772,-2.3289,-2.4393,-2.5098,-2.5877,-2.5893,-2.5205,-2.3505,-2.4651,-2.4189,-2.1117,-2.3659,-2.4676,-2.3385,-2.4822,-2.5591,-2.5423,-2.5591,-2.5591,0.0,0.0,-2.2026,-2.0216,-1.8924,0.0,0.0,0.0,0.0,0.0,-2.2594,-2.3199,-2.4324,-2.4687,-2.4912,-2.5096,-2.5331,-2.5894,-2.6541,-2.68,-2.6853,-2.6818,-2.7202,-2.786,-2.8527,-2.8533,-2.9037,-2.9632,-2.9715,-3.0296,-3.0912,-3.0975,-3.1112,-3.1021,-3.0212,-3.0005,-2.9618,-2.8082,-2.771,-2.7403,-2.6191,-2.5717,-2.5512,-2.5579,-2.3177,-2.0367,0.0,0.0,0.0,0.0,0.0,0.0,0.0,0.0,0.0,0.0,0.0,0.0,0.0,0.0,0.0,0.0,0.0,0.0,0.0,0.0,-1.4876,-1.8677,-1.9528,0.0,-2.8711,-2.6936,-2.7572,-3.0325,-3.0911,-3.1628,-3.2415,-3.2477,-3.216,-3.1652,-3.1595,-3.1595,-3.1595,-3.145,-3.184,-3.2405,-3.2405,-3.2768,-3.3157,0.0,0.0,0.0,0.0,0.0,0.0,0.0,-1.9547,-2.1081,-2.2961,-2.3497,-2.3968,-2.4657,-2.5021,-2.4901,-2.4122,-2.497,-2.4967,-2.3562,-2.4612,-2.5094,-2.4577,-2.5203,-2.5592,-2.5592,-2.5743,-2.5839,0.0,0.0,-2.1327,-2.0607,-1.8749,0.0,0.0,0.0,-2.2189,-2.2396,-2.325,-2.3669,-2.3786,-2.4014,-2.3974,-2.3751,-2.3812,-2.4253,-2.477,-2.4841,-2.5191,-2.5676,-2.5786,-2.6395,-2.7184,-2.7616,-2.7947,-2.8301,-2.8749,-2.916,-2.9471,-2.9493,-2.9587,-2.9635,-2.9332,-2.9248,-2.8979,-2.79,-2.7504,-2.7105,-2.6138,-2.5551,-2.5269,-2.5481,-2.445,-2.2692,0.0,0.0,0.0,0.0,0.0,0.0,0.0,0.0,0.0,0.0,0.0,0.0,0.0,0.0,0.0,0.0,0.0,0.0,-1.4877,0.0,-1.7685,-2.315,-2.1769,-2.3621,-2.8656,-2.7498,-2.7951,-2.9773,-3.0022,-3.0807,-3.1879,-3.1879,-3.1709,-3.148,-3.119,-3.1014,-3.0925,-3.1006,-3.1358,-3.1895,-3.2279,-3.2772,-3.3129,-1.7303,0.0,-1.5145,0.0,-1.608,-1.7121,-1.7193,-1.954,-2.1387,-2.1587,-2.2223,-2.2954,-2.3865,-2.4266,-2.4182,-2.3596,-2.4343,-2.439,-2.3379,-2.4117,-2.4466,-2.4135,-2.4664,0.0,-2.5005,-2.5203,-2.5314,-2.5258,-2.2906,0.0,0.0,0.0,0.0,0.0,-2.2249,-2.2769,-2.2041,-2.3516,-2.37,-2.2974,-2.3165,-2.308,-2.2814,-2.2814,-2.3098,-2.3478,-2.3493,-2.4101,-2.4879,-2.4989,-2.5535,-2.6303,-2.6763,-2.7098,-2.7417,-2.7931,-2.8268,-2.851,-2.8548,-2.8678,-2.8703,-2.8505,-2.8491,-2.8253,-2.7389,-2.7025,-2.664,-2.5889,-2.5323,-2.4974,-2.5052,-2.5091,-2.4169,0.0,0.0,0.0,0.0,0.0,0.0,0.0,-1.7058,-1.63,-1.8728,0.0,0.0,0.0,0.0,0.0,0.0,0.0,0.0,0.0,0.0,0.0,0.0,0.0,-2.3456,-2.8368,-2.7778,-2.8062,-2.9193,-2.9411,-3.0164,-3.1306,-3.1306,-3.1204,-3.1087,-3.0732,-3.0493,-3.043,-3.072,-3.1118,-3.1622,-3.2174,-3.2653,-3.2834,-1.8478,-1.824,-1.8035,-1.7379,-1.739,-1.7179,-1.6327,-1.8334,-1.9609,-1.8779,-2.0558,-2.2384,-2.3682,-2.38,-2.3,-2.1006,-2.2363,-2.185,-1.8296,-2.1352,-2.2578,0.0,0.0,-2.38,-2.38,-2.3962,-2.3962,-2.38,0.0,0.0,-2.0383,0.0,0.0,-2.1527,-2.3173,-2.3459,-2.2831,-2.316,-2.2904,-2.2184,-2.2231,-2.237,-2.2615,-2.2615,-2.2737,-2.2934,-2.3275,-2.3906,-2.4664,-2.491,-2.5535,-2.6168,-2.6026,-2.6611,-2.7317,-2.7374,-2.7944,-2.8548,-2.8736,-2.8811,-2.8626,-2.7902,-2.77,-2.7408,-2.6264,-2.6026,-2.5828,-2.5262,-2.4815,-2.4645,-2.4782,-2.4822,-2.3973,-2.1405,0.0,0.0,0.0,0.0,0.0,0.0,-1.4449,-1.369,-1.5839,0.0,0.0,0.0,0.0,0.0,0.0,0.0,0.0,-1.2159,-1.0132,0.0,-1.7747,-1.8373,-2.1939,-2.8368,-2.7778,-2.7891,-2.8652,-2.9276,-3.0032,-3.0837,-3.0837,-3.0568,-3.0111,-3.0111,-3.0111,-3.0183,-3.0608,-3.1168,-3.1726,-3.2241,-3.2417,-3.2253,-1.5039,-1.6339,-1.7267,-1.606,-1.7146,-1.8215,-1.8419,-1.9469,-2.0412,-2.0807,-2.1374,-2.1963,-2.2457,-2.2738,-2.2575,0.0,-2.1688,-2.1486,0.0,-2.1499,-2.1837,-2.249,-2.2099,-2.1944,-2.2066,-2.2228,-2.2269,-2.2228,0.0,0.0,0.0,-2.0486,-2.0845,-2.1223,-2.2524,-2.2523,-2.1632,-2.237,-2.2353,-2.1793,-2.2091,-2.237,-2.2555,-2.2417,-2.2402,-2.254,-2.2586,-2.2995,-2.3578,-2.4153,-2.4855,-2.561,-2.599,-2.6316,-2.6551,-2.6587,-2.6773,-2.6995,-2.7067,-2.7155,-2.7192,-2.6992,-2.6733,-2.6471,-2.6239,-2.5811,-2.5307,-2.4871,-2.467,-2.463,-2.4782,-2.4862,-2.4103,-2.1502,0.0,0.0,0.0,0.0,0.0,0.0,-1.6725,-1.5796,0.0,-1.6053,0.0,0.0,0.0,0.0,0.0,0.0,0.0,0.0,-1.6706,0.0,-2.3378,-2.1102,-2.277,-2.8262,-2.7083,-2.7118,-2.8211,-2.884,-2.9528,-3.0326,-3.0326,-3.0219,-3.0111,-3.0219,-3.034,-3.0608,-3.1283,-3.158,-3.1654,-3.2206,-3.2181,-3.1629,-1.4971,-1.6177,-1.7093,-1.6221,-1.7214,-1.8129,-1.8121,-1.9164,-1.9924,-1.9968,-2.0825,-2.1417,-2.1285,-2.1678,0.0,-2.2099,-2.1472,0.0,-2.2421,-2.1541,-2.143,-2.2494,-2.1621,-2.1193,-2.1319,0.0,0.0,-2.1668,-2.1538,-2.115,-2.0499,-2.0473,-2.0627,-2.0957,-2.1681,-2.1714,-2.1353,-2.2174,-2.2322,-2.2038,-2.2287,-2.2443,-2.2521,-2.2331,-2.2286,-2.2324,-2.2231,-2.2572,-2.3157,-2.3691,-2.4399,-2.5105,-2.5663,-2.5844,-2.597,-2.6239,-2.6329,-2.6382,-2.6417,-2.6399,-2.6399,-2.6452,-2.6206,-2.5954,-2.5957,-2.5551,-2.5052,-2.4815,-2.4831,-2.4871,-2.4926,-2.4966,-2.4512,-2.2888,0.0,0.0,0.0,0.0,0.0,0.0,0.0,0.0,0.0,-1.8007,0.0,0.0,0.0,0.0,0.0,0.0,0.0,-1.8385,-1.8198,0.0,-2.3996,-2.1987,-2.3407,-2.8197,-2.7244,-2.7216,-2.8039,-2.8363,-2.9135,-3.0158,-3.0158,-3.0097,-2.9898,-3.0007,-3.0114,-3.0285,-3.095,-3.124,-3.1287,-3.1496,-3.1389,-3.0913,-1.7191,-1.7324,0.0,0.0,-1.7492,0.0,-1.6206,-1.7824,-1.8594,-1.7031,-1.9201,-2.0665,-2.0248,-2.0798,-2.1327,-2.1527,0.0,0.0,0.0,-2.133,-2.1204,-2.1221,-2.1232,0.0,-2.1225,-2.146,-2.1705,-2.1937,-2.1596,-2.138,-2.1284,-2.0298,-2.0101,-2.0645,-2.0774,-2.112,-2.1737,-2.243,-2.2671,-2.2671,-2.2671,-2.2575,-2.2406,-2.2406,-2.2332,-2.2184,-2.2231,-2.2603,-2.3216,-2.3565,-2.4101,-2.4672,-2.5059,-2.5285,-2.553,-2.6222,-2.645,-2.645,-2.6503,-2.6347,-2.6189,-2.626,-2.6046,-2.577,-2.5454,-2.5201,-2.5045,-2.5107,-2.5201,-2.524,-2.5107,-2.5107,-2.5091,-2.5052,-2.4766,-2.4502,-2.4508,0.0,0.0,0.0,0.0,0.0,0.0,-1.9537,-1.9482,0.0,0.0,0.0,0.0,0.0,0.0,-1.5396,-1.5999,-1.7735,-2.0855,-2.1465,-2.3871,-2.8011,-2.7982,-2.7967,-2.7967,-2.7967,-2.8751,-3.019,-3.019,-2.9931,-2.9484,-2.9484,-2.9481,-2.9376,-2.982,-3.0355,-3.0748,-3.0204,-3.0138,-3.0108,0.0,0.0,-1.6797,-1.621,-1.7667,-1.8663,-1.7911,-1.8794,-1.9242,-1.8547,-1.8833,-1.9127,-1.9278,-1.9832,-2.0279,-2.0307,-1.9849,-2.0159,-2.1577,-2.0262,-2.012,-2.1526,-2.0463,-1.9876,-1.9876,-2.0072,-2.0842,-2.2123,-2.193,-2.133,-2.0487,-2.0342,-1.9853,-1.9155,-2.0329,-2.0702,-2.066,-2.2205,-2.2617,-2.2265,-2.2564,-2.2575,-2.2406,-2.2406,-2.2332,-2.2231,-2.2324,-2.2449,-2.2663,-2.3275,-2.3666,-2.4006,-2.4744,-2.5098,-2.5291,-2.5605,-2.5754,-2.5885,-2.5921,-2.5937,-2.5954,-2.599,-2.5844,-2.5584,-2.5201,-2.5162,-2.5217,-2.524,-2.5294,-2.524,-2.5107,-2.5185,-2.5162,-2.4799,-2.4719,-2.3959,-2.1831,-2.0588,-1.9201,0.0,-1.831,-1.9207,-1.9288,-2.1456,-2.1676,0.0,0.0,0.0,0.0,0.0,-1.7683,-2.1223,-2.1,-2.1779,-2.3727,-2.342,-2.4229,-2.6078,-2.6967,-2.7367,-2.7367,-2.7367,-2.7958,-2.8953,-2.8953,-2.8889,-2.8762,-2.8762,-2.9195,-2.9833,-2.9994,-2.9847,-2.9645,-2.9558,-2.8787,-2.7691,-1.4192,-1.5244,-1.615,-1.5712,-1.6984,-1.7863,-1.744,-1.8066,-1.8365,-1.7804,-1.8125,-1.8301,-1.8287,-1.8871,-1.9339,-1.9463,-1.9576,-2.0017,-2.0949,-1.9949,-1.9772,-2.07,-1.9924,-1.9607,-1.9847,-1.9966,-2.0624,-2.1851,-2.1502,-2.104,-2.0428,-2.0194,-1.9901,-1.9573,-2.0217,-2.0746,-2.1177,-2.2046,-2.2449,-2.2452,-2.2523,-2.2549,-2.2582,-2.2336,-2.2269,-2.237,-2.2463,-2.2509,-2.2601,-2.3157,-2.3377,-2.3508,-2.423,-2.4639,-2.4823,-2.495,-2.5378,-2.5791,-2.5791,-2.5791,-2.5733,-2.5659,-2.5546,-2.5432,-2.524,-2.5123,-2.5068,-2.5107,-2.4989,-2.4871,-2.4735,-2.5026,-2.5149,-2.4927,-2.3767,-2.2325,-2.0799,-1.9166,-1.8104,-1.7996,-1.9236,-2.0327,-2.0996,-2.2282,-2.2216,-1.9943,0.0,0.0,-1.9124,-1.8299,-1.9262,-2.2495,-2.2278,-2.281,-2.4164,-2.45,-2.4797,-2.5077,-2.6075,-2.6663,-2.6862,-2.6862,-2.7455,-2.8492,-2.8492,-2.8298,-2.8065,-2.8213,-2.8523,-2.9035,-2.9282,-2.9142,-2.8737,-2.84,-2.7679,-2.689,-1.5545,-1.5487,-1.5575,-1.576,-1.6213,-1.6519,-1.6332,-1.694,-1.7097,-1.6342,-1.7131,-1.7628,-1.7176,-1.7853,-1.8377,-1.86,-1.94,-1.996,-2.0111,-1.9937,-1.9724,-1.9594,-1.966,-1.9846,-2.042,-2.0484,-2.0816,-2.1463,-2.1043,-2.0737,-2.0656,-2.0118,-2.0107,-2.0468,-2.0334,-2.0914,-2.2041,-2.1979,-2.229,-2.2735,-2.2351,-2.2339,-2.2591,-2.2072,-2.2158,-2.2509,-2.2509,-2.2615,-2.2737,-2.3142,-2.3216,-2.3216,-2.3754,-2.4094,-2.4276,-2.4457,-2.5045,-2.5696,-2.577,-2.5605,-2.5416,-2.5162,-2.5139,-2.5162,-2.5224,-2.4974,-2.4775,-2.4839,-2.4639,-2.441,-2.4343,-2.4748,-2.4937,-2.448,-2.2188,-2.0356,-2.0027,0.0,-1.7401,-1.9695,-2.0275,-2.1126,-2.276,-2.2504,-2.1939,-2.1153,-1.9282,0.0,0.0,-1.9481,-1.963,-2.1812,-2.193,-2.2445,-2.3484,-2.4784,-2.5141,-2.4567,-2.5306,-2.5895,-2.6377,-2.6396,-2.7023,-2.8168,-2.8103,-2.7789,-2.7403,-2.7769,-2.7881,-2.7804,-2.8225,-2.8184,-2.7779,-2.6995,-2.6593,-2.6253,-1.4972,-1.5031,-1.5322,-1.6346,-1.6951,-1.7166,-1.6833,-1.7168,-1.707,-1.6272,-1.6122,-1.614,-1.6079,-1.6625,-1.6982,-1.7063,-1.7458,-1.8238,-1.9547,-1.9708,-1.9708,-1.9759,-1.9738,-1.9998,-2.0537,-2.0996,-2.1411,-2.1635,-2.1393,-2.1001,-2.0473,-2.0526,-2.0234,-1.965,-2.0617,-2.1164,-2.138,-2.1891,-2.2138,-2.2176,-2.1788,-2.161,-2.1537,-2.1433,-2.169,-2.2137,-2.2231,-2.2586,-2.3038,-2.3231,-2.3275,-2.3304,-2.3566,-2.3839,-2.4109,-2.4416,-2.4523,-2.467,-2.5091,-2.4997,-2.4679,-2.4302,-2.4317,-2.4467,-2.4467,-2.4549,-2.463,-2.4614,-2.463,-2.4549,-2.4498,-2.4534,-2.3758,-2.121,-2.024,-1.9028,0.0,0.0,-1.8366,-1.9168,-2.1091,-2.2269,-2.2055,-2.2336,-2.2033,-2.0775,-2.0927,-2.0972,-2.0752,-2.0996,-2.1479,-2.2192,-2.2557,-2.2878,-2.3166,-2.3763,-2.3971,-2.393,-2.501,-2.5569,-2.5673,-2.582,-2.6212,-2.6782,-2.644,-2.644,-2.6696,-2.7183,-2.7535,-2.7767,-2.7495,-2.7233,-2.682,-2.5899,-2.4763,-2.3571,-1.3923,-1.4152,-1.454,-1.5223,-1.6015,-1.644,-1.6181,-1.6478,-1.6533,-1.6132,-1.5938,-1.5805,-1.5805,-1.6031,-1.6206,-1.6206,-1.6554,-1.7012,-1.7755,-1.8144,-1.8379,-1.8432,-1.8499,-1.8834,-1.9486,-2.002,-2.0366,-2.0582,-2.0506,-2.0256,-1.9993,-2.0056,-1.986,-1.9514,-2.0216,-2.0673,-2.1101,-2.1608,-2.2085,-2.2414,-2.1832,-2.1908,-2.2233,-2.1455,-2.1627,-2.2249,-2.2123,-2.2217,-2.248,-2.2949,-2.3038,-2.3068,-2.3566,-2.3839,-2.4101,-2.4579,-2.4568,-2.4441,-2.4533,-2.4477,-2.441,-2.4245,-2.4343,-2.4467,-2.4467,-2.4385,-2.4261,-2.4261,-2.4135,-2.4009,-2.3982,-2.4228,-2.3932,-2.2268,-2.0695,0.0,0.0,-1.8185,-1.8755,-1.8976,-2.1241,-2.2572,-2.1975,-2.2094,-2.1877,-2.0914,-2.1396,-2.1589,-2.1281,-2.1744,-2.2103,-2.2297,-2.2669,-2.2934,-2.3078,-2.3218,-2.3328,-2.3424,-2.4264,-2.4823,-2.5141,-2.536,-2.5722,-2.6188,-2.5758,-2.5676,-2.5853,-2.6333,-2.6566,-2.6748,-2.6866,-2.6257,-2.5245,-2.4906,-2.3749,-2.2381,-1.3026,-1.3397,-1.3835,-1.4196,-1.5028,-1.558,-1.5617,-1.5878,-1.6061,-1.607,-1.5867,-1.5805,-1.5805,-1.5805,-1.5805,-1.5805,-1.6008,-1.6211,-1.6211,-1.6691,-1.6959,-1.7028,-1.7382,-1.7784,-1.8375,-1.8977,-1.9386,-1.9605,-1.9605,-1.9605,-1.9605,-1.9605,-1.9605,-1.9594,-1.999,-2.034,-2.073,-2.1463,-2.1968,-2.2274,-2.1813,-2.2172,-2.2776,-2.144,-2.1586,-2.2386,-2.1977,-2.1841,-2.2016,-2.2512,-2.2649,-2.2694,-2.3246,-2.3523,-2.3744,-2.4403,-2.452,-2.4438,-2.4422,-2.4508,-2.4551,-2.4493,-2.4579,-2.4679,-2.4679,-2.4364,-2.4073,-2.3981,-2.3674,-2.3407,-2.326,-2.3628,-2.3624,-2.268,0.0,0.0,0.0,-1.8685,-1.882,-1.9513,-2.1349,-2.2383,-2.1912,-2.1928,-2.1799,-2.1324,-2.1741,-2.1949,-2.1893,-2.2382,-2.2569,-2.2393,-2.2745,-2.2909,-2.3017,-2.2969,-2.3032,-2.3339,-2.3916,-2.4329,-2.4591,-2.481,-2.5078,-2.5453,-2.5087,-2.5004,-2.5348,-2.5683,-2.5751,-2.5554,-2.5953,-2.5169,-2.3755,-2.3775,-2.281,-2.1538,-1.2909,-1.306,-1.3469,-1.4656,-1.4883,-1.518,-1.5965,-1.6044,-1.5991,-1.5867,-1.5797,-1.5805,-1.5805,-1.5805,-1.5805,-1.5805,-1.5805,-1.5876,-1.5876,-1.607,-1.6333,-1.6603,-1.7295,-1.7774,-1.8037,-1.8834,-1.9386,-1.9605,-1.9605,-1.9605,-1.9605,-1.9605,-1.9605,-1.9671,-2.0473,-2.0602,-2.0257,-2.133,-2.1558,-2.1236,-2.1423,-2.1771,-2.1982,-2.123,-2.1498,-2.2206,-2.1537,-2.1704,-2.2267,-2.2175,-2.2221,-2.2314,-2.2267,-2.2314,-2.258,-2.3457,-2.3985,-2.448,-2.5106,-2.5388,-2.5327,-2.4868,-2.4882,-2.4993,-2.4993,-2.4709,-2.4327,-2.3826,-2.3474,-2.3036,-2.2473,-2.2555,-2.1826,-1.9379,0.0,0.0,-1.8684,-1.7999,-1.8552,-2.1376,-2.1754,-2.1719,-2.1564,-2.1942,-2.2092,-2.1941,-2.2566,-2.2776,-2.256,-2.314,-2.3267,-2.2677,-2.2836,-2.2848,-2.2739,-2.286,-2.3231,-2.3941,-2.4494,-2.4472,-2.3895,-2.4095,-2.423,-2.4192,-2.3818,-2.4264,-2.5348,-2.5877,-2.5557,-2.4641,-2.4397,-2.3689,-2.2822,-2.2039,-2.1252,-2.0615,-1.233,-1.3022,-1.3739,-1.4267,-1.4694,-1.5031,-1.5463,-1.5559,-1.5568,-1.5797,-1.5805,-1.5576,-1.5125,-1.5505,-1.5576,-1.5125,-1.5505,-1.5805,-1.5805,-1.5867,-1.607,-1.6403,-1.6612,-1.6811,-1.7148,-1.7696,-1.8114,-1.8279,-1.8539,-1.8607,-1.8607,-1.8607,-1.8674,-1.8808,-1.9573,-1.9846,-1.9846,-2.0814,-2.1171,-2.0989,-2.089,-2.1112,-2.142,-2.0463,-2.0693,-2.1463,-2.0882,-2.098,-2.1511,-2.1825,-2.1967,-2.2056,-2.2312,-2.2501,-2.2725,-2.3472,-2.4037,-2.4463,-2.4773,-2.4596,-2.4348,-2.4162,-2.4712,-2.5214,-2.4895,-2.526,-2.5526,-2.501,-2.4797,-2.4549,-2.4083,-2.371,-2.2969,-2.1415,0.0,-2.0466,-2.0534,-2.0284,-2.0611,-2.2049,-2.2167,-2.2114,-2.2034,-2.2159,-2.238,-2.273,-2.2485,-2.2633,-2.3392,-2.3132,-2.2421,-2.1239,-2.1479,-2.1741,-2.2025,-2.1945,-2.228,-2.3031,-2.3597,-2.3732,-2.3502,-2.3435,-2.322,-2.2947,-2.2886,-2.2929,-2.3128,-2.3622,-2.3417,-2.2843,-2.2691,-2.2157,-2.1366,-2.0984,-2.0382,-1.9803,-1.2166,-1.29,-1.3661,-1.405,-1.4395,-1.4617,-1.4617,-1.4617,-1.4617,-1.4689,-1.4689,-1.4466,-1.3939,-1.4466,-1.4697,-1.4171,-1.4697,-1.507,-1.5141,-1.5292,-1.5576,-1.614,-1.614,-1.6202,-1.6473,-1.6821,-1.7107,-1.7323,-1.7529,-1.7725,-1.793,-1.793,-1.8066,-1.8405,-1.9054,-1.9396,-1.9407,-2.0442,-2.0828,-2.0666,-2.0682,-2.0918,-2.1224,-2.0226,-2.037,-2.1027,-2.0505,-2.0571,-2.0925,-2.1486,-2.1695,-2.1792,-2.2094,-2.2428,-2.2814,-2.3194,-2.3747,-2.415,-2.415,-2.3854,-2.3676,-2.4243,-2.5171,-2.5903,-2.5577,-2.598,-2.6288,-2.5687,-2.5533,-2.5354,-2.486,-2.4512,-2.4028,-2.3176,-2.2688,-2.2282,-2.1891,-2.1812,-2.1863,-2.2063,-2.2159,-2.2262,-2.2168,-2.2209,-2.2418,-2.2827,-2.2274,-2.2372,-2.321,-2.2555,-2.1592,-2.0462,-2.0401,-2.0608,-2.102,-2.1073,-2.1475,-2.2285,-2.274,-2.2782,-2.2578,-2.2391,-2.2176,-2.1952,-2.1849,-2.1839,-2.1994,-2.217,-2.1902,-2.1375,-2.1375,-2.0847,-2.0148,-2.0148,-1.985,-1.954,-1.2459,-1.272,-1.2962,-1.3932,-1.4057,-1.3905,-1.3448,-1.3375,-1.3077,-1.2331,-1.2184,-1.2184,-1.2184,-1.2638,-1.3011,-1.3164,-1.3382,-1.3608,-1.376,-1.4122,-1.4776,-1.5726,-1.6,-1.6132,-1.6272,-1.6473,-1.6682,-1.6908,-1.6908,-1.7176,-1.7706,-1.7706,-1.7988,-1.8549,-1.9274,-1.9274,-1.8875,-2.0313,-2.0571,-2.0161,-2.0805,-2.129,-2.151,-2.0784,-2.0719,-2.0938,-2.0556,-2.0583,-2.0856,-2.1131,-2.1369,-2.1549,-2.145,-2.1927,-2.2483,-2.2483,-2.2946,-2.3403,-2.3403,-2.321,-2.3492,-2.5346,-2.6458,-2.7088,-2.7189,-2.6843,-2.6331,-2.574,-2.5395,-2.5044,-2.4405,-2.4576,-2.4547,-2.3803,-2.3807,-2.347,-2.2263,-2.213,-2.1911,-2.1369,-2.1741,-2.1947,-2.1758,-2.2116,-2.2298,-2.2113,-2.2101,-2.2051,-2.1877,-2.1376,-2.0933,-2.059,-2.002,-1.9668,-1.9679,-2.029,-2.1073,-2.2088,-2.2099,-2.1765,-2.1094,-2.1094,-2.1123,-2.1063,-2.0644,-2.1183,-2.235,-2.1963,-2.1308,-2.0469,-2.0469,-2.0001,-1.9301,-1.9301,-1.9567,-1.9925,-1.1184,-1.1801,-1.2098,-1.181,-1.2358,-1.2659,-1.2271,-1.2712,-1.3077,-1.3201,-1.3738,-1.3745,-1.2785,-1.381,-1.389,-1.2291,-1.3171,-1.3753,-1.3608,-1.4903,-1.563,-1.5355,-1.5718,-1.6,-1.6132,-1.6621,-1.683,-1.6908,-1.7185,-1.7392,-1.7529,-1.7803,-1.8066,-1.8405,-1.9008,-1.9208,-1.9208,-1.9605,-1.9671,-1.9528,-1.9649,-1.977,-1.9814,-1.9413,-1.9695,-2.025,-2.0221,-2.054,-2.112,-2.1449,-2.1583,-2.1704,-2.1765,-2.1922,-2.2116,-2.2238,-2.2029,-2.1815,-2.1815,-2.1863,-2.24,-2.4372,-2.5646,-2.6484,-2.68,-2.734,-2.7595,-2.705,-2.6895,-2.6582,-2.5754,-2.5314,-2.4984,-2.4517,-2.3695,-2.328,-2.3772,-2.3441,-2.3156,-2.3281,-2.3083,-2.296,-2.2898,-2.2246,-2.199,-2.231,-2.2175,-2.1553,-2.0366,-2.0613,-2.0358,-1.9431,-1.9241,-1.9201,-1.9383,-1.9816,-2.0376,-2.1156,-2.1094,-2.0938,-2.0672,-2.0382,-2.0146,-2.0052,-2.0061,-2.0203,-2.0457,-2.0461,-2.0118,-1.9687,-1.9687,-1.9539,-1.9338,-1.9632,-1.9824,-2.0008,-1.0408,-1.0979,-1.1304,-1.0944,-1.1471,-1.1774,-1.1316,-1.1613,-1.1977,-1.1964,-1.2418,-1.2352,-1.1539,-1.2418,-1.2565,-1.1254,-1.2063,-1.2725,-1.2806,-1.4243,-1.5117,-1.4974,-1.578,-1.6211,-1.6202,-1.6482,-1.663,-1.663,-1.6908,-1.7116,-1.7392,-1.7598,-1.793,-1.8337,-1.8808,-1.9008,-1.9075,-1.9208,-1.9285,-1.9285,-1.9142,-1.9208,-1.9274,-1.8808,-1.8942,-1.9473,-1.9309,-1.9628,-2.0226,-2.0635,-2.0903,-2.1094,-2.1146,-2.121,-2.121,-2.1336,-2.1209,-2.1054,-2.0862,-2.1079,-2.1693,-2.315,-2.4405,-2.5369,-2.5684,-2.6524,-2.7271,-2.731,-2.704,-2.6803,-2.6537,-2.5981,-2.5431,-2.5001,-2.4343,-2.3966,-2.4179,-2.3811,-2.3547,-2.3544,-2.3317,-2.306,-2.2983,-2.2198,-2.1609,-2.1588,-2.1514,-2.0933,-1.9878,-2.0084,-1.9899,-1.9243,-1.9241,-1.9385,-1.9544,-1.9487,-1.9793,-2.0404,-2.0362,-2.0323,-2.0235,-2.002,-1.9957,-1.9968,-1.9972,-1.9882,-1.9808,-1.9891,-1.97,-1.939,-1.9539,-1.946,-1.9436,-1.9516,-1.9605,-1.9737,-0.9927,-1.0265,-1.049,-1.0807,-1.1037,-1.1037,-1.0363,-1.0363,-1.0143,-0.9468,-0.9468,-0.9544,-0.9473,-0.9922,-1.0143,-1.0218,-1.0663,-1.1105,-1.1558,-1.2792,-1.373,-1.4386,-1.5824,-1.6473,-1.6132,-1.6272,-1.6342,-1.6342,-1.6272,-1.6551,-1.7166,-1.7166,-1.751,-1.8269,-1.8607,-1.8808,-1.8808,-1.9142,-1.9285,-1.9285,-1.9142,-1.9208,-1.9407,-1.8539,-1.8405,-1.8674,-1.8172,-1.823,-1.8633,-1.9166,-1.9628,-2.0031,-2.0096,-2.0129,-2.0161,-2.0227,-2.0566,-2.0896,-2.0489,-2.0742,-2.1186,-2.1604,-2.2636,-2.3767,-2.4217,-2.4912,-2.5787,-2.6676,-2.6346,-2.607,-2.6688,-2.6402,-2.5827,-2.5333,-2.5301,-2.4982,-2.3905,-2.3711,-2.3455,-2.288,-2.2777,-2.2662,-2.2332,-2.1778,-2.1007,-2.0227,-2.014,-2.002,-1.9866,-1.9646,-1.9481,-1.9493,-1.9639,-1.9705,-1.9734,-1.9178,-1.9204,-1.9784,-1.9696,-1.9706,-1.9706,-1.9706,-1.9991,-2.041,-1.9865,-1.9832,-2.0068,-1.9776,-1.9548,-1.9399,-1.9627,-1.9576,-1.9421,-1.9144,-1.9199,-1.9325,-0.9064,-0.9448,-0.9372,-0.8856,-0.9453,-0.9674,-0.878,-0.9155,-0.975,-1.0196,-1.0795,-1.1093,-1.0962,-1.1706,-1.1706,-1.0293,-1.1323,-1.1694,-1.1037,-1.2778,-1.3723,-1.3302,-1.4155,-1.4665,-1.4744,-1.6245,-1.6899,-1.6769,-1.6193,-1.6324,-1.7166,-1.6862,-1.7139,-1.7842,-1.8375,-1.8654,-1.8808,-1.9075,-1.9274,-1.9473,-1.8854,-1.8643,-1.8643,-1.792,-1.7842,-1.8172,-1.8152,-1.8422,-1.8834,-1.9278,-1.9541,-1.9738,-2.0161,-2.0555,-2.0842,-2.0986,-2.0981,-2.0839,-2.0411,-2.0028,-1.9596,-1.9303,-1.9954,-2.1377,-2.3949,-2.4659,-2.5071,-2.5983,-2.6,-2.5779,-2.5499,-2.5358,-2.5252,-2.5284,-2.485,-2.4602,-2.4905,-2.4402,-2.3999,-2.3867,-2.3511,-2.2831,-2.186,-2.0065,-1.8782,-1.8267,-1.8142,-1.8027,-1.7957,-1.792,-1.797,-1.8149,-1.8186,-1.8273,-1.8426,-1.8275,-1.8559,-1.9204,-1.8318,-1.7925,-1.7925,-1.7925,-1.8451,-1.9252,-1.8362,-1.8451,-1.9163,-1.8273,-1.7925,-1.7844,-1.7925,-1.8104,-1.8337,-1.8549,-1.8746,-1.9024,-0.8322,-0.8627,-0.8627,-0.8403,-0.8851,-0.9079,-0.8708,-0.9013,-0.9458,-0.9906,-1.0276,-1.0507,-1.0443,-1.1037,-1.1186,-1.0443,-1.1031,-1.1397,-1.126,-1.2492,-1.3222,-1.3164,-1.3723,-1.4004,-1.4011,-1.5367,-1.6167,-1.6403,-1.6333,-1.6551,-1.7038,-1.6811,-1.701,-1.7501,-1.8056,-1.8327,-1.8405,-1.8808,-1.8998,-1.9054,-1.8586,-1.8452,-1.8432,-1.7638,-1.7501,-1.7833,-1.7345,-1.712,-1.7101,-1.7357,-1.7415,-1.7474,-1.8315,-1.8822,-1.9162,-1.98,-1.9854,-1.9626,-1.9198,-1.8745,-1.8305,-1.7812,-1.8076,-1.916,-2.1866,-2.2777,-2.3375,-2.4725,-2.4694,-2.4413,-2.4331,-2.3989,-2.3624,-2.3067,-2.2688,-2.2557,-2.2962,-2.2688,-2.2341,-2.2197,-2.198,-2.1349,-2.031,-1.9132,-1.8301,-1.7887,-1.7827,-1.7807,-1.786,-1.7935,-1.7929,-1.8113,-1.8161,-1.8206,-1.8167,-1.7764,-1.7674,-1.7908,-1.7755,-1.7683,-1.7683,-1.7683,-1.7997,-1.8479,-1.7917,-1.7917,-1.8327,-1.7844,-1.7602,-1.7538,-1.7794,-1.7987,-1.8062,-1.8262,-1.824,-1.8102,-0.748,-0.7714,-0.7863,-0.8161,-0.8237,-0.8313,-0.8627,-0.8703,-0.8703,-0.878,-0.8861,-0.8856,-0.8932,-0.9387,-0.976,-1.0137,-1.0363,-1.0812,-1.1484,-1.1916,-1.2498,-1.3091,-1.344,-1.3498,-1.3281,-1.4076,-1.4879,-1.5683,-1.6324,-1.6691,-1.683,-1.6691,-1.6751,-1.695,-1.7373,-1.7588,-1.7657,-1.8192,-1.8307,-1.823,-1.8114,-1.8037,-1.7949,-1.7148,-1.695,-1.701,-1.6123,-1.5471,-1.5029,-1.5092,-1.5021,-1.5013,-1.607,-1.6621,-1.7033,-1.7949,-1.8329,-1.828,-1.7858,-1.7642,-1.7429,-1.7102,-1.701,-1.7439,-1.9198,-2.0254,-2.1247,-2.2901,-2.2745,-2.2555,-2.2863,-2.2528,-2.1891,-2.0841,-2.077,-2.0801,-2.0718,-2.0707,-2.0533,-2.0083,-1.9788,-1.9312,-1.8463,-1.8293,-1.8081,-1.7735,-1.7729,-1.786,-1.8044,-1.8096,-1.808,-1.8151,-1.8241,-1.8175,-1.7942,-1.7123,-1.6706,-1.6535,-1.7188,-1.7594,-1.7594,-1.7594,-1.7674,-1.7755,-1.7594,-1.7521,-1.7529,-1.7521,-1.7448,-1.7327,-1.7846,-1.7945,-1.7754,-1.7757,-1.746,-1.6951,-0.5854,-0.6083,-0.6234,-0.6234,-0.6307,-0.6234,-0.6083,-0.6086,-0.6314,-0.6773,-0.685,-0.7,-0.7375,-0.8147,-0.8609,-0.8685,-0.9976,-1.0738,-1.0663,-1.1329,-1.1774,-1.17,-1.17,-1.1774,-1.1694,-1.2492,-1.3723,-1.5305,-1.5534,-1.5956,-1.6376,-1.5886,-1.5675,-1.5745,-1.5816,-1.6035,-1.6324,-1.6515,-1.6913,-1.7248,-1.7129,-1.6706,-1.6053,-1.5613,-1.5196,-1.476,-1.4482,-1.4346,-1.4266,-1.4609,-1.4673,-1.4744,-1.5376,-1.6093,-1.6794,-1.7144,-1.7723,-1.8192,-1.7862,-1.7787,-1.766,-1.7408,-1.7304,-1.7392,-1.7724,-1.8319,-1.8992,-1.9828,-2.0227,-2.0462,-2.0686,-2.1083,-2.1418,-2.1521,-2.1861,-2.1988,-2.1574,-2.1521,-2.1218,-2.037,-1.8887,-1.7701,-1.7288,-1.652,-1.5961,-1.561,-1.588,-1.613,-1.6496,-1.6482,-1.6573,-1.6716,-1.669,-1.6648,-1.6409,-1.6064,-1.5891,-1.5809,-1.5741,-1.5748,-1.5748,-1.5748,-1.6147,-1.6862,-1.6072,-1.6147,-1.6788,-1.6064,-1.5748,-1.5786,-1.6122,-1.6146,-1.5931,-1.6102,-1.6075,-1.6015,-0.5458,-0.5693,-0.577,-0.5848,-0.5922,-0.5925,-0.5931,-0.5931,-0.6009,-0.6314,-0.6314,-0.6388,-0.6615,-0.731,-0.7851,-0.8232,-0.8912,-0.9221,-0.9145,-0.9593,-0.982,-0.9744,-0.9744,-0.9744,-0.9744,-1.0404,-1.1273,-1.2364,-1.414,-1.51,-1.5384,-1.5471,-1.5488,-1.548,-1.5762,-1.5912,-1.6053,-1.5737,-1.572,-1.5843,-1.535,-1.4996,-1.4712,-1.4593,-1.453,-1.4474,-1.4266,-1.3985,-1.363,-1.376,-1.368,-1.3673,-1.4522,-1.5127,-1.569,-1.6404,-1.675,-1.6713,-1.6171,-1.585,-1.5593,-1.4999,-1.4887,-1.5029,-1.5471,-1.5865,-1.6643,-1.8608,-1.9132,-1.9222,-1.9171,-1.933,-1.9308,-1.8786,-1.8841,-1.8899,-1.8705,-1.8676,-1.8466,-1.7859,-1.7009,-1.6383,-1.6156,-1.5848,-1.5691,-1.5737,-1.5888,-1.5881,-1.5739,-1.5754,-1.5576,-1.5047,-1.556,-1.565,-1.5325,-1.5741,-1.5831,-1.5499,-1.5423,-1.5431,-1.5431,-1.5431,-1.559,-1.5982,-1.559,-1.5582,-1.5899,-1.5249,-1.4999,-1.5049,-1.528,-1.5487,-1.5742,-1.5732,-1.5832,-1.5737]}]]